[[{"header":{"parameterUnit":"m.s-1","parameterCategory":1,"la1":31.0,"la2":29.5877,"lo1":-88.7671,"lo2":-86.6584,"dy":0.0162,"dx":0.0185,"nx":115,"ny":88,"refTime":"2024-09-11T12:00:00:Z","depth":0,"parameterNumber":2,"parameterNumberName":"U-component_of_WINDS"},"data":[0.0,0.0,0.0,0.0,0.0,0.0,0.0,0.0,0.0,0.0,0.0,0.0,0.0,0.0,0.0,0.0,0.0,0.0,0.0,0.0,0.0,0.0,0.0,0.0,0.0,0.0,0.0,0.0,0.0,0.0,0.0,0.0,0.0,0.0,0.0,0.0,0.0,0.0,0.0,0.0,0.0,0.0,0.0,0.0,0.0,0.0,0.0,0.0,0.0,0.0,0.0,0.0,0.0,0.0,0.0,0.0,0.0,0.0,0.0,0.0,0.0,0.0,0.0,0.0,0.0,0.0,0.0,0.0,0.0,0.0,0.0,0.0,0.0,0.0,0.0,0.0,0.0,0.0,0.0,0.0,0.0,0.0,0.0,0.0,0.0,0.0,0.0,0.0,0.0,0.0,0.0,0.0,0.0,0.0,0.0,0.0,0.0,0.0,0.0,0.0,0.0,0.0,0.0,0.0,0.0,0.0,0.0,0.0,0.0,0.0,0.0,0.0,0.0,0.0,0.0,0.0,0.0,0.0,0.0,0.0,0.0,0.0,0.0,0.0,0.0,0.0,0.0,0.0,0.0,0.0,0.0,0.0,0.0,0.0,0.0,0.0,0.0,0.0,0.0,0.0,0.0,0.0,0.0,0.0,0.0,0.0,0.0,0.0,0.0,0.0,0.0,0.0,0.0,0.0,0.0,0.0,0.0,0.0,0.0,0.0,0.0,0.0,0.0,0.0,0.0,0.0,0.0,0.0,0.0,0.0,0.0,0.0,0.0,0.0,0.0,0.0,0.0,0.0,0.0,0.0,0.0,0.0,0.0,0.0,0.0,0.0,0.0,0.0,0.0,0.0,0.0,0.0,0.0,0.0,0.0,0.0,0.0,0.0,0.0,0.0,0.0,0.0,0.0,0.0,0.0,0.0,0.0,0.0,0.0,0.0,0.0,0.0,0.0,0.0,0.0,0.0,0.0,0.0,0.0,0.0,0.0,0.0,0.0,0.0,0.0,0.0,0.0,0.0,0.0,0.0,0.0,0.0,0.0,0.0,0.0,0.0,0.0,0.0,0.0,0.0,0.0,0.0,0.0,0.0,0.0,0.0,0.0,0.0,0.0,0.0,0.0,0.0,0.0,0.0,0.0,0.0,0.0,0.0,0.0,0.0,0.0,0.0,0.0,0.0,0.0,0.0,0.0,0.0,0.0,0.0,0.0,0.0,0.0,0.0,0.0,0.0,0.0,0.0,0.0,0.0,0.0,0.0,0.0,0.0,0.0,0.0,0.0,0.0,0.0,0.0,0.0,0.0,0.0,0.0,0.0,0.0,0.0,0.0,0.0,0.0,0.0,0.0,0.0,0.0,0.0,0.0,0.0,0.0,0.0,0.0,0.0,0.0,0.0,0.0,0.0,0.0,0.0,0.0,0.0,0.0,0.0,0.0,0.0,0.0,0.0,0.0,0.0,0.0,0.0,0.0,0.0,0.0,0.0,0.0,0.0,0.0,0.0,0.0,0.0,0.0,0.0,0.0,0.0,0.0,0.0,0.0,0.0,0.0,0.0,0.0,0.0,0.0,0.0,0.0,0.0,0.0,0.0,0.0,0.0,0.0,0.0,0.0,0.0,0.0,0.0,0.0,0.0,0.0,0.0,0.0,0.0,0.0,0.0,0.0,0.0,0.0,0.0,0.0,0.0,0.0,0.0,0.0,0.0,0.0,0.0,0.0,0.0,0.0,0.0,0.0,0.0,0.0,0.0,0.0,0.0,0.0,0.0,0.0,0.0,0.0,0.0,0.0,0.0,0.0,0.0,0.0,0.0,0.0,0.0,0.0,0.0,0.0,0.0,0.0,0.0,0.0,0.0,0.0,0.0,0.0,0.0,0.0,0.0,0.0,0.0,0.0,0.0,0.0,0.0,0.0,0.0,0.0,0.0,0.0,0.0,0.0,0.0,0.0,0.0,0.0,0.0,0.0,0.0,0.0,0.0,0.0,0.0,0.0,0.0,0.0,0.0,0.0,0.0,0.0,0.0,0.0,0.0,0.0,0.0,0.0,0.0,0.0,0.0,0.0,0.0,0.0,0.0,0.0,0.0,0.0,0.0,0.0,0.0,0.0,0.0,0.0,0.0,0.0,0.0,0.0,0.0,0.0,0.0,0.0,0.0,0.0,0.0,0.0,0.0,0.0,0.0,0.0,0.0,0.0,0.0,0.0,0.0,0.0,0.0,0.0,0.0,0.0,0.0,0.0,0.0,0.0,0.0,0.0,0.0,0.0,0.0,0.0,0.0,0.0,0.0,0.0,0.0,0.0,0.0,0.0,0.0,0.0,0.0,0.0,0.0,0.0,0.0,0.0,0.0,0.0,0.0,0.0,0.0,0.0,0.0,0.0,0.0,0.0,0.0,0.0,0.0,0.0,0.0,0.0,0.0,0.0,0.0,0.0,0.0,0.0,0.0,0.0,0.0,0.0,0.0,0.0,0.0,0.0,0.0,0.0,0.0,0.0,0.0,0.0,0.0,0.0,0.0,0.0,0.0,0.0,0.0,0.0,0.0,0.0,0.0,0.0,0.0,0.0,0.0,0.0,0.0,0.0,0.0,0.0,0.0,0.0,0.0,0.0,0.0,0.0,0.0,0.0,0.0,0.0,0.0,0.0,0.0,0.0,0.0,0.0,0.0,0.0,0.0,0.0,0.0,0.0,0.0,0.0,0.0,0.0,0.0,0.0,0.0,0.0,0.0,0.0,0.0,0.0,0.0,0.0,0.0,0.0,0.0,0.0,0.0,0.0,0.0,0.0,0.0,0.0,0.0,0.0,0.0,0.0,0.0,0.0,0.0,0.0,0.0,0.0,0.0,0.0,0.0,0.0,0.0,0.0,0.0,0.0,0.0,0.0,0.0,0.0,0.0,0.0,0.0,0.0,0.0,0.0,0.0,0.0,0.0,0.0,0.0,0.0,0.0,0.0,0.0,0.0,0.0,0.0,0.0,0.0,0.0,0.0,0.0,0.0,0.0,0.0,0.0,0.0,0.0,0.0,0.0,0.0,0.0,0.0,0.0,0.0,0.0,0.0,0.0,0.0,0.0,0.0,0.0,0.0,0.0,0.0,0.0,0.0,0.0,0.0,0.0,0.0,0.0,0.0,0.0,0.0,0.0,0.0,0.0,0.0,0.0,0.0,0.0,0.0,0.0,0.0,0.0,0.0,0.0,0.0,0.0,0.0,0.0,0.0,0.0,0.0,0.0,0.0,0.0,0.0,0.0,0.0,0.0,0.0,0.0,0.0,0.0,0.0,0.0,0.0,0.0,0.0,0.0,0.0,0.0,0.0,0.0,0.0,0.0,0.0,0.0,0.0,0.0,0.0,0.0,0.0,0.0,0.0,0.0,0.0,0.0,0.0,0.0,0.0,0.0,0.0,0.0,0.0,0.0,0.0,0.0,0.0,0.0,0.0,0.0,0.0,0.0,0.0,0.0,0.0,0.0,0.0,0.0,0.0,0.0,0.0,0.0,0.0,0.0,0.0,0.0,0.0,0.0,0.0,0.0,0.0,0.0,0.0,0.0,0.0,0.0,0.0,0.0,0.0,0.0,0.0,0.0,0.0,0.0,0.0,0.0,0.0,0.0,0.0,0.0,0.0,0.0,0.0,0.0,0.0,0.0,0.0,0.0,0.0,0.0,0.0,0.0,0.0,0.0,0.0,0.0,0.0,0.0,0.0,0.0,0.0,0.0,0.0,0.0,0.0,0.0,0.0,0.0,0.0,0.0,0.0,0.0,0.0,0.0,0.0,0.0,0.0,0.0,0.0,0.0,0.0,0.0,0.0,0.0,0.0,0.0,0.0,0.0,0.0,0.0,0.0,0.0,0.0,0.0,0.0,0.0,0.0,0.0,0.0,0.0,0.0,0.0,0.0,0.0,0.0,0.0,0.0,0.0,0.0,0.0,0.0,0.0,0.0,0.0,0.0,0.0,0.0,0.0,0.0,0.0,0.0,0.0,0.0,0.0,0.0,0.0,0.0,0.0,0.0,0.0,0.0,0.0,0.0,0.0,0.0,0.0,0.0,0.0,0.0,0.0,0.0,0.0,0.0,0.0,0.0,0.0,0.0,0.0,0.0,0.0,0.0,0.0,0.0,0.0,0.0,0.0,0.0,0.0,0.0,0.0,0.0,0.0,0.0,0.0,0.0,0.0,0.0,0.0,0.0,0.0,0.0,0.0,0.0,0.0,0.0,0.0,0.0,0.0,0.0,0.0,0.0,0.0,0.0,0.0,0.0,0.0,0.0,0.0,0.0,-0.0022,0.0,0.0,0.0,0.0,0.0,0.0,0.0,0.0,0.0,0.0,0.0,0.0,0.0,0.0,0.0,0.0,0.0,0.0,0.0,0.0,0.0,0.0,0.0,0.0,0.0,0.0,0.0,0.0,0.0,0.0,0.0,0.0,0.0,0.0,0.0,0.0,0.0,0.0,0.0,0.0,0.0,0.0,0.0,0.0,0.0,0.0,0.0,0.0,0.0,0.0,0.0,0.0,0.0,0.0,0.0,0.0,0.0,0.0,0.0,0.0,0.0,0.0,0.0,0.0,0.0,0.0,0.0,0.0,0.0,0.0,0.0,0.0,0.0,0.0,0.0,0.0,0.0,0.0,0.0,0.0,0.0,0.0,0.0,0.0,0.0,0.0,0.0,0.0,0.0,0.0,0.0,0.0,0.0,0.0,0.0,0.0,0.0,0.0,0.0,0.0,0.0,0.0,0.0,0.0,0.0,0.0,0.0,0.0,0.0,0.0,0.0873,0.0694,0.0627,0.0425,-0.0,0.0,0.0,0.0,0.0,0.0,0.0,0.0,0.0,0.0,0.0,0.0,0.0,0.0,0.0,0.0,0.0,0.0,0.0,0.0,0.0,0.0,0.0,0.0,0.0,0.0,0.0,0.0,0.0,0.0,0.0,0.0,0.0,0.0,0.0,0.0,0.0,0.0,0.0,0.0,0.0,0.0,0.0,0.0,0.0,0.0,0.0,0.0,0.0,0.0,0.0,0.0,0.0,0.0,0.0,0.0,0.0,0.0,0.0,0.0,0.0,0.0,0.0,0.0,0.0,0.0,0.0,0.0,0.0,0.0,0.0,0.0,0.0,0.0,0.0,0.0,0.0,0.0,0.0,0.0,0.0,0.0,0.0,0.0,0.0,0.0,0.0,0.0,0.0,0.0,0.0,0.0,0.0,0.0,0.0,0.0,0.0,0.0,0.0,0.0,0.0,0.0,0.0,0.0,0.0,0.0,0.0,0.0,0.0,0.0,0.0,0.0,0.0,0.1219,0.0895,0.0252,0.0,0.0,0.0,0.0,0.0,0.0,0.0,0.0,0.0,0.0,0.0,0.0,0.0,0.0,0.0,0.0,0.0,0.0,0.0,0.0,0.0,0.0,0.0,0.0,0.0,0.0,0.0,0.0,0.0,0.0,0.0,0.0,0.0,0.0,0.0,0.0,0.0,0.0,0.0,0.0,0.0,0.0,0.0,0.0,0.0,0.0,0.0,0.0,0.0,0.0,0.0,0.0,0.0,0.0,0.0,0.0,0.0,0.0,0.0,0.0,0.0,0.0,0.0,0.0,0.0,0.0,0.0,0.0,0.0,0.0,0.0,0.0,0.0,0.0,0.0,0.0,0.0,0.0,0.0,0.0,0.0,0.0,0.0,0.0,0.0,0.0,0.0,0.0,0.0,0.0,0.0,0.0,0.0,0.0,0.0,0.0,0.0,0.0,0.0,0.0,0.0,0.0,0.0,0.0,0.0,0.0,0.0,0.0,0.0,0.0,0.1392,0.1546,0.1549,0.0,0.082,0.0,0.0,0.0,0.0,0.0,0.0,0.0,0.0,0.0,0.0,0.0,0.0,0.0,0.0,0.0,0.0,0.0,0.0,0.0,0.0,0.0,0.0,0.0,0.0,0.0,0.0,0.0,0.0,0.0,0.0,0.0,0.0,0.0,0.0,0.0,0.0,0.0,0.0,0.0,0.0,0.0,0.0,0.0,0.0,0.0,0.0,0.0,0.0,0.0,0.0,0.0,0.0,0.0,0.0,0.0,0.0,0.0,0.0,0.0,0.0,0.0,0.0,0.0,0.0,0.0,0.0,0.0,0.0,0.0,0.0,0.0,0.0,0.0,0.0,0.0,0.0,0.0,0.0,0.0,0.0,0.0,0.0,0.0,0.0,0.0,0.0,0.0,0.0,0.0,0.0,0.0,0.0,0.0,0.0,0.0,0.0,0.0,0.0,0.0,0.0,0.0,0.0,0.0,0.0,0.0,0.0,0.0,0.0,0.0,0.0,0.1781,0.1837,0.189,0.1787,0.0,0.0,0.0,0.0,0.0,0.0,0.0,0.0,0.0,0.0,0.0,0.0,0.0,0.0,0.0,0.0,0.0,0.0,0.0,0.0,0.0,0.0,0.0,0.0,0.0,0.0,0.0,0.0,0.0,0.0,0.0,0.0,0.0,0.0,0.0,0.0,0.0,0.0,0.0,0.0,0.0,0.0,0.0,0.0,0.0,0.0,0.0,0.0,0.0,0.0,0.0,0.0,0.0,0.0,0.0,0.0,0.0,0.0,0.0,0.0,0.0,0.0,0.0,0.0,0.0,0.0,0.0,0.0,0.0,0.0,0.0,0.0,0.0,0.0,0.0,0.0,0.0,0.0,0.0,0.0,0.0,0.0,0.0,0.0,0.0,0.0,0.0,0.0,0.0,0.0,0.0,0.0,0.0,0.0,0.0,0.0,0.0,0.0,0.0,0.0,0.0,0.0,0.0,0.0,0.0,0.0,0.0,0.0,0.0,0.0,0.2075,0.2132,0.2094,0.2149,0.2128,0.2086,0.0,0.0,0.0,0.0,0.0,0.0,0.0,0.0,0.0,0.0,0.0,0.0,0.0,0.0,0.0,0.0,0.0,0.0,0.0,0.0,0.0,0.0,0.0,0.0,0.0,0.0,0.0,0.0,0.0,0.0,0.0,0.0,0.0,0.0,0.0,0.0,0.0,0.0,0.0,0.0,0.0,0.0,0.0,0.0,0.0,0.0,0.0,0.0,0.0,0.0,0.0,0.0,0.0,0.0,0.0,0.0,0.0,0.0,0.0,0.0,0.0,0.0,0.0,0.0,0.0,0.0,0.0,0.0,0.0,0.0,0.0,0.0,0.0,0.0,0.0,0.0,0.0,0.0,0.0,0.0,0.0,0.0,0.0,0.0,0.0,0.0,0.0,0.0,0.0,0.0,0.0,0.0,0.0,0.0,0.0,0.0,0.0,0.0,0.0,0.0,0.0,0.0,0.0,0.0,0.0,0.0,0.0,0.0,0.0,0.2185,0.2263,0.2379,0.2324,0.2203,0.0,0.0,0.0,0.0,0.0,0.0,0.0,0.0,0.0,0.0,0.0,0.0,0.0,0.0,0.0,0.0,0.0,0.0,0.0,0.0,0.0,0.0,0.0,0.0,0.0,0.0,0.0,0.0,0.0,0.0,0.0,0.0,0.0,0.0,0.0,0.0,0.0,0.0,0.0,0.0,0.0,0.0,0.0,0.0,0.0,0.0,0.0,0.0,0.0,0.0,0.0,0.0,0.0,0.0,0.0,0.0,0.0,0.0,0.0,0.0,0.0,0.0,0.0,0.0,0.0,0.0,0.0,0.0,0.0,0.0,0.0,0.0,0.0,0.0,0.0,0.0,0.0,0.0,0.0,0.0,0.0,0.0,0.0,0.0,0.0,0.0,0.0,0.0,0.0,0.0,0.0,0.0,0.0,0.0,0.0,0.0,0.0,0.0,0.0,0.0,0.0,0.0,0.0,0.0,0.0,0.0,0.0,0.0,0.0,0.1964,0.2114,0.2318,0.2561,0.2357,0.2168,0.0,0.0,0.0,0.0,0.0,0.0,0.0,0.0,0.0,0.0,0.0,0.0,0.0,0.0,0.0,0.0,0.0,0.0,0.0,0.0,0.0,0.0,0.0,0.0,0.0,0.0,0.0,0.0,0.0,0.0,0.0,0.0,0.0,0.0,0.0,0.0,0.0,0.0,0.0,0.0,0.0,0.0,0.0,0.0,0.0,0.0,0.0,0.0,0.0,0.0,0.0,0.0,0.0,0.0,0.0,0.0,0.0,0.0,0.0,0.0,0.0,0.0,0.0,0.0,0.0,0.0,0.0,0.0,0.0,0.0,0.0,0.0,0.0,0.0,0.0,0.0,0.0,0.0,0.0,0.0,0.0,0.0,0.0,0.0,0.0,0.0,0.0,0.0,0.0,0.0,0.0,0.0,0.0,0.0,0.0,0.0,0.0,0.0,0.0,0.0,0.0,0.0,0.0,0.0,0.0,0.0,0.0,0.0,0.0,0.2097,0.0,0.2507,0.0,0.2434,0.2217,0.0,0.0,0.0,0.0,0.0,0.0,0.0,0.0,0.0,0.0,0.0,0.0,0.0,0.0,0.0,0.0,0.0,0.0,0.0,0.0,0.0,0.0,0.0,0.0,0.0,0.0,0.0,0.0,0.0,0.0,0.0,0.0,0.0,0.0,0.0,0.0,0.0,0.0,0.0,0.0,0.0,0.0,0.0,0.0,0.0,0.0,0.0,0.0,0.0,0.0,0.0,0.0,0.0,0.0,0.0,0.0,0.0,0.0,0.0,0.0,0.0,0.0,0.0,0.0,0.0,0.0,0.0,0.0,0.0,0.0,0.0,0.0,0.0,0.0,0.0,0.0,0.0,0.0,0.0,0.0,0.0,0.0,0.0,0.0,0.0,0.0,0.0,0.0,0.0,0.0,0.0,0.0,0.0,0.0,0.0,0.0,0.0,0.0,0.0,0.0,0.0,0.0,0.0,0.0,0.0,0.0,0.0,0.0,0.2299,0.2683,0.2826,0.278,0.2605,0.2531,0.2321,0.0,0.0,0.0,0.0,0.0,0.0,0.0,0.0,0.0,0.0,0.0,0.0,0.0,0.0,0.0,0.0,0.0,0.0,0.0,0.0,0.0,0.0,0.0,0.0,0.0,0.0,0.0,0.0,0.0,0.0,0.0,0.0,0.0,0.0,0.0,0.0,0.0,0.0,0.0,0.0,0.0,0.0,0.0,0.0,0.0,0.0,0.0,0.0,0.0,0.0,0.0,0.0,0.0,0.0,0.0,0.0,0.0,0.0,0.0,0.0,0.0,0.0,0.0,0.0,0.0,0.0,0.0,0.0,0.0,0.0,0.0,0.0,0.0,0.0,0.0,0.0,0.0,0.0,0.0,0.0,0.0,0.0,0.0,0.0,0.0,0.0,0.0,0.0,0.0,0.0,0.0,0.0,0.0,0.0,0.0,0.0,0.0,0.0,0.0,0.0,0.0,0.0,0.0,0.0,0.0,0.0,0.0,0.0,0.0,0.2493,0.2668,0.2851,0.299,0.2653,0.2414,0.0,0.0,0.0,0.0,0.0,0.0,0.0,0.0,0.0,0.0,0.0,0.0,0.0,0.0,0.0,0.0,0.0,0.0,0.0,0.0,0.0,0.0,0.0,0.0,0.0,0.0,0.0,0.0,0.0,0.0,0.0,0.0,0.0,0.0,0.0,0.0,0.0,0.0,0.0,0.0,0.0,0.0,0.0,0.0,0.0,0.0,0.0,0.0,0.0,0.0,0.0,0.0,0.0,0.0,0.0,0.0,0.0,0.0,0.0,0.0,0.0,0.0,0.0,0.0,0.0,0.0,0.0,0.0,0.0,0.0,0.0,0.0,0.0,0.0,0.0,0.0,0.0,0.0,0.0,0.0,0.0,0.0,0.0,0.0,0.0,0.0,0.0,0.0,0.0,0.0,0.0,0.0,0.0,0.0,0.0,0.0,0.0,0.0,0.0,0.0,0.0,0.0,0.0,0.0,0.0,0.0,0.0,0.0,0.0,0.2814,0.2981,0.3151,0.331,0.292,0.2627,0.2473,0.0,0.0,0.0,0.0,0.0,0.0,0.0,0.0,0.0,0.0,0.0,0.0,0.0,0.0,0.0,0.0,0.0,0.0,0.0,0.0,0.0,0.0,0.0,0.0,0.0,0.0,0.0,0.0,0.0,0.0,0.0,0.0,0.0,0.0,0.0,0.0,0.0,0.0,0.0,0.0,0.0,0.0,0.0,0.0,0.0,0.0,0.0,0.0,0.0,0.0,0.0,0.0,0.0,0.0,0.0,0.0,0.0,0.0,0.0,0.0,0.0,0.0,0.0,0.0,0.0,0.0,0.0,0.0,0.0,0.0,0.0,0.0,0.0,0.0,0.0,0.0,0.0,0.0,0.0,0.0,0.0,0.0,0.0,0.0,0.0,0.0,0.0,0.0,0.0,0.0,0.0,0.0,0.0,0.0,0.0,0.0,0.0,0.0,0.0,0.0,0.0,0.0,0.0,0.0,0.0,0.0,0.0,0.0,0.3496,0.3699,0.3681,0.3557,0.3322,0.2955,0.0,0.0,0.0,0.0,0.0,0.0,0.0,0.0,0.0,0.0,0.0,0.0,0.0,0.0,0.0,0.0,0.0,0.0,0.0,0.0,0.0,0.0,0.0,0.0,0.0,0.0,0.0,0.0,0.0,0.0,0.0,0.0,0.0,0.0,0.0,0.0,0.0,0.0,0.0,0.0,0.0,0.0,0.0,0.0,0.0,0.0,0.0,0.0,0.0,0.0,0.0,0.0,0.0,0.0,0.0,0.0,0.0,0.0,0.0,0.0,0.0,0.0,0.0,0.0,0.0,0.0,0.0,0.0,0.0,0.0,0.0,0.0,0.0,0.0,0.0,0.0,0.0,0.0,0.0,0.0,0.0,0.0,0.0,0.0,0.0,0.0,0.0,0.0,0.0,0.0,0.0,0.0,0.0,0.0,0.0,0.0,0.0,0.0,0.0,0.0,0.0,0.0,0.0,0.0,0.0,0.0,0.0,0.0,0.0,0.3637,0.4227,0.4401,0.4216,0.3582,0.322,0.0,0.0,0.0,0.0,0.0,0.0,0.0,0.0,0.0,0.0,0.0,0.0,0.0,0.0,0.0,0.0,0.0,0.0,0.0,0.0,0.0,0.0,0.0,0.0,0.0,0.0,0.0,0.0,0.0,0.0,0.0,0.0,0.0,0.0,0.0,0.0,0.0,0.0,0.0,0.0,0.0,0.0,0.0,0.0,0.0,0.0,0.0,0.0,0.0,0.0,0.0,0.0,0.0,0.0,0.0,0.0,0.0,0.0,0.0,0.0,0.0,0.0,0.0,0.0,0.0,0.0,0.0,0.0,0.0,0.0,0.0,0.0,0.0,0.0,0.0,0.0,0.0,0.0,0.0,0.0,0.0,0.0,0.0,0.0,0.0,0.0,0.0,0.0,0.0,0.0,0.0,0.0,0.0,0.0,0.0,0.0,0.0,0.0,0.0,0.0,0.0,0.0,0.0,0.0,0.0,0.0,0.0,0.0,0.3641,0.414,0.4812,0.5092,0.4943,0.4126,0.3594,0.0,0.0,0.0,0.0,0.0,0.0,0.0,0.0,0.0,0.0,0.0,0.0,0.0,0.0,0.0,0.0,0.0,0.0,0.0,0.0,0.0,0.0,0.0,0.0,0.0,0.0,0.0,0.0,0.0,0.0,0.0,0.0,0.0,0.0,0.0,0.0,0.0,0.0,0.0,0.0,0.0,0.0,0.0,0.0,0.0,0.0,0.0,0.0,0.0,0.0,0.0,0.0,0.0,0.0,0.0,0.0,0.0,0.0,0.0,0.0,0.0,0.0,0.0,0.0,0.0,0.0,0.0,0.0,0.0,0.0,0.0,0.0,0.0,0.0,0.0,0.0,0.0,0.0,0.0,0.0,0.0,0.0,0.0,0.0,0.0,0.0,0.0,0.0,0.0,0.0,0.0,0.0,0.0,0.0,0.0,0.0,0.0,0.0,0.0,0.0,0.0,0.0,0.0,0.0,0.0,0.0,0.0,0.0,0.4122,0.4792,0.5352,0.5628,0.5588,0.4759,0.4094,0.0,0.0,0.0,0.0,0.0,0.0,0.0,0.0,0.0,0.0,0.0,0.0,0.0,0.0,0.0,0.0,0.0,0.0,0.0,0.0,0.0,0.0,0.0,0.0,0.0,0.0,0.0,0.0,0.0,0.0,0.0,0.0,0.0,0.0,0.0,0.0,0.0,0.0,0.0,0.0,0.0,0.0,0.0,0.0,0.0,0.0,0.0,0.0,0.0,0.0,0.0,0.0,0.0,0.0,0.0,0.0,0.0,0.0,0.0,0.0,0.0,0.0,0.0,0.0,0.0,0.0,0.0,0.0,0.0,0.0,0.0,0.0,0.0,0.0,0.0,0.0,0.0,0.0,0.0,0.0,0.0,0.0,0.0,0.0,0.0,0.0,0.0,0.0,0.0,0.0,0.0,0.0,0.0,0.0,0.0,0.0,0.0,0.0,0.0,0.0,0.0,0.0,0.0,0.0,0.0,0.0,0.0,0.0,0.4369,0.48,0.5478,0.5758,0.5608,0.4881,0.4302,0.0,0.0,0.0,0.0,0.0,0.0,0.0,0.0,0.0,0.0,0.0,0.0,0.0,0.0,0.0,0.0,0.0,0.0,0.0,0.0,0.0,0.0,0.0,0.0,0.0,0.0,0.0,0.0,0.0,0.0,0.0,0.0,0.0,0.0,0.0,0.0,0.0,0.0,0.0,0.0,0.0,0.0,0.0,0.0,0.0,0.0,0.0,0.0,1.5412,0.0,0.0,0.0,0.0,0.0,0.0,0.0,0.0,0.0,0.0,0.0,0.0,0.0,0.0,0.0,0.0,0.0,0.0,0.0,0.0,0.0,0.0,0.0,0.0,0.0,0.0,0.0,0.0,0.0,0.0,0.0,0.0,0.0,0.0,0.0,0.0,0.0,0.0,0.0,0.0,0.0,0.0,0.0,0.0,0.0,0.0,0.0,0.0,0.0,0.0,0.0,0.0,0.0,0.0,0.0,0.0,0.0,0.0,0.0,0.4568,0.5169,0.5726,0.5921,0.5612,0.5183,0.4637,0.0,0.0,0.0,0.0,0.0,0.0,0.0,0.0,0.0,0.0,0.0,0.0,0.0,0.0,0.0,0.0,0.0,0.0,0.0,0.0,0.0,0.0,0.0,0.0,0.0,0.0,0.0,0.0,0.0,0.0,0.0,0.0,0.0,0.0,0.0,0.0,0.0,0.0,0.0,0.0,0.0,0.0,0.0,0.0,0.0,0.0,0.0,0.0,0.0,0.0,0.0,0.0,0.0,0.0,0.0,0.0,0.0,0.0,0.0,0.0,0.0,0.0,0.0,0.0,0.0,0.0,0.0,0.0,0.0,0.0,0.0,0.0,0.0,0.0,0.0,0.0,0.0,0.0,0.0,0.0,0.0,0.0,0.0,0.0,0.0,0.0,0.0,0.0,0.0,0.0,0.0,0.0,0.0,0.0,0.0,0.0,0.0,0.0,0.0,0.0,0.0,0.0,0.0,0.0,0.0,0.0,0.0,0.4077,0.4751,0.562,0.6002,0.6091,0.5763,0.5537,0.4976,0.4022,0.0,0.0,0.0,0.0,0.0,0.0,0.0,0.0,0.0,0.0,0.0,0.0,0.0,0.0,0.0,0.0,0.0,0.0,0.0,0.0,0.0,0.0,0.0,0.0,0.0,0.0,0.0,0.0,0.0,0.0,0.0,0.0,0.0,0.0,0.0,0.0,0.0,0.0,0.9304,1.1277,0.0,0.0,0.0,0.0,0.0,0.0,0.0,0.0,1.3912,0.0,0.0,0.0,0.0,0.0,0.0,0.0,0.0,0.0,0.0,0.0,0.0,0.0,0.0,0.0,0.0,0.0,0.0,0.0,0.0,0.0,0.0,0.0,0.0,0.0,0.0,0.0,0.0,0.0,0.0,0.0,0.0,0.0,0.0,0.0,0.0,0.0,0.0,0.0,0.0,0.0,0.0,0.0,0.0,0.0,0.0,0.0,0.0,0.0,0.0,0.0,0.0,0.0,0.0,0.0,0.0,0.413,0.4382,0.4934,0.5823,0.6193,0.6217,0.59,0.5541,0.4976,0.4052,0.0,0.0,0.0,0.0,0.0,0.0,0.0,0.0,0.0,0.0,0.0,0.0,0.0,0.0,0.0,0.0,0.0,0.0,0.0,0.0,0.0,0.0,0.0,0.0,0.0,0.0,0.0,0.0,0.0,0.0,0.0,0.0,0.0,0.0,0.0,0.0,0.0,0.0,0.0,1.3395,1.4758,0.0,0.0,0.0,0.0,0.0,0.0,0.0,0.0,1.839,0.0,0.0,0.0,0.0,0.0,0.0,0.0,0.0,0.0,0.0,0.0,0.0,0.0,0.0,0.0,0.0,0.0,0.0,0.0,0.0,0.0,0.0,0.0,0.0,0.0,0.0,0.0,0.0,0.0,0.0,0.0,0.0,0.0,0.0,0.0,0.0,0.0,0.0,0.0,0.0,0.0,0.0,0.0,0.0,0.0,0.0,0.0,0.0,0.0,0.0,0.0,0.0,0.0,0.0,0.0,0.398,0.4586,0.5213,0.5872,0.6233,0.6117,0.5654,0.5307,0.4687,0.0,0.0,0.0,0.0,0.0,0.0,0.0,0.0,0.0,0.0,0.0,0.0,0.0,0.0,0.0,0.0,0.0,0.0,0.0,0.0,0.0,0.0,0.0,0.0,0.0,0.0,0.0,0.0,0.0,0.0,0.0,0.0,0.0,0.0,0.0,0.0,0.0,0.0,0.0,0.0,1.4958,1.6223,1.8223,0.0,0.0,0.0,0.0,0.0,0.0,1.8596,1.8181,0.0,0.0,0.0,0.0,0.0,0.0,0.0,0.0,0.0,0.0,0.0,0.0,0.0,0.0,0.0,0.0,0.0,0.0,0.0,0.0,0.0,0.0,0.0,0.0,0.0,0.0,0.0,0.0,0.0,0.0,0.0,0.0,0.0,0.0,0.0,0.0,0.0,0.0,0.0,0.0,0.0,0.0,0.0,0.0,0.0,0.0,0.0,0.0,0.0,0.0,0.0,0.0,0.0,0.0,0.0,0.3683,0.4669,0.5377,0.582,0.6105,0.5993,0.5407,0.5012,0.4457,0.0,0.0,0.0,0.0,0.0,0.0,0.0,0.0,0.0,0.0,0.0,0.0,0.0,0.0,0.0,0.0,0.0,0.0,0.0,0.0,0.0,0.0,0.0,0.0,0.0,0.0,0.0,0.0,0.0,0.0,0.0,0.0,0.0,0.0,0.0,0.0,0.0,0.0,0.0,0.0,0.0,1.7802,1.9841,1.9614,0.0,0.0,0.0,0.0,1.9795,1.9006,0.0,0.0,0.0,0.0,0.0,0.0,0.0,0.0,0.0,0.0,0.0,0.0,0.0,0.0,0.0,0.0,0.0,0.0,0.0,0.0,0.0,0.0,0.0,0.0,0.0,0.0,0.0,0.0,0.0,0.0,0.0,0.0,0.0,0.0,0.0,0.0,0.0,0.0,0.0,0.0,0.0,0.0,0.0,0.0,0.0,0.0,0.0,0.0,0.0,0.0,0.0,0.0,0.0,0.0,0.0,0.0,0.3528,0.4415,0.5037,0.5453,0.5788,0.5796,0.5411,0.5057,0.4569,0.0,0.0,0.0,0.0,0.0,0.0,0.0,0.0,0.0,0.0,0.0,0.0,0.0,0.0,0.0,0.0,0.0,0.0,0.0,0.0,0.0,0.0,0.0,0.0,0.0,0.0,0.0,0.0,0.0,0.0,0.0,0.0,0.0,0.0,0.0,0.0,0.0,0.0,0.0,0.0,0.0,1.9658,2.081,1.9955,1.9401,0.0,0.0,1.8345,2.2104,2.2875,0.0,0.0,0.0,0.0,0.0,0.0,0.0,0.0,0.0,0.0,0.0,0.0,0.0,0.0,0.0,0.0,0.0,0.0,0.0,0.0,0.0,0.0,0.0,0.0,0.0,0.0,0.0,0.0,0.0,0.0,0.0,0.0,0.0,0.0,0.0,0.0,0.0,0.0,0.0,0.0,0.0,0.0,0.0,0.0,0.0,0.0,0.0,0.0,0.0,0.0,0.0,0.0,0.0,0.0,0.0,0.3336,0.3512,0.4575,0.5246,0.54,0.5631,0.5445,0.4789,0.4446,0.3827,0.0,0.0,0.0,0.0,0.0,0.0,0.0,0.0,0.0,0.0,0.0,0.0,0.0,0.0,0.0,0.0,0.0,0.0,0.0,0.0,0.0,0.0,0.0,0.0,0.0,0.0,0.0,0.0,0.0,0.0,0.0,0.0,0.0,0.0,0.0,0.0,0.0,0.0,0.0,0.0,0.0,0.0,2.1861,2.1891,0.0,0.0,0.0,2.111,2.2585,0.0,0.0,0.0,0.0,0.0,0.0,0.0,0.0,0.0,0.0,0.0,0.0,0.0,0.0,0.0,0.0,0.0,0.0,0.0,0.0,0.0,0.0,0.0,0.0,0.0,0.0,0.0,0.0,0.0,0.0,0.0,0.0,0.0,0.0,0.0,0.0,0.0,0.0,0.0,0.0,0.0,0.0,0.0,0.0,0.0,0.0,0.0,0.0,0.0,0.0,0.0,0.0,0.0,0.0,0.0,0.0,0.0,0.3462,0.4683,0.5218,0.5039,0.5241,0.4866,0.3983,0.3709,0.0,0.0,0.0,0.0,0.0,0.0,0.0,0.0,0.0,0.0,0.0,0.0,0.0,0.0,0.0,0.0,0.0,0.0,0.0,0.0,0.0,0.0,0.0,0.0,0.0,0.0,0.0,0.455,0.0,0.0,0.0,0.0,0.0,0.0,0.0,0.0,0.0,0.0,0.0,0.0,0.0,0.0,2.059,2.2518,2.3134,2.3578,0.0,0.0,2.3035,2.3211,2.6172,2.6716,0.0,0.0,0.0,0.0,0.0,0.0,0.0,0.0,0.0,0.0,0.0,0.0,0.0,0.0,0.0,0.0,0.0,0.0,0.0,0.0,0.0,0.0,0.0,0.0,0.0,0.0,0.0,0.0,0.0,0.0,0.0,0.0,0.0,0.0,0.0,0.0,0.0,0.0,0.0,0.0,0.0,0.0,0.0,0.0,0.0,0.0,0.0,0.0,0.0,0.0,0.0,0.0,0.0,0.0,0.0,0.3282,0.446,0.4725,0.3936,0.417,0.3924,0.3138,0.2866,0.2598,0.0,0.0,0.0,0.0,0.0,0.0,0.0,0.0,0.0,0.0,0.0,0.0,0.0,0.0,0.0,0.0,0.0,0.0,0.0,0.0,0.0,0.0,0.0,0.0,0.0,0.0,0.0,0.0,0.0,0.0,0.0,0.0,0.0,0.0,0.0,0.0,0.0,0.0,0.0,0.0,0.0,2.1118,2.2281,2.2588,2.3225,0.0,0.0,2.2169,2.4787,2.697,2.7622,2.5246,0.0,0.0,0.0,0.0,0.0,0.0,0.0,0.0,0.0,0.0,0.0,0.0,0.0,0.0,0.0,0.0,0.0,0.0,0.0,0.0,0.0,0.0,0.0,0.0,0.0,0.0,0.0,0.0,0.0,0.0,0.0,0.0,0.0,0.0,0.0,0.0,0.0,0.0,0.0,0.0,0.0,0.0,0.0,0.0,0.0,0.0,0.0,0.0,0.0,0.0,0.0,0.0,0.0,0.2694,0.2642,0.3411,0.3625,0.3322,0.3418,0.3111,0.2465,0.2395,0.2099,0.0,0.0,0.0,0.0,0.0,0.0,0.0,0.0,0.0,0.0,0.0,0.0,0.0,0.0,0.0,0.0,0.0,0.0,0.0,0.0,0.0,0.0,0.0,0.0,0.0,0.0,0.0,0.0,0.9788,1.0476,0.9131,0.0,0.0,0.0,0.0,0.0,0.0,0.0,0.0,0.0,0.0,2.1248,2.3012,2.3452,0.0,0.0,2.4041,2.3908,2.5519,2.5657,2.5504,2.5324,2.283,0.0,0.0,0.0,0.0,0.0,0.0,0.0,0.0,0.0,0.0,0.0,0.0,0.0,0.0,0.0,0.0,0.0,0.0,0.0,0.0,0.0,0.0,0.0,0.0,0.0,0.0,0.0,0.0,0.0,0.0,0.0,0.0,0.0,0.0,0.0,0.0,0.0,0.0,0.0,0.0,0.0,0.0,0.0,0.0,0.0,0.0,0.0,0.0,0.0,0.0,0.0,0.0,0.2276,0.228,0.2777,0.2905,0.2684,0.268,0.2423,0.1784,0.179,0.155,0.0,0.0,0.0,0.0,0.0,0.0,0.0,0.0,0.0,0.0,0.0,0.0,0.0,0.0,0.0,0.0,0.0,0.0,0.0,0.0,0.0,0.0,0.0,0.0,0.0,0.0,0.0,0.0,0.984,1.0274,0.8912,0.0,0.0,0.0,0.0,0.0,0.0,0.0,0.0,0.0,0.0,2.1176,2.284,2.348,2.3903,2.4407,2.4428,2.4649,2.5524,2.4948,2.44,2.4513,0.0,0.0,0.0,0.0,0.0,0.0,0.0,0.0,0.0,0.0,0.0,0.0,0.0,0.0,0.0,0.0,0.0,0.0,0.0,0.0,0.0,0.0,0.0,0.0,0.0,0.0,0.0,-0.0,0.0,0.0,0.0223,0.0,0.0,0.0,0.0,0.0,0.0,0.0,0.0,0.0,0.0,0.0,0.0,0.0,0.0,0.0,0.0,0.0,0.0,0.0,0.0,0.0,0.0,0.2202,0.2319,0.2695,0.2624,0.1928,0.2056,0.1775,0.1052,0.0956,0.0993,0.1094,0.0,0.0,0.0,0.0,0.0,0.0,0.0,0.0,0.0,0.0,0.0,0.0,0.0,0.0,0.0,0.0,0.0,0.0,0.0,0.0,0.0,0.0,0.0,0.0,0.0,0.0,0.5745,0.7225,0.8358,0.0,0.0,0.0,0.0,0.0,0.0,0.0,0.0,0.0,0.0,1.9105,2.0845,2.1406,2.2171,2.2932,2.3476,2.3431,2.3692,2.4748,2.527,2.499,0.0,0.0,0.0,0.0,0.0,0.0,0.0,0.0,0.0,0.0,0.0,0.0,0.0,0.0,0.0,0.0,0.0,0.0,0.0,0.0,0.0,0.0,0.0,0.0,0.0,0.0,0.0,-0.0273,-0.0281,0.0,0.0,0.0,0.0,0.0,0.0,0.0,0.0,0.0,0.0,0.0,-0.0313,0.0233,0.0,0.0,0.0,0.0,0.0,0.0,0.0,0.0,0.0,0.0,0.0,0.0,0.1442,0.1515,0.1605,0.1565,0.1289,0.1354,0.1285,0.1018,0.0969,0.0941,0.11,0.0,0.0,0.0,0.0,0.0,0.0,0.0,0.0,0.0,0.0,0.0,0.0,0.0,0.0,0.0,0.0,0.0,0.0,0.0,0.0,0.0,0.0,0.0,0.0,0.0,0.6833,0.0,0.0,0.0,0.0,0.0,0.0,0.0,0.0,0.0,0.0,0.0,1.644,1.795,1.8769,1.9712,2.1012,2.1469,2.2212,0.0,0.0,0.0,0.0,0.0,0.0,0.0,0.0,0.0,0.0,0.0,0.0,0.0,0.0,2.4888,2.1382,2.07,2.0808,2.121,0.0,0.0,0.0,0.0,0.0,0.0,0.0,0.0,0.0,0.0,0.0,0.0,0.0,0.0,-0.0912,0.0,-0.0734,0.0,0.0,0.0,0.0,0.0,0.0,0.0,0.0,-0.0872,-0.0934,-0.0998,-0.0489,-0.0217,0.0,0.0311,0.0553,0.0,0.0,0.0,0.0,0.0,0.0,0.0,0.0,0.1072,0.1137,0.1062,0.1018,0.1046,0.1048,0.1044,0.1033,0.0914,0.0962,0.1033,0.1025,0.1,0.0,0.0,0.0,0.0,0.0,0.0,0.0,0.0,0.0,0.0,0.0,0.0,0.0,0.0,0.0,0.0,0.0,0.0,0.0,0.0,0.0,0.0,0.0,0.685,0.0,0.0,0.0,0.0,0.0,0.0,0.0,0.0,0.0,1.3843,1.5565,1.7132,1.8215,1.8695,1.9368,2.0484,0.0,0.0,0.0,0.0,0.0,0.0,0.0,2.3654,2.6051,2.5205,2.4507,2.542,2.717,2.8522,2.8689,0.0,0.0,2.5332,2.4762,2.5193,2.5926,2.6793,2.7411,2.7459,2.8359,2.9099,0.0,0.0,0.0,0.0,0.0,0.0,0.0,0.0,-0.1721,-0.1582,0.0,-0.1336,0.0,0.0,0.0,0.0,0.0,-0.1122,0.0,0.0,-0.1374,-0.133,-0.1232,-0.0899,-0.066,-0.0615,-0.012,-0.0225,-0.0709,0.0363,0.0,0.0,0.0,0.0,0.0,0.0,0.1078,0.1122,0.1018,0.0982,0.1006,0.1075,0.1062,0.1033,0.0916,0.0945,0.0938,0.1037,0.11,0.109,0.1031,0.0,0.0,0.0,0.0,0.0,0.0,0.0,0.0,0.0,0.0,0.0,0.0,0.0,0.0,0.0,0.0,0.0,0.0,0.0,0.0,0.6169,0.0,0.0,0.0,0.0,0.0,0.0,0.0,0.0,0.0,0.0,1.2515,1.4884,1.6842,1.7606,0.0,0.0,0.0,0.0,2.2041,2.153,2.1819,2.2348,2.2922,2.4112,2.5256,2.6085,0.0,0.0,2.7861,2.9042,2.9983,2.947,3.1712,3.2806,3.0703,2.9666,2.9753,3.1366,3.132,3.1601,3.3015,3.3307,3.3437,-0.3283,0.0,0.0,0.0,0.0,-0.2089,-0.2022,-0.2193,-0.1919,-0.1759,-0.1627,-0.1609,0.0,0.0,0.0,0.0,0.0,0.0,-0.1579,-0.1752,-0.1818,-0.1844,-0.1903,-0.1367,-0.1107,-0.1115,-0.0586,-0.0443,-0.0664,-0.0528,-0.0252,0.0215,0.0,0.0,0.0,0.0,-0.0154,-0.0113,0.0247,0.0261,-0.0067,0.0672,0.1062,0.1034,0.0953,0.0925,0.0944,0.0909,0.0958,0.0911,0.0883,0.0,0.0,0.0,0.0,0.0,0.0,0.0,0.0,0.0,0.0,0.0,0.0,0.0,0.0,0.0,0.0,0.0,0.0,0.0,0.5981,0.6759,0.7089,0.0,0.0,0.0,0.0,0.0,0.0,0.0,0.0,0.0,1.3822,1.6669,1.8773,0.0,0.0,1.9669,1.9425,2.051,2.1741,2.299,2.3977,0.0,2.6042,2.6382,2.7105,2.8716,2.9996,3.0977,3.1585,3.2694,3.3669,3.3964,3.4995,3.5619,3.5243,3.4163,3.3686,3.4339,3.4833,3.5327,3.5958,3.6541,3.6928,-0.4177,-0.3492,-0.3452,-0.3411,-0.3475,-0.3193,-0.304,-0.2881,-0.2682,-0.2361,-0.1954,-0.1931,-0.1832,-0.1681,-0.1632,0.0,0.0,0.0,-0.1913,-0.2061,-0.2074,-0.2119,-0.2185,-0.1826,-0.1681,-0.1614,-0.1076,-0.0932,-0.1245,-0.1166,-0.1043,-0.0731,0.0,0.0,-0.0854,-0.1014,-0.1115,-0.1077,-0.0699,-0.0594,-0.0739,0.0067,0.0467,0.0394,0.0389,0.0317,0.0306,0.0477,0.0568,0.0524,0.0691,0.0751,0.0,0.0,0.0,0.0,0.0,0.0,0.0,0.0,0.0,0.0,0.0,0.2564,0.2481,0.0,0.0,0.0,0.4997,0.6021,0.6892,0.7442,0.0,0.0,0.0,0.0,0.0,0.0,0.0,1.0797,1.1873,1.2971,1.4031,1.6487,1.8605,1.9688,2.0017,2.008,1.9854,0.0,2.2153,2.3363,2.4469,2.5494,2.6279,2.696,2.8054,3.0085,3.1405,3.2362,3.3105,3.4364,3.5509,3.6159,3.6951,3.7627,3.7962,3.7442,3.699,3.7032,3.751,3.8069,3.8614,3.9157,3.9445,-0.4899,-0.4887,-0.4427,-0.4369,-0.4507,-0.4428,-0.4138,-0.3768,-0.3697,-0.3211,-0.2412,-0.2359,-0.2273,-0.2157,-0.2039,0.0,-0.2174,-0.217,-0.2225,-0.226,-0.2206,-0.2182,-0.2178,-0.2195,-0.2166,-0.2161,-0.1687,-0.1684,-0.2217,-0.1767,-0.1568,-0.1657,-0.1895,-0.1943,-0.1825,-0.177,-0.1796,-0.1788,-0.1626,-0.1406,-0.1076,-0.0739,-0.0538,-0.047,-0.0588,-0.0579,-0.0576,-0.0182,0.0059,0.0058,0.0521,0.0724,0.0759,0.0,0.0,0.0,0.0,0.0,0.0,0.0,0.0,0.0,0.0,0.0,0.0,0.0,0.0,0.0,0.5728,0.0,0.8146,0.8045,0.0,0.0,0.0,0.9021,1.0108,1.0926,1.1701,1.2355,0.0,0.0,1.3449,1.4984,1.6992,1.941,2.0249,2.0677,2.0741,2.2004,2.2941,2.3069,2.4066,2.4788,2.5384,2.6842,2.8797,3.074,3.1965,3.2796,3.3302,3.4663,3.5929,3.638,3.7703,3.8841,3.9186,3.9397,3.9734,3.9249,3.9383,3.9848,4.0647,4.0901,4.0845,-0.6366,-0.6373,-0.6304,-0.5685,-0.4618,-0.4307,-0.4113,-0.3971,-0.3823,-0.3616,-0.3452,-0.3495,-0.3264,-0.2921,-0.2833,-0.2607,-0.2354,-0.2312,-0.2308,-0.2261,-0.2322,-0.2313,-0.224,-0.23,-0.2268,-0.2225,-0.2358,-0.2469,-0.2621,-0.3,-0.3195,-0.3088,-0.3377,-0.2938,-0.189,-0.2127,-0.2291,-0.2294,-0.168,-0.1117,-0.0671,-0.0941,-0.0941,-0.047,-0.0458,-0.0446,-0.0499,-0.0361,-0.0291,-0.0284,0.011,0.0313,0.0287,0.0447,0.0,0.0,0.0,0.0,0.0,0.0,0.0,0.0,0.0,0.2921,0.2569,0.0,0.3864,0.0,0.5769,0.6929,0.7703,0.7729,0.0,0.0,0.9211,0.9753,1.1107,1.1639,1.1947,1.2097,1.2764,1.3493,1.4205,1.4522,1.5552,1.7868,1.8944,1.9681,2.0442,2.1738,2.2854,2.3648,2.5036,2.6427,2.7412,2.928,3.0857,3.2129,3.2728,3.3337,3.4082,3.5169,3.6134,3.6667,3.7574,3.8493,3.9127,3.9345,3.9611,3.994,4.0163,4.0392,4.0866,4.0992,4.098,-0.6865,-0.6872,-0.6962,-0.6419,-0.5552,-0.5202,-0.4786,-0.4292,-0.419,-0.4035,-0.3844,-0.3818,-0.3684,-0.3446,-0.3443,-0.3361,-0.3044,-0.3115,-0.3112,-0.311,-0.3045,-0.3015,-0.3013,-0.2945,-0.282,-0.2851,-0.3063,-0.3109,-0.3134,-0.3548,-0.3639,-0.3544,-0.3877,-0.3544,-0.2634,-0.2924,-0.3045,-0.2971,-0.2557,-0.2087,-0.1744,-0.1882,-0.167,-0.1254,-0.1169,-0.1136,-0.1089,-0.088,-0.0677,-0.0645,-0.0106,0.0203,0.0238,0.0465,0.0574,0.0,0.0,0.0,0.0,0.0,0.0,0.0,0.0,0.0,0.0,0.0,0.4007,0.4516,0.5685,0.6755,0.7538,0.7757,0.8433,0.9661,0.9827,1.0246,1.1313,1.1546,1.1888,1.2438,1.2849,1.3454,1.4494,1.453,1.501,1.6468,1.7707,1.8894,2.0265,2.168,2.3013,2.3873,2.5213,2.6693,2.8197,2.9817,3.1161,3.1849,3.2594,3.3391,3.4119,3.5124,3.6053,3.6551,3.7397,3.8277,3.8886,3.9189,3.9524,4.0042,4.0329,4.05,4.0746,4.0921,4.1066,-0.7235,-0.7235,-0.7235,-0.7076,-0.6829,-0.6606,-0.584,-0.4723,-0.4738,-0.4465,-0.3936,-0.4027,-0.3955,-0.3959,-0.3949,-0.398,-0.3906,-0.4057,-0.4095,-0.4085,-0.3943,-0.3951,-0.3932,-0.3693,-0.3603,-0.3655,-0.3653,-0.3647,-0.3636,-0.3708,-0.3663,-0.3576,-0.3837,-0.3864,-0.3601,-0.3804,-0.3755,-0.3451,-0.3486,-0.3385,-0.3141,-0.2797,-0.2497,-0.2119,-0.21,-0.2041,-0.1875,-0.1417,-0.1139,-0.0969,-0.0346,0.0097,0.0194,0.0347,0.0494,0.0,0.0544,0.0,0.0,0.0,0.0,0.0,0.0,0.0,0.0,0.4003,0.423,0.4654,0.5498,0.6384,0.739,0.7899,0.8698,1.0086,1.0288,1.0573,1.124,1.1316,1.1739,1.2898,1.307,1.3457,1.4387,1.4712,1.4976,1.5517,1.6718,1.8162,1.969,2.1445,2.2903,2.3745,2.4921,2.6414,2.7789,2.9032,3.011,3.0925,3.1916,3.2986,3.363,3.4671,3.5654,3.6256,3.7079,3.7943,3.8615,3.899,3.9396,3.9908,4.0177,4.0391,4.0684,4.1058,4.1377,-0.8882,-0.8877,-0.8877,-0.8537,-0.8031,-0.7967,-0.695,-0.5279,-0.5376,-0.5223,-0.4919,-0.5012,-0.4889,-0.4557,-0.4491,-0.4302,-0.3899,-0.3916,-0.3924,-0.3924,-0.4043,-0.4022,-0.3873,-0.384,-0.3822,-0.3682,-0.3979,-0.4087,-0.4003,-0.4362,-0.4446,-0.4333,-0.4243,-0.4058,-0.3729,0.0,0.0,0.0,-0.292,-0.2781,-0.2729,-0.254,-0.2313,-0.205,-0.213,0.0,-0.1812,-0.1645,-0.1606,-0.1532,-0.1077,0.0,0.0,0.0,0.0,0.0,0.0,0.0,0.0,0.0,0.0,0.0,0.234,0.2683,0.3326,0.388,0.4265,0.4326,0.4938,0.5711,0.666,0.7155,0.813,0.9734,1.029,1.0858,1.1803,1.1879,1.2094,1.2504,1.2747,1.3157,1.3655,1.4131,1.474,1.5365,1.6363,1.7342,1.8086,1.9982,2.1538,2.2414,2.4539,2.6377,2.7018,2.7681,2.8851,3.0453,3.1145,3.189,3.314,3.3937,3.4811,3.5725,3.6487,3.7287,3.8209,3.8645,3.9063,3.9607,4.0002,4.0369,4.0664,4.139,4.183,-0.9322,-0.9322,-0.9322,-0.9022,0.0,-0.8689,-0.7939,-0.6634,-0.6567,-0.6434,-0.6339,-0.641,-0.628,-0.6108,-0.6037,-0.5679,-0.5189,-0.5292,-0.517,-0.4696,-0.4974,-0.4866,-0.462,-0.4568,-0.4463,-0.4311,-0.454,-0.4741,-0.498,-0.4908,-0.4916,-0.515,-0.4731,-0.4431,-0.4175,-0.4193,-0.395,-0.3525,-0.3387,-0.3307,-0.322,-0.3111,-0.2875,-0.2582,-0.2448,0.0,0.0,0.0,0.0,0.0,0.0,0.0,0.0,0.0,0.0,-0.0318,-0.0303,-0.0149,0.0361,0.0878,0.1438,0.1823,0.2441,0.3009,0.3469,0.404,0.4489,0.4602,0.485,0.5368,0.6242,0.6576,0.7399,0.9187,0.9607,1.0175,1.11,1.1394,1.1579,1.214,1.2398,1.2674,1.3297,1.369,1.4328,1.5209,1.5748,1.6281,1.696,1.8718,2.0518,2.18,2.4082,2.5865,2.6283,2.7115,2.8096,2.9785,3.0615,3.1435,3.2477,3.3463,3.4382,3.517,3.6011,3.6946,3.763,3.8204,3.8744,3.9352,3.9738,4.01,4.0468,4.1102,4.1602,-0.9436,-0.9431,-0.9436,-0.9337,-0.919,-0.919,-0.8848,-0.8234,0.0,0.0,0.0,-0.7506,-0.7522,-0.7522,-0.7435,-0.7102,-0.6602,-0.6916,-0.6585,-0.5846,-0.616,-0.61,-0.5661,-0.5557,-0.5445,-0.5329,-0.5326,-0.5556,-0.6018,-0.5556,-0.5579,-0.5921,-0.5442,-0.5055,-0.4839,-0.4591,-0.4365,-0.4162,-0.4062,-0.397,-0.3791,-0.3779,-0.3533,-0.3068,-0.2862,-0.2606,-0.2418,-0.2116,-0.1895,-0.1744,-0.1529,-0.1424,-0.1369,-0.1149,-0.0944,-0.0803,-0.0806,-0.0759,-0.0542,0.0361,0.111,0.1434,0.2406,0.3251,0.3668,0.4089,0.4464,0.4846,0.4709,0.5039,0.5928,0.6018,0.6708,0.8302,0.8565,0.9064,1.0187,1.0366,1.0783,1.1661,1.1891,1.2122,1.2899,1.3118,1.3476,1.4432,1.4824,1.5318,1.6237,1.7925,1.9806,2.1497,2.3294,2.4743,2.5451,2.6531,2.7815,2.8757,2.9922,3.097,3.1972,3.3082,3.3989,3.4655,3.5735,3.6596,3.7161,3.7821,3.8499,3.9189,3.9449,3.9728,4.0241,4.061,4.1026,-0.9947,-0.9866,-0.9866,-0.9842,-0.9819,-0.9909,-0.9804,-0.9563,-0.8045,-0.7301,-0.7308,-0.7453,-0.7522,-0.7522,-0.7522,-0.7435,-0.736,-0.7563,-0.7396,-0.7145,-0.7231,-0.7145,-0.6746,-0.6718,-0.6709,-0.6641,-0.6633,-0.6707,-0.671,-0.6633,-0.67,-0.6736,-0.6536,-0.6033,-0.5285,-0.4758,-0.4406,-0.4278,-0.3908,-0.3734,-0.3749,-0.3602,-0.3361,-0.3032,-0.3209,-0.303,-0.2415,-0.2356,-0.2225,-0.1916,-0.1906,-0.1874,-0.1873,-0.1813,-0.1655,-0.1261,-0.1201,-0.0896,-0.0132,0.0198,0.0936,0.1998,0.2359,0.2704,0.3382,0.3604,0.3828,0.3951,0.417,0.4471,0.5098,0.5507,0.601,0.6767,0.7177,0.7887,0.9219,0.9415,0.9911,1.1161,1.1386,1.1439,1.1701,1.2163,1.2413,1.2342,1.3574,1.4977,1.6304,1.7691,1.9125,2.075,2.2114,2.3132,2.4028,2.5472,2.6832,2.7604,2.8821,3.0179,3.169,3.2485,3.3308,3.464,3.5414,3.6172,3.679,3.7631,3.8271,3.8836,3.9166,3.9561,4.0093,4.0364,4.0621,-1.0038,-1.0038,-1.0038,-1.0038,-1.0038,-1.0038,-1.0038,-0.9927,-0.9137,-0.8765,-0.8774,-0.8856,-0.8815,-0.8806,-0.8707,-0.8497,-0.8154,-0.8296,-0.8139,-0.756,-0.7714,-0.7546,-0.7237,-0.7068,-0.6942,-0.6872,-0.6865,-0.7096,-0.7322,-0.7092,-0.7096,-0.7318,-0.7015,-0.6555,-0.6122,-0.5817,-0.5458,-0.4972,-0.4375,-0.4017,-0.4014,-0.397,-0.3878,-0.3682,-0.3631,-0.3484,-0.3164,-0.2787,-0.247,-0.2343,-0.2183,-0.2071,-0.2135,-0.2135,-0.2018,-0.178,-0.1781,-0.1592,-0.1209,-0.0545,0.0483,0.1955,0.2198,0.2607,0.3575,0.3581,0.3677,0.3887,0.4042,0.4222,0.4601,0.4779,0.5295,0.6236,0.6494,0.7121,0.839,0.8669,0.8966,0.9666,1.0212,1.0738,1.1257,1.1602,1.174,1.1492,1.3062,1.481,1.5974,1.6878,1.8014,1.9608,2.1008,2.2093,2.2974,2.4601,2.6189,2.7604,2.8648,2.9718,3.0955,3.1721,3.2664,3.3547,3.4511,3.5414,3.6215,3.6981,3.7685,3.8394,3.8877,3.9261,3.9661,4.0091,4.0473,-1.0038,-1.0038,-1.0038,-1.0038,-1.0038,-1.0038,-1.0038,-1.0038,-1.0033,-1.0038,-1.0038,-1.0038,-1.0038,-1.0019,-0.9786,-0.9459,-0.9074,-0.9137,-0.8804,-0.8239,-0.8246,-0.8162,-0.7816,-0.7588,-0.7434,-0.739,-0.7346,-0.7553,-0.7936,-0.7553,-0.7548,-0.7936,-0.7399,-0.7007,-0.6912,-0.676,-0.6383,-0.5793,-0.5164,-0.4633,-0.4338,-0.4317,-0.43,-0.43,-0.3959,-0.3758,-0.3625,-0.3021,-0.2686,-0.2554,-0.2354,-0.2221,-0.2221,-0.2221,-0.2221,-0.2221,-0.2221,-0.2159,-0.2108,-0.1394,-0.0283,0.1352,0.1595,0.218,0.339,0.3661,0.3787,0.4026,0.4124,0.4202,0.4271,0.4293,0.4654,0.5628,0.5716,0.6233,0.7559,0.7822,0.8002,0.8452,0.9331,1.0313,1.1055,1.13,1.1413,1.1798,1.3002,1.4294,1.5455,1.6214,1.7049,1.8576,2.0032,2.138,2.2381,2.3956,2.5697,2.7654,2.8433,2.9233,3.0147,3.1203,3.2074,3.2703,3.3719,3.4686,3.5548,3.6381,3.7117,3.7843,3.84,3.8906,3.9421,3.9848,4.0341,-1.0038,-1.0038,-1.0038,-1.0038,-1.0038,-1.0038,-1.0038,-1.0038,-1.0038,-1.0038,-1.0038,-1.0038,-1.0038,-1.0038,-0.9923,-0.9908,-0.9822,-0.988,-0.9695,-0.9404,-0.9438,-0.9331,-0.9078,-0.888,-0.8779,-0.8728,-0.8567,-0.8484,-0.8551,-0.8551,-0.8551,-0.8551,-0.8012,-0.7614,-0.7451,-0.699,-0.661,-0.6456,-0.635,-0.5698,-0.4524,-0.4352,-0.4303,-0.4303,-0.3961,-0.3625,-0.3291,-0.2889,-0.2554,-0.2287,-0.2221,-0.2221,-0.2221,-0.2221,-0.2221,-0.2221,-0.2223,-0.2108,-0.2024,-0.2004,-0.1394,-0.0224,-0.0,0.0853,0.2642,0.3575,0.4034,0.4148,0.4232,0.4281,0.4297,0.4297,0.4387,0.4565,0.4565,0.5006,0.6239,0.659,0.7034,0.8364,0.9069,1.0222,1.0876,1.1207,1.1516,1.2009,1.2437,1.3457,1.5123,1.5703,1.637,1.7836,1.9289,2.07,2.2155,2.3548,2.5087,2.6784,2.7589,2.8454,2.9676,3.048,3.1246,3.225,3.338,3.417,3.4998,3.5925,3.6825,3.7362,3.7957,3.8633,3.932,3.9698,3.9985,-1.0038,-1.0038,-1.0038,-1.0038,-1.0038,-1.0038,-1.0038,-1.0038,-1.0038,-1.0038,-1.0038,-1.0038,-1.0038,-1.0038,-1.0038,-1.0038,-1.0038,-1.0038,-0.9995,-0.9814,-0.9705,-0.9601,-0.9502,-0.9299,-0.9143,-0.903,-0.893,-0.8826,-0.8722,-0.8703,-0.8703,-0.8703,-0.8475,-0.8353,-0.82,-0.797,-0.7705,-0.7257,-0.7228,-0.6699,-0.5817,-0.5265,-0.495,-0.4872,-0.4403,-0.3894,-0.3558,-0.3159,-0.2822,-0.2487,-0.2288,-0.2221,-0.2221,-0.2221,-0.2221,-0.2225,-0.2222,-0.2202,-0.2154,-0.2161,-0.1671,-0.0529,-0.0388,0.0321,0.1754,0.3193,0.3838,0.361,0.3924,0.4297,0.4297,0.4297,0.4297,0.4297,0.4297,0.4565,0.5275,0.5539,0.5894,0.6602,0.7577,0.8636,0.9616,1.0661,1.1348,1.1774,1.2112,1.2948,1.4196,1.5115,1.6116,1.7098,1.8152,1.9487,2.1155,2.3088,2.4548,2.5807,2.6985,2.8168,2.8889,2.9964,3.0748,3.1577,3.2493,3.3415,3.4186,3.5614,3.6766,3.7132,3.7736,3.8511,3.9136,3.9445,3.9769,-1.0038,-1.0038,-1.0038,-1.0038,-1.0038,-1.0038,-1.0038,-1.0038,-1.0038,-1.0038,-1.0038,-1.0038,-1.0038,-1.0038,-1.0038,-1.0038,-1.0038,-1.0038,-1.0038,-0.9937,-0.9795,-0.9729,-0.971,-0.9511,-0.9337,-0.92,-0.9077,-0.8911,-0.8727,-0.8703,-0.8703,-0.8703,-0.8703,-0.8703,-0.8703,-0.8703,-0.8475,-0.8075,-0.7939,-0.765,-0.7236,-0.6406,-0.5821,-0.5427,-0.4852,-0.4256,-0.3707,-0.3368,-0.2944,-0.2585,-0.233,-0.2196,-0.218,-0.2195,-0.221,-0.2236,-0.2341,-0.2409,-0.2409,-0.2336,-0.1896,-0.1016,-0.0803,-0.033,0.0842,0.1946,0.2494,0.2668,0.3314,0.3851,0.4297,0.4297,0.4297,0.4297,0.4297,0.4389,0.4659,0.4835,0.5099,0.546,0.6609,0.7577,0.8807,1.0309,1.1283,1.144,1.1774,1.2443,1.336,1.4615,1.5703,1.6609,1.7446,1.8647,2.0119,2.2056,2.3756,2.4921,2.6133,2.7324,2.8078,2.9233,3.0222,3.0925,3.1747,3.268,3.3614,3.5086,3.6729,3.7056,3.7612,3.8212,3.8704,3.9063,3.9327,-1.0038,-1.0047,-1.0043,-1.0052,-1.0038,-1.0038,-1.0038,-1.0038,-1.0038,-1.0038,-1.0038,-1.0038,-1.0038,-1.0038,-1.0038,-1.0038,-1.0038,-1.0038,-1.0038,-1.0038,-1.0019,-1.0019,-1.0009,-0.9734,-0.962,-0.954,-0.9237,-0.8949,-0.8732,-0.8713,-0.8703,-0.8703,-0.8703,-0.8703,-0.8703,-0.8703,-0.8703,-0.8623,-0.8599,-0.8599,-0.85,-0.7864,-0.6872,-0.581,-0.52,-0.4541,-0.3685,-0.3188,-0.2798,-0.2241,-0.2289,-0.2297,-0.2253,-0.2224,-0.235,-0.2409,-0.2516,-0.2583,-0.258,-0.2604,-0.2382,-0.1993,-0.1735,-0.1253,-0.0172,-0.0431,-0.0,0.1339,0.2059,0.2955,0.403,0.4208,0.4297,0.4297,0.4297,0.4389,0.4659,0.4835,0.5102,0.5458,0.634,0.7573,0.9419,1.0691,1.1218,1.1278,1.1348,1.1854,1.3027,1.4112,1.5199,1.6363,1.735,1.8336,1.952,2.1118,2.2585,2.3772,2.5004,2.642,2.7577,2.857,2.9428,3.0286,3.1232,3.2185,3.315,3.4527,3.6257,3.699,3.7242,3.7757,3.8194,3.8413,3.8726,-1.0348,-1.0429,-1.0211,-1.0159,-1.014,-1.0012,-1.0038,-1.0038,-1.0038,-1.0038,-1.0038,-1.0038,-1.0038,-1.0038,-1.0038,-1.0038,-1.0038,-1.0038,-1.0038,-1.0038,-1.0038,-1.0038,-1.0028,-0.9875,-0.9762,-0.9634,-0.9493,-0.9237,-0.8935,-0.8907,-0.8836,-0.8718,-0.8703,-0.8703,-0.8703,-0.8703,-0.8703,-0.8703,-0.8703,-0.8703,-0.8708,-0.8472,-0.7868,-0.7049,-0.6335,-0.5365,-0.4143,-0.3998,-0.3405,-0.2303,-0.2324,-0.2342,-0.2361,-0.2413,-0.2474,-0.253,-0.2576,-0.2601,-0.2606,-0.2644,-0.2492,-0.2226,-0.2106,-0.1798,-0.1302,-0.1229,-0.0888,0.0268,0.0896,0.1792,0.3135,0.3941,0.4297,0.4297,0.4297,0.43,0.4478,0.4743,0.501,0.5188,0.58,0.6939,0.8719,1.0343,1.1234,1.1278,1.1267,1.1688,1.2363,1.3288,1.4371,1.5628,1.6624,1.7529,1.8425,1.996,2.1502,2.2702,2.3906,2.5472,2.679,2.792,2.8812,2.9656,3.06,3.1712,3.2702,3.4159,3.5813,3.6977,3.723,3.722,3.7632,3.7977,3.8319,-1.057,-1.0542,-1.0357,-1.0277,-1.0249,-1.0133,-1.0038,-1.0038,-1.0038,-1.0038,-1.0038,-1.0038,-1.0038,-1.0038,-1.0038,-1.0038,-1.0038,-1.0038,-1.0038,-1.0038,-1.0038,-1.0038,-1.0038,-1.0038,-0.9875,-0.9748,-0.9667,-0.946,-0.9157,-0.9119,-0.9011,-0.8822,-0.8864,-0.8864,-0.8826,-0.8864,-0.8902,-0.8907,-0.8902,-0.8883,-0.8822,-0.8807,-0.8649,-0.815,-0.763,-0.6434,-0.4762,-0.4612,-0.393,-0.274,-0.2473,-0.2439,-0.2478,-0.2535,-0.2578,-0.26,-0.262,-0.264,-0.2661,-0.2692,-0.262,-0.2357,-0.2155,-0.202,-0.1846,-0.1513,-0.1075,-0.0538,0.009,0.0896,0.1881,0.2955,0.3849,0.4208,0.4297,0.4297,0.4297,0.4743,0.501,0.5277,0.5536,0.6416,0.7929,0.9998,1.0886,1.0921,1.1084,1.1435,1.1952,1.279,1.3704,1.4803,1.6034,1.6862,1.7661,1.8959,2.0184,2.1328,2.2968,2.4517,2.582,2.7018,2.813,2.9058,3.0064,3.1191,3.2446,3.3882,3.5268,3.6629,3.6836,3.6719,3.7152,3.7614,3.791,-1.0584,-1.0579,-1.0371,-1.031,-1.0272,-1.0167,-1.0047,-1.0038,-1.0038,-1.0038,-1.0038,-1.0038,-1.0038,-1.0038,-1.0038,-1.0038,-1.0038,-1.0038,-1.0038,-1.0038,-1.0038,-1.0038,-1.0038,-1.0038,-1.0033,-1.0,-0.9748,-0.9549,-0.9337,-0.9322,-0.9223,-0.9091,-0.9185,-0.9167,-0.903,-0.9181,-0.9285,-0.9271,-0.9256,-0.9195,-0.9053,-0.9025,-0.8946,-0.8946,-0.883,-0.7783,-0.5544,-0.5074,-0.4332,-0.3215,-0.2841,-0.2594,-0.2591,-0.2644,-0.2661,-0.2625,-0.2658,-0.2715,-0.276,-0.2753,-0.2691,-0.2466,-0.2235,-0.2057,-0.1878,-0.1613,-0.1346,-0.1166,-0.0538,0.009,0.0359,0.1523,0.2865,0.403,0.421,0.43,0.4387,0.4743,0.5191,0.5552,0.573,0.6086,0.7418,0.9301,1.0552,1.0318,1.0824,1.1521,1.1952,1.2705,1.3457,1.421,1.5296,1.6296,1.7081,1.7861,1.8914,2.0027,2.1849,2.3468,2.4648,2.582,2.7178,2.826,3.0083,3.1263,3.2927,3.4235,3.509,3.6125,3.6093,3.6311,3.6789,3.7206,3.7394,-1.0877,-1.0967,-1.0787,-1.0612,-1.0461,-1.0258,-1.0093,-1.0043,-1.0038,-1.0038,-1.0038,-1.0038,-1.0038,-1.0038,-1.0038,-1.0038,-1.0038,-1.0038,-1.0038,-1.0038,-1.0038,-1.0038,-1.0038,-1.0038,-1.0038,-1.0028,-0.9894,-0.9752,-0.9582,-0.9545,-0.9358,-0.9289,-0.9294,-0.9289,-0.9242,-0.9294,-0.9322,-0.9322,-0.9322,-0.9285,-0.9233,-0.9228,-0.9228,-0.9228,-0.9233,-0.8622,-0.7515,-0.6878,-0.5728,-0.4129,-0.3762,-0.328,-0.2766,-0.2659,-0.2681,-0.2669,-0.268,-0.2698,-0.2721,-0.2755,-0.2782,-0.2638,-0.2403,-0.2153,-0.2064,-0.1615,-0.1436,-0.1436,-0.1076,-0.0718,-0.0,0.0627,0.1702,0.3136,0.3855,0.4304,0.4389,0.4743,0.5191,0.5644,0.5733,0.6086,0.7054,0.8664,0.945,0.996,1.0819,1.1613,1.1952,1.2369,1.3033,1.3873,1.4887,1.5733,1.6554,1.7483,1.849,1.9368,2.082,2.2466,2.3599,2.4767,2.6121,2.7961,2.9785,3.1518,3.3186,3.4306,3.5005,3.561,3.5828,3.6139,3.6474,3.668,3.6806,-1.108,-1.1161,-1.0896,-1.0702,-1.0542,-1.0282,-1.0078,-1.0047,-1.0038,-1.0038,-1.0038,-1.0038,-1.0038,-1.0038,-1.0038,-1.0038,-1.0038,-1.0038,-1.0038,-1.0038,-1.0038,-1.0038,-1.0038,-1.0038,-1.0038,-1.0038,-1.0033,-0.9889,-0.9767,-0.9752,-0.9653,-0.9483,-0.9516,-0.9516,-0.9469,-0.9521,-0.9554,-0.9554,-0.9559,-0.9521,-0.946,-0.9441,-0.9441,-0.9445,-0.9445,-0.9312,-0.895,-0.8459,-0.7278,-0.5369,-0.443,-0.3529,-0.2683,-0.2638,-0.2658,-0.2658,-0.2662,-0.2676,-0.2719,-0.2763,-0.2796,-0.273,-0.2494,-0.2243,-0.2064,-0.1705,-0.1436,-0.1436,-0.1346,-0.1166,-0.0628,-0.0359,0.0448,0.1703,0.3318,0.4304,0.4567,0.4832,0.5191,0.5552,0.5733,0.5997,0.6523,0.7037,0.8002,0.9148,1.0299,1.1435,1.178,1.2123,1.279,1.3464,1.4243,1.5159,1.6072,1.7072,1.8116,1.895,1.9916,2.1379,2.2713,2.3795,2.5087,2.7669,2.9742,3.1268,3.2864,3.3612,3.4303,3.4836,3.5395,3.5431,3.5599,3.5898,3.6088,-1.1194,-1.1142,-1.0764,-1.0603,-1.0527,-1.0168,-1.0081,-1.0038,-1.0038,-1.0038,-1.0038,-1.0038,-1.0038,-1.0038,-1.0038,-1.0038,-1.0038,-1.0038,-1.0038,-1.0038,-1.0038,-1.0038,-1.0038,-1.0038,-1.0038,-1.0038,-1.0038,-1.0028,-1.0,-0.9913,-0.9856,-0.9696,-0.9804,-0.9847,-0.9719,-0.9852,-0.9986,-0.9971,-0.9995,-0.9819,-0.9667,-0.9663,-0.9663,-0.9663,-0.9667,-0.9738,-0.977,-0.9475,-0.8316,-0.6309,-0.4651,-0.3515,-0.2773,-0.2606,-0.262,-0.2624,-0.2612,-0.2679,-0.2755,-0.2792,-0.2816,-0.286,-0.2509,-0.2155,-0.2155,-0.1705,-0.1436,-0.1436,-0.1436,-0.1346,-0.1346,-0.1256,-0.0718,0.0359,0.2689,0.4123,0.4921,0.501,0.5191,0.5555,0.5733,0.5733,0.5822,0.5885,0.6763,0.8093,0.9331,1.0646,1.1424,1.194,1.2283,1.2881,1.3652,1.4321,1.5228,1.7103,1.8028,1.816,1.9154,2.044,2.1897,2.3136,2.4609,2.7272,2.9402,3.0936,3.2354,3.318,3.3862,3.4453,3.4642,3.453,3.4725,3.511,3.5386,-1.1194,-1.1165,-1.0915,-1.0721,-1.0551,-1.0291,-1.0093,-1.0047,-1.0038,-1.0038,-1.0038,-1.0038,-1.0038,-1.0038,-1.0038,-1.0038,-1.0038,-1.0038,-1.0038,-1.0038,-1.0038,-1.0038,-1.0038,-1.0038,-1.0038,-1.0038,-1.0038,-1.0038,-1.0038,-1.0038,-0.9923,-0.988,-0.9908,-1.0014,-0.9894,-0.9918,-1.0033,-1.0038,-1.0038,-1.0019,-0.988,-0.9861,-0.9871,-0.9871,-0.9866,-0.9889,-0.9927,-0.9452,-0.8199,-0.6192,-0.484,-0.3637,-0.2836,-0.2665,-0.2665,-0.2673,-0.271,-0.2744,-0.2781,-0.2824,-0.2857,-0.2871,-0.2424,-0.2244,-0.2155,-0.1705,-0.1436,-0.1436,-0.1436,-0.1436,-0.1436,-0.1436,-0.0448,0.1433,0.2688,0.3764,0.4743,0.501,0.5191,0.5644,0.5733,0.5733,0.5727,0.5802,0.6231,0.7478,0.889,1.0289,1.0977,1.1757,1.21,1.2448,1.313,1.3633,1.4608,1.6666,1.7714,1.7548,1.8362,1.9497,2.1201,2.2744,2.4629,2.6868,2.8512,3.0119,3.1804,3.3135,3.3586,3.3779,3.4178,3.4138,3.4218,3.4455,3.4724,-1.1194,-1.117,-1.0882,-1.0688,-1.0537,-1.0263,-1.0064,-1.0052,-1.0038,-1.0038,-1.0038,-1.0038,-1.0038,-1.0038,-1.0038,-1.0038,-1.0038,-1.0038,-1.0038,-1.0038,-1.0038,-1.0038,-1.0038,-1.0038,-1.0038,-1.0038,-1.0038,-1.0038,-1.0038,-1.0038,-1.0038,-1.0028,-1.0038,-1.0038,-1.0028,-1.0038,-1.0038,-1.0038,-1.0038,-1.0038,-1.0038,-1.0038,-1.0033,-1.0038,-1.0038,-1.0038,-0.9927,-0.9407,-0.8316,-0.6652,-0.536,-0.4248,-0.3367,-0.286,-0.2703,-0.2726,-0.2766,-0.2792,-0.2822,-0.2856,-0.2872,-0.2785,-0.2425,-0.2244,-0.2064,-0.1705,-0.1436,-0.1436,-0.1436,-0.1436,-0.1436,-0.1436,-0.0269,0.1432,0.2148,0.3044,0.4741,0.501,0.5191,0.5552,0.5733,0.5733,0.5733,0.5716,0.6157,0.6956,0.8017,0.9318,1.0443,1.1225,1.2009,1.2443,1.2784,1.3288,1.3607,1.5161,1.7036,1.6992,1.8103,1.9152,2.044,2.2232,2.4045,2.5925,2.7619,2.921,3.0814,3.2052,3.2393,3.2722,3.3362,3.3499,3.327,3.3634,3.3896,-1.1194,-1.1165,-1.0773,-1.0594,-1.0518,-1.0164,-0.9998,-1.0043,-1.0038,-1.0038,-1.0038,-1.0038,-1.0125,-1.0038,-1.0125,-1.012,-1.012,-1.0038,-1.0038,-1.0038,-1.0038,-1.0125,-1.012,-1.012,-1.012,-1.012,-1.0125,-1.012,-1.012,-1.012,-1.0038,-1.0038,-1.0038,-1.0038,-1.0038,-1.0038,-1.0038,-1.0038,-1.0038,-1.0038,-1.0038,-1.0038,-1.0038,-1.0038,-1.0038,-1.0038,-0.9864,-0.9483,-0.8669,-0.7416,-0.6226,-0.5173,-0.4236,-0.322,-0.2909,-0.2781,-0.28,-0.2822,-0.286,-0.2871,-0.2875,-0.2785,-0.2515,-0.2244,-0.2155,-0.1795,-0.1436,-0.1436,-0.1436,-0.1436,-0.1346,-0.1346,-0.0358,0.1163,0.1521,0.2683,0.4293,0.501,0.5191,0.5644,0.5733,0.5733,0.5733,0.5733,0.5997,0.6432,0.7401,0.8532,0.9744,1.0611,1.1655,1.2613,1.2784,1.2954,1.3262,1.3581,1.5296,1.6511,1.7934,1.9152,1.9923,2.1471,2.3143,2.4873,2.6299,2.7812,2.9323,3.0269,3.0976,3.1392,3.1898,3.1806,3.1663,3.2471,3.2902,-1.1194,-1.1179,-1.0929,-1.0726,-1.0546,-1.031,-1.0107,-1.0038,-1.0038,-1.0038,-1.0038,-1.0294,-1.0467,-1.0467,-1.0463,-1.0467,-1.0376,-1.0212,-1.0038,-1.0038,-1.0381,-1.0467,-1.0463,-1.0467,-1.0463,-1.0549,-1.0895,-1.0809,-1.0549,-1.0376,-1.0294,-1.0038,-1.0038,-1.0038,-1.0038,-1.0038,-1.0038,-1.0038,-1.0038,-1.0038,-1.0038,-1.0038,-1.0038,-1.0038,-1.0038,-1.0038,-0.9951,-0.9519,-0.9131,-0.8541,-0.7462,-0.6046,-0.4743,-0.4051,-0.3622,-0.3105,-0.2939,-0.286,-0.2872,-0.2875,-0.2875,-0.2875,-0.2604,-0.2334,-0.2155,-0.1885,-0.1615,-0.1436,-0.1436,-0.1436,-0.1346,-0.0718,0.009,0.1164,0.1969,0.3042,0.4561,0.501,0.5191,0.5552,0.5733,0.5733,0.5733,0.5733,0.5908,0.6083,0.6786,0.7834,0.896,1.0086,1.1219,1.2351,1.2784,1.2869,1.3027,1.3419,1.4761,1.6183,1.7594,1.8843,1.9618,2.0313,2.1935,2.3433,2.4958,2.6418,2.7812,2.93,3.0174,3.0262,3.0359,3.0389,3.0664,3.1351,3.1747,-1.1194,-1.1175,-1.0981,-1.0768,-1.056,-1.0357,-1.0149,-1.0067,-1.0038,-1.0038,-1.012,-1.0381,-1.0549,-1.0636,-1.0804,-1.0804,-1.0636,-1.0381,-1.0381,-1.0641,-1.0895,-1.089,-1.0982,-1.1154,-1.1149,-1.1068,-1.1149,-1.1063,-1.0722,-1.0549,-1.0381,-1.0038,-1.0038,-1.0038,-1.0038,-1.0038,-1.0038,-1.0038,-1.0038,-1.0038,-1.0038,-1.0038,-1.0038,-1.0038,-1.0038,-1.0038,-0.9951,-0.9607,-0.9432,-0.9082,-0.8376,-0.7228,-0.5722,-0.4741,-0.4032,-0.3676,-0.3053,-0.2964,-0.2875,-0.2875,-0.2875,-0.2876,-0.2604,-0.2424,-0.2155,-0.1974,-0.1705,-0.1436,-0.1436,-0.1436,-0.1346,-0.1076,-0.009,0.1164,0.1879,0.2952,0.4474,0.501,0.5191,0.5552,0.5733,0.5733,0.5733,0.5733,0.5733,0.5908,0.5997,0.6959,0.8694,0.9822,1.0956,1.1918,1.2443,1.2784,1.296,1.3535,1.4622,1.5869,1.7107,1.8264,1.9152,1.9766,2.0469,2.2022,2.3571,2.4702,2.61,2.7653,2.8884,2.8879,2.8888,2.9182,2.9442,2.9889,3.0168,-1.1394,-1.1468,-1.1168,-1.0957,-1.0833,-1.0629,-1.0411,-1.0226,-1.0207,-1.0294,-1.0294,-1.0636,-1.0977,-1.0895,-1.1235,-1.1149,-1.0809,-1.0895,-1.1068,-1.1149,-1.1322,-1.1408,-1.1499,-1.1671,-1.1757,-1.1499,-1.158,-1.1322,-1.089,-1.0636,-1.0554,-1.012,-1.0038,-1.0038,-1.0038,-1.0038,-1.0038,-1.0038,-1.0038,-1.0038,-1.0038,-1.0038,-1.0038,-1.0038,-1.0038,-1.0038,-0.9951,-0.9689,-0.9515,-0.9349,-0.9087,-0.838,-0.7228,-0.563,-0.4387,-0.43,-0.3422,-0.2985,-0.2897,-0.2892,-0.2891,-0.2887,-0.2695,-0.2425,-0.2244,-0.1974,-0.1705,-0.1525,-0.1436,-0.1436,-0.1436,-0.1256,-0.0358,0.0895,0.1431,0.2504,0.4293,0.501,0.5191,0.5555,0.5733,0.5733,0.5733,0.5733,0.5733,0.5733,0.5733,0.6346,0.8086,0.947,1.0605,1.1655,1.2266,1.2699,1.2875,1.3379,1.4461,1.5628,1.6698,1.7772,1.8674,1.9301,1.9991,2.0837,2.2155,2.3316,2.4539,2.5981,2.6861,2.713,2.7668,2.8106,2.8302,2.8363,2.8707,-1.2078,-1.2452,-1.1748,-1.1614,-1.1747,-1.1521,-1.1201,-1.1089,-1.0982,-1.1063,-1.1154,-1.1494,-1.1671,-1.1757,-1.1843,-1.1585,-1.1413,-1.1499,-1.1585,-1.1494,-1.1671,-1.1843,-1.1929,-1.2015,-1.2186,-1.2448,-1.2357,-1.1923,-1.1322,-1.1154,-1.0727,-1.0207,-1.0038,-1.0038,-1.0038,-1.0038,-1.0038,-1.0038,-1.0038,-1.0038,-1.0038,-1.0038,-1.0038,-1.0038,-1.0038,-1.0038,-0.9951,-0.9777,-0.9607,-0.9515,-0.9174,-0.8823,-0.8113,-0.6517,-0.5188,-0.4399,-0.3448,-0.2922,-0.2924,-0.2933,-0.2941,-0.2935,-0.2901,-0.2606,-0.2334,-0.2155,-0.1885,-0.1525,-0.1436,-0.1436,-0.1436,-0.1436,-0.0448,0.0805,0.1521,0.2325,0.4117,0.4924,0.5191,0.5644,0.5733,0.5733,0.5733,0.5733,0.5733,0.5733,0.5733,0.6346,0.7742,0.8956,0.9995,1.1133,1.2186,1.2443,1.2705,1.3457,1.4294,1.5387,1.646,1.7529,1.8425,1.8984,1.9687,2.0372,2.1058,2.2113,2.3265,2.4502,2.5147,2.5652,2.6383,2.7117,2.7108,2.7098,2.7511,-1.2109,-1.2188,-1.2078,-1.1915,-1.1786,-1.1652,-1.1465,-1.1343,-1.1322,-1.1322,-1.1408,-1.1752,-1.2015,-1.21,-1.2272,-1.2192,-1.2106,-1.1929,-1.2015,-1.2015,-1.2272,-1.2357,-1.2357,-1.2357,-1.2443,-1.2619,-1.2613,-1.2357,-1.1666,-1.1413,-1.0895,-1.0467,-1.012,-1.0038,-1.0038,-1.0038,-1.0038,-1.0038,-1.0038,-1.0038,-1.0038,-1.0038,-1.0038,-1.0038,-1.0038,-1.0038,-0.9946,-0.9951,-0.9777,-0.9602,-0.9345,-0.917,-0.846,-0.7132,-0.563,-0.4931,-0.3713,-0.2917,-0.2917,-0.2914,-0.2912,-0.2912,-0.2888,-0.2697,-0.2334,-0.2155,-0.1974,-0.1525,-0.1436,-0.1436,-0.1436,-0.1436,-0.0448,0.0895,0.1431,0.2504,0.4117,0.483,0.528,0.5555,0.5644,0.5733,0.5733,0.5733,0.5733,0.5733,0.5733,0.6435,0.7397,0.8611,0.9648,1.1058,1.2118,1.2472,1.2741,1.3174,1.4146,1.522,1.6131,1.7196,1.8184,1.8913,1.9301,1.9766,2.045,2.1125,2.1973,2.3054,2.3621,2.4276,2.5016,2.5676,2.5734,2.5918,2.6308,-1.2234,-1.212,-1.2409,-1.2319,-1.1915,-1.1871,-1.1817,-1.1613,-1.1585,-1.1666,-1.1666,-1.2015,-1.2186,-1.2272,-1.2443,-1.2705,-1.2705,-1.2272,-1.2357,-1.2528,-1.2613,-1.2699,-1.2699,-1.2705,-1.2705,-1.2705,-1.2705,-1.2443,-1.1929,-1.1499,-1.1068,-1.0636,-1.0207,-1.0038,-1.0038,-1.0125,-1.0038,-1.0038,-1.0038,-1.0038,-1.0038,-1.0038,-1.0038,-1.0038,-1.0038,-1.0038,-1.0033,-0.9946,-0.9864,-0.9777,-0.9602,-0.9428,-0.8727,-0.7132,-0.5983,-0.5455,-0.3957,-0.316,-0.2895,-0.2899,-0.2909,-0.291,-0.2884,-0.2695,-0.2424,-0.2155,-0.1974,-0.1525,-0.1436,-0.1436,-0.1436,-0.1436,-0.0627,0.0537,0.1343,0.2147,0.3758,0.4654,0.5102,0.5371,0.5555,0.5644,0.5733,0.5733,0.5733,0.5733,0.5733,0.5997,0.7048,0.8436,0.974,1.116,1.2141,1.2588,1.2789,1.2831,1.3959,1.5235,1.5884,1.6698,1.7853,1.8843,1.9152,1.946,1.9756,2.045,2.1058,2.1669,2.2414,2.3169,2.379,2.4082,2.4108,2.4541,2.5098,-1.3486,-1.3619,-1.3145,-1.2957,-1.2892,-1.2857,-1.2784,-1.246,-1.246,-1.2534,-1.2484,-1.2558,-1.2661,-1.2637,-1.2619,-1.2705,-1.2705,-1.2619,-1.2619,-1.2705,-1.2705,-1.2705,-1.2705,-1.2705,-1.2705,-1.2705,-1.2705,-1.2443,-1.2009,-1.158,-1.1149,-1.0722,-1.0549,-1.0376,-1.0125,-1.0294,-1.0294,-1.0038,-1.0038,-1.0038,-1.0038,-1.0038,-1.0038,-1.0038,-1.0038,-1.0038,-1.0038,-1.0038,-0.9951,-0.9956,-0.9689,-0.9515,-0.899,-0.7217,-0.616,-0.53,-0.4178,-0.2947,-0.3028,-0.2928,-0.2926,-0.2917,-0.2898,-0.2699,-0.2424,-0.2244,-0.1974,-0.1436,-0.1525,-0.1615,-0.1436,-0.1436,-0.0807,0.009,0.0985,0.1879,0.3223,0.4654,0.5099,0.5282,0.5552,0.5644,0.5733,0.5733,0.5733,0.5733,0.5733,0.5997,0.6697,0.8173,0.9883,1.1332,1.2267,1.273,1.2853,1.2883,1.3649,1.5063,1.565,1.6288,1.7521,1.8594,1.9073,1.9301,1.9529,1.9756,2.045,2.1068,2.1517,2.2048,2.2649,2.2649,2.2339,2.2999,2.3806,-1.3767,-1.3426,-1.3526,-1.333,-1.3151,-1.3127,-1.2964,-1.2777,-1.2874,-1.294,-1.2976,-1.3109,-1.3091,-1.2916,-1.2789,-1.2705,-1.2705,-1.2705,-1.2705,-1.2705,-1.2705,-1.2705,-1.2705,-1.2705,-1.2705,-1.2705,-1.2705,-1.2619,-1.2186,-1.1752,-1.1241,-1.1327,-1.089,-1.0549,-1.0294,-1.0549,-1.0381,-1.012,-1.0038,-1.0038,-1.0038,-1.0038,-1.0038,-1.0038,-1.0038,-1.0038,-1.0038,-1.0038,-1.0038,-0.9951,-0.9864,-0.9689,-0.9078,-0.7837,-0.6776,-0.5636,-0.4506,-0.3537,-0.3089,-0.3004,-0.2914,-0.291,-0.2888,-0.2697,-0.2424,-0.2155,-0.1885,-0.1436,-0.1525,-0.1525,-0.1436,-0.1436,-0.0807,-0.009,0.0806,0.179,0.2862,0.4115,0.5099,0.5282,0.5463,0.5644,0.5733,0.5733,0.5733,0.5733,0.5733,0.5997,0.6694,0.8002,0.974,1.163,1.2317,1.2827,1.2957,1.3075,1.3386,1.4545,1.5347,1.6064,1.7277,1.8256,1.8825,1.9143,1.9371,1.9678,1.9991,2.0382,2.0837,2.1211,2.1593,2.1517,2.1517,2.1897,2.2638,-1.3796,-1.3431,-1.3814,-1.3701,-1.323,-1.3224,-1.3073,-1.2856,-1.3025,-1.3079,-1.3079,-1.3175,-1.3157,-1.3019,-1.2795,-1.2705,-1.2705,-1.2705,-1.2705,-1.2705,-1.2705,-1.2705,-1.2705,-1.2705,-1.2705,-1.2705,-1.2705,-1.2705,-1.2448,-1.2015,-1.1671,-1.1929,-1.1413,-1.0895,-1.0631,-1.0717,-1.0549,-1.0038,-1.0038,-1.0038,-1.0038,-1.0038,-1.0038,-1.0038,-1.0038,-1.0038,-1.0038,-1.0038,-1.0038,-1.0038,-0.9951,-0.9777,-0.917,-0.8193,-0.7041,-0.5897,-0.4667,-0.3774,-0.3241,-0.2882,-0.2875,-0.2875,-0.2875,-0.2784,-0.2424,-0.2064,-0.1885,-0.1615,-0.1615,-0.1615,-0.1436,-0.1436,-0.1077,-0.0359,0.0627,0.17,0.2771,0.4113,0.501,0.5191,0.5371,0.5644,0.5733,0.5733,0.5733,0.5733,0.5822,0.5908,0.6956,0.8173,0.9805,1.1783,1.2632,1.304,1.3028,1.3218,1.3661,1.4076,1.4895,1.5914,1.7115,1.8103,1.8843,1.9073,1.9292,1.9371,1.9678,1.9913,2.0226,2.0372,2.0527,2.0837,2.1001,2.1308,2.168,-1.3811,-1.4268,-1.4268,-1.3954,-1.3471,-1.3489,-1.3332,-1.3025,-1.3091,-1.3,-1.2868,-1.2795,-1.2856,-1.2765,-1.2759,-1.2705,-1.2705,-1.2705,-1.2705,-1.2705,-1.2705,-1.2705,-1.2705,-1.2705,-1.2705,-1.2705,-1.2705,-1.2705,-1.2613,-1.2272,-1.2015,-1.1929,-1.1671,-1.1241,-1.0982,-1.0804,-1.0549,-1.012,-1.0038,-1.0038,-1.0038,-1.0038,-1.0038,-1.0038,-1.0038,-1.0038,-1.0038,-1.0038,-1.0038,-1.0038,-1.0038,-0.9777,-0.9257,-0.8544,-0.7394,-0.5894,-0.501,-0.4032,-0.3232,-0.2875,-0.2875,-0.2875,-0.2875,-0.2785,-0.2425,-0.2694,-0.2424,-0.1885,-0.1795,-0.1705,-0.1525,-0.1346,-0.1256,-0.0717,0.0269,0.1253,0.2503,0.4022,0.483,0.5099,0.5371,0.5644,0.5733,0.5733,0.5733,0.5733,0.5822,0.5997,0.7478,0.8786,1.0202,1.1739,1.2779,1.3225,1.3135,1.3371,1.3465,1.4047,1.4794,1.5816,1.7025,1.7853,1.8851,1.9073,1.9292,1.9292,1.9292,1.9608,1.9687,1.945,1.9608,1.9991,2.0226,2.0382,2.0914,-1.4106,-1.4298,-1.4298,-1.3996,-1.3513,-1.3513,-1.3266,-1.294,-1.3043,-1.3175,-1.3169,-1.3043,-1.2964,-1.2922,-1.2759,-1.2705,-1.2705,-1.2705,-1.2705,-1.2705,-1.2705,-1.2705,-1.2705,-1.2705,-1.2705,-1.2705,-1.2705,-1.2705,-1.2619,-1.2443,-1.2448,-1.2277,-1.1929,-1.1494,-1.1149,-1.0722,-1.0294,-1.0212,-1.0038,-1.0038,-1.0038,-1.0038,-1.0038,-1.0038,-1.0038,-1.0038,-1.0038,-1.0038,-1.0038,-1.0038,-1.0038,-0.9694,-0.9349,-0.8811,-0.7661,-0.5985,-0.5275,-0.4389,-0.3142,-0.2875,-0.2875,-0.2875,-0.2875,-0.2785,-0.2515,-0.2515,-0.2334,-0.1974,-0.1795,-0.1615,-0.1525,-0.1436,-0.1256,-0.0896,-0.0179,0.0895,0.2146,0.3666,0.4739,0.501,0.5371,0.5644,0.5733,0.5733,0.5733,0.5733,0.5822,0.626,0.7654,0.9052,1.0294,1.1505,1.2603,1.3387,1.3327,1.3363,1.3296,1.3931,1.4706,1.5602,1.6609,1.7942,1.8772,1.9063,1.9292,1.9292,1.9292,1.9292,1.9292,1.9292,1.9292,1.9371,1.9529,1.9608,2.007,-1.425,-1.4189,-1.4177,-1.3972,-1.364,-1.355,-1.3254,-1.2916,-1.3037,-1.3218,-1.3381,-1.3127,-1.3055,-1.3031,-1.2946,-1.2843,-1.2856,-1.2843,-1.2771,-1.2735,-1.2705,-1.2705,-1.2705,-1.2705,-1.2705,-1.2705,-1.2705,-1.2705,-1.2705,-1.2705,-1.2619,-1.2357,-1.1843,-1.1408,-1.1063,-1.0467,-1.0038,-1.012,-1.0038,-1.0038,-1.0038,-1.0038,-1.0038,-1.0038,-1.0038,-1.0038,-1.0038,-1.0038,-1.0038,-0.9951,-0.9864,-0.9694,-0.9432,-0.8903,-0.7841,-0.6605,-0.5544,-0.4835,-0.3499,-0.2875,-0.2875,-0.2875,-0.2875,-0.2785,-0.2604,-0.2424,-0.2244,-0.2064,-0.1705,-0.1525,-0.1436,-0.1436,-0.1436,-0.1076,-0.0179,0.0806,0.1879,0.313,0.4202,0.4919,0.5371,0.5733,0.5733,0.5733,0.5733,0.5733,0.5733,0.626,0.7397,0.8711,0.9864,1.1091,1.2241,1.3003,1.3555,1.3411,1.3206,1.3628,1.4302,1.5091,1.6116,1.7529,1.8603,1.8993,1.9143,1.9292,1.9292,1.9292,1.9292,1.9292,1.9292,1.9292,1.9292,1.945,1.9371,-1.4129,-1.393,-1.3912,-1.3894,-1.3785,-1.361,-1.3332,-1.3037,-1.3067,-1.3103,-1.3097,-1.2856,-1.2898,-1.3061,-1.3061,-1.3073,-1.3097,-1.3079,-1.297,-1.2807,-1.2723,-1.2711,-1.2705,-1.2705,-1.2705,-1.2705,-1.2705,-1.2705,-1.2705,-1.2705,-1.2705,-1.2443,-1.1923,-1.1322,-1.1235,-1.0467,-1.0207,-1.0463,-1.0207,-1.0033,-1.0038,-1.0038,-1.0038,-1.0038,-1.0038,-1.0038,-1.0038,-1.0038,-1.0038,-0.9951,-0.9777,-0.9515,-0.9349,-0.9087,-0.7845,-0.5985,-0.5722,-0.4743,-0.3141,-0.2963,-0.2875,-0.2875,-0.2875,-0.2875,-0.2785,-0.2604,-0.2334,-0.2155,-0.1885,-0.1615,-0.1525,-0.1436,-0.1436,-0.1076,-0.0269,0.0717,0.17,0.2862,0.3935,0.4921,0.5371,0.5733,0.5733,0.5733,0.5733,0.5733,0.5733,0.6349,0.7312,0.8448,0.9685,1.0778,1.2051,1.2868,1.3453,1.3254,1.3227,1.3514,1.4031,1.4789,1.5703,1.6944,1.7934,1.8745,1.9143,1.9292,1.9292,1.9292,1.9292,1.9292,1.9292,1.9292,1.9292,1.9292,1.9292,-1.3725,-1.3646,-1.3646,-1.3544,-1.3387,-1.3296,-1.3103,-1.2874,-1.2843,-1.2843,-1.2831,-1.2729,-1.2862,-1.3049,-1.3145,-1.32,-1.332,-1.3157,-1.3019,-1.2964,-1.2795,-1.2717,-1.2705,-1.2705,-1.2705,-1.2705,-1.2705,-1.2705,-1.2705,-1.2705,-1.2705,-1.2528,-1.2015,-1.1413,-1.0982,-1.0467,-1.0549,-1.0463,-1.0207,-1.0038,-1.0038,-1.0038,-1.0038,-1.0038,-1.0038,-1.0038,-1.0038,-1.0038,-1.0038,-0.9951,-0.9777,-0.9515,-0.9257,-0.8999,-0.7845,-0.6251,-0.5633,-0.4832,-0.3499,-0.2875,-0.2875,-0.2875,-0.2875,-0.2875,-0.2875,-0.2604,-0.2424,-0.2155,-0.1795,-0.1525,-0.1436,-0.1436,-0.1346,-0.1256,-0.0448,0.0448,0.1522,0.2773,0.3935,0.4743,0.5371,0.5644,0.5733,0.5733,0.5733,0.5733,0.5733,0.6086,0.6962,0.8352,0.9575,1.0712,1.1777,1.2662,1.3242,1.3145,1.3212,1.3458,1.3931,1.4628,1.5613,1.6609,1.7755,1.8745,1.9063,1.9292,1.9292,1.9213,1.9292,1.9292,1.9054,1.9134,1.9292,1.9292,1.9292,-1.3459,-1.3381,-1.3381,-1.3224,-1.3019,-1.3085,-1.2964,-1.2735,-1.2705,-1.2705,-1.2705,-1.2711,-1.2856,-1.3055,-1.3145,-1.3181,-1.3357,-1.3224,-1.3012,-1.2982,-1.2807,-1.2723,-1.2705,-1.2705,-1.2705,-1.2705,-1.2705,-1.2705,-1.2705,-1.2705,-1.2613,-1.2357,-1.2186,-1.1585,-1.1068,-1.0722,-1.0549,-1.0463,-1.0207,-1.0038,-1.0038,-1.0038,-1.0038,-1.0038,-1.0038,-1.0038,-1.0038,-1.0038,-1.0038,-0.9951,-0.9694,-0.9432,-0.9257,-0.8819,-0.7757,-0.634,-0.4832,-0.4121,-0.3232,-0.2875,-0.2875,-0.2875,-0.2875,-0.2875,-0.2875,-0.2604,-0.2334,-0.2064,-0.1705,-0.1525,-0.1436,-0.1436,-0.1346,-0.1166,-0.0628,0.0269,0.1432,0.2684,0.3848,0.4743,0.5371,0.5555,0.5733,0.5733,0.5733,0.5733,0.5733,0.6174,0.67,0.8093,0.9396,1.0361,1.15,1.2568,1.304,1.3151,1.326,1.3477,1.3849,1.423,1.5199,1.6198,1.7432,1.8576,1.8904,1.9143,1.9143,1.9143,1.9063,1.8816,1.8496,1.8736,1.9134,1.9134,1.9045,-1.3369,-1.3145,-1.3127,-1.2988,-1.2801,-1.3025,-1.297,-1.2729,-1.2711,-1.2723,-1.2759,-1.2753,-1.2892,-1.3109,-1.3139,-1.3169,-1.3194,-1.3163,-1.3006,-1.2831,-1.2753,-1.2717,-1.2705,-1.2705,-1.2705,-1.2705,-1.2705,-1.2705,-1.2705,-1.2705,-1.2443,-1.2186,-1.21,-1.1671,-1.1241,-1.0809,-1.0636,-1.0463,-1.0207,-1.0038,-1.0038,-1.0038,-1.0038,-1.0038,-1.0038,-1.0038,-1.0038,-1.0038,-1.0038,-0.9864,-0.9607,-0.9432,-0.9174,-0.8828,-0.7496,-0.5899,-0.4121,-0.323,-0.2963,-0.2875,-0.2875,-0.2875,-0.2875,-0.2875,-0.2875,-0.2694,-0.2424,-0.2155,-0.1705,-0.1525,-0.1436,-0.1436,-0.1436,-0.1076,-0.0628,0.0269,0.1343,0.2504,0.3757,0.4654,0.5371,0.5644,0.5733,0.5733,0.5733,0.5733,0.5733,0.5733,0.6526,0.8013,0.9061,0.9777,1.0948,1.2326,1.2815,1.2915,1.3069,1.3231,1.3136,1.3535,1.4622,1.5703,1.669,1.7674,1.8585,1.8922,1.9002,1.8834,1.8594,1.8345,1.7934,1.7925,1.8318,1.8479,1.8479,-1.3471,-1.3387,-1.32,-1.3073,-1.3025,-1.3091,-1.3073,-1.2988,-1.2813,-1.2886,-1.326,-1.2868,-1.297,-1.3369,-1.3212,-1.3242,-1.326,-1.323,-1.3115,-1.2958,-1.2789,-1.2729,-1.2705,-1.2705,-1.2705,-1.2705,-1.2705,-1.2705,-1.2705,-1.2705,-1.2705,-1.2534,-1.21,-1.1671,-1.1241,-1.0809,-1.0636,-1.0463,-1.0125,-1.0038,-1.0038,-1.0038,-1.0038,-1.0038,-1.0038,-1.0038,-1.0038,-1.0038,-1.0038,-0.9951,-0.9694,-0.9519,-0.9432,-0.917,-0.8197,-0.6068,-0.4297,-0.2875,-0.2875,-0.2875,-0.2875,-0.2875,-0.2875,-0.2875,-0.2875,-0.2785,-0.2604,-0.2155,-0.1705,-0.1525,-0.1436,-0.1436,-0.1436,-0.1166,-0.0718,0.009,0.1164,0.2325,0.3489,0.4832,0.5552,0.5644,0.5733,0.5733,0.5733,0.5733,0.5733,0.5822,0.6349,0.7929,0.8807,0.9432,1.067,1.2109,1.2533,1.2726,1.2879,1.2997,1.2948,1.3045,1.4119,1.5115,1.5951,1.6772,1.7764,1.8353,1.878,1.8442,1.7942,1.7772,1.744,1.7432,1.7423,1.7585,1.7827,-1.3513,-1.3495,-1.3344,-1.3224,-1.3133,-1.3127,-1.3175,-1.3224,-1.3091,-1.3236,-1.3441,-1.3067,-1.3055,-1.3248,-1.3085,-1.3067,-1.329,-1.3061,-1.297,-1.3037,-1.285,-1.2747,-1.2705,-1.2705,-1.2705,-1.2705,-1.2705,-1.2705,-1.2705,-1.2705,-1.2705,-1.2619,-1.21,-1.1671,-1.1149,-1.0722,-1.0376,-1.0294,-1.0125,-1.0038,-1.0038,-1.0038,-1.0038,-1.0038,-1.0038,-1.0038,-1.0038,-1.0038,-1.0038,-0.9951,-0.9781,-0.9607,-0.9248,-0.8632,-0.7665,-0.5628,-0.4119,-0.3142,-0.2875,-0.2875,-0.2875,-0.2875,-0.2875,-0.2875,-0.2875,-0.2875,-0.2604,-0.2244,-0.1795,-0.1436,-0.1436,-0.1436,-0.1436,-0.1346,-0.0717,-0.009,0.0985,0.2057,0.3398,0.4921,0.5463,0.5644,0.5733,0.5733,0.5733,0.5733,0.5997,0.6349,0.6966,0.8017,0.8632,0.8986,1.0392,1.185,1.2161,1.2505,1.2663,1.2844,1.2862,1.3162,1.3964,1.4531,1.5199,1.6034,1.6944,1.7367,1.7619,1.7448,1.7033,1.678,1.6281,1.5861,1.5944,1.6437,1.6764,-1.358,-1.3592,-1.3556,-1.3423,-1.3206,-1.3224,-1.3363,-1.3562,-1.3665,-1.3586,-1.355,-1.3343,-1.3221,-1.32,-1.312,-1.3021,-1.3067,-1.297,-1.2976,-1.3115,-1.2922,-1.2783,-1.2711,-1.2705,-1.2705,-1.2705,-1.2705,-1.2705,-1.2705,-1.2705,-1.2619,-1.2619,-1.1843,-1.1322,-1.1068,-1.0467,-1.012,-1.012,-1.0038,-1.0038,-1.0038,-1.0038,-1.0038,-1.0038,-1.0038,-1.0038,-1.0038,-1.0038,-1.0038,-0.9951,-0.9781,-0.9694,-0.8982,-0.7654,-0.6422,-0.5364,-0.3942,-0.3142,-0.2875,-0.2875,-0.2875,-0.2875,-0.2875,-0.2875,-0.2875,-0.2875,-0.2694,-0.2244,-0.1705,-0.1436,-0.1436,-0.1436,-0.1436,-0.1346,-0.0897,-0.0,0.1074,0.2415,0.4026,0.5191,0.5552,0.5644,0.5733,0.5733,0.5733,0.5733,0.5911,0.6435,0.7139,0.8017,0.8807,0.9069,1.0353,1.1674,1.197,1.2237,1.2458,1.2598,1.2641,1.2832,1.3379,1.3873,1.4371,1.5206,1.5959,1.5959,1.6041,1.6124,1.5959,1.5213,1.4713,1.4048,1.43,1.5039,1.5613,-1.4105,-1.4093,-1.3894,-1.3773,-1.3725,-1.3719,-1.3857,-1.42,-1.4766,-1.4553,-1.4172,-1.3923,-1.3673,-1.3499,-1.3448,-1.3324,-1.3037,-1.3037,-1.3067,-1.3121,-1.3025,-1.2874,-1.2741,-1.2717,-1.2705,-1.2705,-1.2705,-1.2705,-1.2705,-1.2705,-1.2534,-1.2186,-1.158,-1.1235,-1.0809,-1.0207,-1.0038,-1.0038,-1.0038,-1.0038,-1.0038,-1.0038,-1.0038,-1.0038,-1.0038,-1.0038,-1.0038,-1.0038,-1.0038,-0.9951,-0.9951,-0.9781,-0.9515,-0.7474,-0.6416,-0.5714,-0.4032,-0.3142,-0.2875,-0.2875,-0.2875,-0.2875,-0.2875,-0.2875,-0.2875,-0.2875,-0.2694,-0.2244,-0.1795,-0.1615,-0.1436,-0.1436,-0.1346,-0.1256,-0.1076,-0.0,0.1253,0.2952,0.4563,0.5102,0.5463,0.5644,0.5644,0.5733,0.5733,0.5733,0.5733,0.6086,0.67,0.758,0.9244,0.9772,1.0559,1.15,1.181,1.2006,1.2209,1.2441,1.2502,1.2717,1.2875,1.3372,1.3957,1.4378,1.488,1.488,1.5047,1.547,1.5137,1.4216,1.388,1.3548,1.33,1.3795,1.4371,-1.4298,-1.4268,-1.4014,-1.39,-1.39,-1.39,-1.399,-1.4218,-1.5,-1.5153,-1.4893,-1.493,-1.4655,-1.4025,-1.3935,-1.3614,-1.3197,-1.3121,-1.3212,-1.3254,-1.3145,-1.3037,-1.2904,-1.2753,-1.2711,-1.2705,-1.2705,-1.2705,-1.2705,-1.2705,-1.2448,-1.2015,-1.1666,-1.1235,-1.0722,-1.0381,-1.0125,-1.0038,-1.0038,-1.0038,-1.0038,-1.0038,-1.0038,-1.0038,-1.0038,-1.0038,-1.0038,-1.0038,-1.0038,-1.0038,-0.9951,-0.9777,-0.9074,-0.7478,-0.6416,-0.5447,-0.4208,-0.2875,-0.2875,-0.2875,-0.2875,-0.2875,-0.2875,-0.2875,-0.2875,-0.2875,-0.2694,-0.2244,-0.1974,-0.1705,-0.1436,-0.1436,-0.1436,-0.1346,-0.1076,-0.0358,0.1431,0.34,0.4563,0.5282,0.5552,0.5644,0.5733,0.5733,0.5733,0.5733,0.5733,0.5997,0.6615,0.7139,0.8894,1.0207,1.0738,1.1176,1.1565,1.1743,1.1916,1.2135,1.2363,1.2534,1.279,1.3039,1.3464,1.3795,1.388,1.388,1.4132,1.4468,1.4216,1.3457,1.3288,1.3203,1.2954,1.279,1.3372,-1.4298,-1.4262,-1.4057,-1.4029,-1.4005,-1.4135,-1.4222,-1.4428,-1.5308,-1.5717,-1.5866,-1.6303,-1.5749,-1.4917,-1.446,-1.3856,-1.3379,-1.3209,-1.3266,-1.3302,-1.32,-1.3043,-1.2916,-1.2813,-1.2741,-1.2705,-1.2705,-1.2705,-1.2705,-1.2705,-1.2534,-1.21,-1.1843,-1.1585,-1.0895,-1.0549,-1.0376,-1.012,-1.0038,-1.0038,-1.0038,-1.0038,-1.0038,-1.0038,-1.0038,-1.0038,-1.0038,-1.0038,-1.0038,-1.0038,-0.9951,-0.9689,-0.8894,-0.7566,-0.6508,-0.5447,-0.4032,-0.3142,-0.2875,-0.2875,-0.2875,-0.2875,-0.2875,-0.2875,-0.2875,-0.2785,-0.2604,-0.2334,-0.2064,-0.1795,-0.1525,-0.1436,-0.1436,-0.1166,-0.0896,-0.0269,0.1789,0.3757,0.4563,0.5282,0.5463,0.5644,0.5733,0.5733,0.5733,0.5733,0.5911,0.626,0.67,0.7228,0.8281,0.9419,1.0207,1.0646,1.1262,1.1527,1.1785,1.1866,1.2118,1.2369,1.2619,1.279,1.2954,1.2869,1.2954,1.3124,1.3124,1.3294,1.2954,1.2784,1.2869,1.2954,1.2869,1.279,1.279,-1.4298,-1.4298,-1.4238,-1.4383,-1.4695,-1.4961,-1.5317,-1.5722,-1.6707,-1.7217,-1.7245,-1.753,-1.7019,-1.537,-1.5147,-1.4609,-1.3887,-1.3447,-1.3145,-1.3151,-1.3206,-1.3025,-1.2862,-1.2795,-1.2723,-1.2705,-1.2705,-1.2705,-1.2705,-1.2705,-1.2448,-1.202,-1.2015,-1.1585,-1.0722,-1.0549,-1.0381,-1.012,-1.0038,-1.0038,-1.0038,-1.0038,-1.0038,-1.0038,-1.0038,-1.0038,-1.0038,-1.0038,-1.0038,-1.0038,-0.9951,-0.9689,-0.8807,-0.757,-0.6419,-0.545,-0.3944,-0.3141,-0.2963,-0.2875,-0.2875,-0.2875,-0.2875,-0.2875,-0.2875,-0.2875,-0.2604,-0.2334,-0.1974,-0.1795,-0.1525,-0.1436,-0.1346,-0.0717,-0.0358,0.0895,0.2596,0.3848,0.483,0.5191,0.5463,0.5555,0.5733,0.5733,0.5733,0.5733,0.5733,0.6086,0.6171,0.6966,0.7845,0.8807,0.9767,1.0646,1.1435,1.1527,1.1699,1.178,1.1866,1.2118,1.2369,1.2448,1.2534,1.2534,1.2619,1.279,1.2705,1.2705,1.2699,1.2784,1.2699,1.2699,1.2705,1.2705,1.2705]},{"header":{"parameterUnit":"m.s-1","parameterCategory":1,"la1":31.0,"la2":29.5877,"lo1":-88.7671,"lo2":-86.6584,"dy":0.0162,"dx":0.0185,"nx":115,"ny":88,"refTime":"2024-09-11T12:00:00:Z","depth":0,"parameterNumber":3,"parameterNumberName":"V-component_of_WINDS"},"data":[0.0,0.0,0.0,0.0,0.0,0.0,0.0,0.0,0.0,0.0,0.0,0.0,0.0,0.0,0.0,0.0,0.0,0.0,0.0,0.0,0.0,0.0,0.0,0.0,0.0,0.0,0.0,0.0,0.0,0.0,0.0,0.0,0.0,0.0,0.0,0.0,0.0,0.0,0.0,0.0,0.0,0.0,0.0,0.0,0.0,0.0,0.0,0.0,0.0,0.0,0.0,0.0,0.0,0.0,0.0,0.0,0.0,0.0,0.0,0.0,0.0,0.0,0.0,0.0,0.0,0.0,0.0,0.0,0.0,0.0,0.0,0.0,0.0,0.0,0.0,0.0,0.0,0.0,0.0,0.0,0.0,0.0,0.0,0.0,0.0,0.0,0.0,0.0,0.0,0.0,0.0,0.0,0.0,0.0,0.0,0.0,0.0,0.0,0.0,0.0,0.0,0.0,0.0,0.0,0.0,0.0,0.0,0.0,0.0,0.0,0.0,0.0,0.0,0.0,0.0,0.0,0.0,0.0,0.0,0.0,0.0,0.0,0.0,0.0,0.0,0.0,0.0,0.0,0.0,0.0,0.0,0.0,0.0,0.0,0.0,0.0,0.0,0.0,0.0,0.0,0.0,0.0,0.0,0.0,0.0,0.0,0.0,0.0,0.0,0.0,0.0,0.0,0.0,0.0,0.0,0.0,0.0,0.0,0.0,0.0,0.0,0.0,0.0,0.0,0.0,0.0,0.0,0.0,0.0,0.0,0.0,0.0,0.0,0.0,0.0,0.0,0.0,0.0,0.0,0.0,0.0,0.0,0.0,0.0,0.0,0.0,0.0,0.0,0.0,0.0,0.0,0.0,0.0,0.0,0.0,0.0,0.0,0.0,0.0,0.0,0.0,0.0,0.0,0.0,0.0,0.0,0.0,0.0,0.0,0.0,0.0,0.0,0.0,0.0,0.0,0.0,0.0,0.0,0.0,0.0,0.0,0.0,0.0,0.0,0.0,0.0,0.0,0.0,0.0,0.0,0.0,0.0,0.0,0.0,0.0,0.0,0.0,0.0,0.0,0.0,0.0,0.0,0.0,0.0,0.0,0.0,0.0,0.0,0.0,0.0,0.0,0.0,0.0,0.0,0.0,0.0,0.0,0.0,0.0,0.0,0.0,0.0,0.0,0.0,0.0,0.0,0.0,0.0,0.0,0.0,0.0,0.0,0.0,0.0,0.0,0.0,0.0,0.0,0.0,0.0,0.0,0.0,0.0,0.0,0.0,0.0,0.0,0.0,0.0,0.0,0.0,0.0,0.0,0.0,0.0,0.0,0.0,0.0,0.0,0.0,0.0,0.0,0.0,0.0,0.0,0.0,0.0,0.0,0.0,0.0,0.0,0.0,0.0,0.0,0.0,0.0,0.0,0.0,0.0,0.0,0.0,0.0,0.0,0.0,0.0,0.0,0.0,0.0,0.0,0.0,0.0,0.0,0.0,0.0,0.0,0.0,0.0,0.0,0.0,0.0,0.0,0.0,0.0,0.0,0.0,0.0,0.0,0.0,0.0,0.0,0.0,0.0,0.0,0.0,0.0,0.0,0.0,0.0,0.0,0.0,0.0,0.0,0.0,0.0,0.0,0.0,0.0,0.0,0.0,0.0,0.0,0.0,0.0,0.0,0.0,0.0,0.0,0.0,0.0,0.0,0.0,0.0,0.0,0.0,0.0,0.0,0.0,0.0,0.0,0.0,0.0,0.0,0.0,0.0,0.0,0.0,0.0,0.0,0.0,0.0,0.0,0.0,0.0,0.0,0.0,0.0,0.0,0.0,0.0,0.0,0.0,0.0,0.0,0.0,0.0,0.0,0.0,0.0,0.0,0.0,0.0,0.0,0.0,0.0,0.0,0.0,0.0,0.0,0.0,0.0,0.0,0.0,0.0,0.0,0.0,0.0,0.0,0.0,0.0,0.0,0.0,0.0,0.0,0.0,0.0,0.0,0.0,0.0,0.0,0.0,0.0,0.0,0.0,0.0,0.0,0.0,0.0,0.0,0.0,0.0,0.0,0.0,0.0,0.0,0.0,0.0,0.0,0.0,0.0,0.0,0.0,0.0,0.0,0.0,0.0,0.0,0.0,0.0,0.0,0.0,0.0,0.0,0.0,0.0,0.0,0.0,0.0,0.0,0.0,0.0,0.0,0.0,0.0,0.0,0.0,0.0,0.0,0.0,0.0,0.0,0.0,0.0,0.0,0.0,0.0,0.0,0.0,0.0,0.0,0.0,0.0,0.0,0.0,0.0,0.0,0.0,0.0,0.0,0.0,0.0,0.0,0.0,0.0,0.0,0.0,0.0,0.0,0.0,0.0,0.0,0.0,0.0,0.0,0.0,0.0,0.0,0.0,0.0,0.0,0.0,0.0,0.0,0.0,0.0,0.0,0.0,0.0,0.0,0.0,0.0,0.0,0.0,0.0,0.0,0.0,0.0,0.0,0.0,0.0,0.0,0.0,0.0,0.0,0.0,0.0,0.0,0.0,0.0,0.0,0.0,0.0,0.0,0.0,0.0,0.0,0.0,0.0,0.0,0.0,0.0,0.0,0.0,0.0,0.0,0.0,0.0,0.0,0.0,0.0,0.0,0.0,0.0,0.0,0.0,0.0,0.0,0.0,0.0,0.0,0.0,0.0,0.0,0.0,0.0,0.0,0.0,0.0,0.0,0.0,0.0,0.0,0.0,0.0,0.0,0.0,0.0,0.0,0.0,0.0,0.0,0.0,0.0,0.0,0.0,0.0,0.0,0.0,0.0,0.0,0.0,0.0,0.0,0.0,0.0,0.0,0.0,0.0,0.0,0.0,0.0,0.0,0.0,0.0,0.0,0.0,0.0,0.0,0.0,0.0,0.0,0.0,0.0,0.0,0.0,0.0,0.0,0.0,0.0,0.0,0.0,0.0,0.0,0.0,0.0,0.0,0.0,0.0,0.0,0.0,0.0,0.0,0.0,0.0,0.0,0.0,0.0,0.0,0.0,0.0,0.0,0.0,0.0,0.0,0.0,0.0,0.0,0.0,0.0,0.0,0.0,0.0,0.0,0.0,0.0,0.0,0.0,0.0,0.0,0.0,0.0,0.0,0.0,0.0,0.0,0.0,0.0,0.0,0.0,0.0,0.0,0.0,0.0,0.0,0.0,0.0,0.0,0.0,0.0,0.0,0.0,0.0,0.0,0.0,0.0,0.0,0.0,0.0,0.0,0.0,0.0,0.0,0.0,0.0,0.0,0.0,0.0,0.0,0.0,0.0,0.0,0.0,0.0,0.0,0.0,0.0,0.0,0.0,0.0,0.0,0.0,0.0,0.0,0.0,0.0,0.0,0.0,0.0,0.0,0.0,0.0,0.0,0.0,0.0,0.0,0.0,0.0,0.0,0.0,0.0,0.0,0.0,0.0,0.0,0.0,0.0,0.0,0.0,0.0,0.0,0.0,0.0,0.0,0.0,0.0,0.0,0.0,0.0,0.0,0.0,0.0,0.0,0.0,0.0,0.0,0.0,0.0,0.0,0.0,0.0,0.0,0.0,0.0,0.0,0.0,0.0,0.0,0.0,0.0,0.0,0.0,0.0,0.0,0.0,0.0,0.0,0.0,0.0,0.0,0.0,0.0,0.0,0.0,0.0,0.0,0.0,0.0,0.0,0.0,0.0,0.0,0.0,0.0,0.0,0.0,0.0,0.0,0.0,0.0,0.0,0.0,0.0,0.0,0.0,0.0,0.0,0.0,0.0,0.0,0.0,0.0,0.0,0.0,0.0,0.0,0.0,0.0,0.0,0.0,0.0,0.0,0.0,0.0,0.0,0.0,0.0,0.0,0.0,0.0,0.0,0.0,0.0,0.0,0.0,0.0,0.0,0.0,0.0,0.0,0.0,0.0,0.0,0.0,0.0,0.0,0.0,0.0,0.0,0.0,0.0,0.0,0.0,0.0,0.0,0.0,0.0,0.0,0.0,0.0,0.0,0.0,0.0,0.0,0.0,0.0,0.0,0.0,0.0,0.0,0.0,0.0,0.0,0.0,0.0,0.0,0.0,0.0,0.0,0.0,0.0,0.0,0.0,0.0,0.0,0.0,0.0,0.0,0.0,0.0,0.0,0.0,0.0,0.0,0.0,0.0,0.0,0.0,0.0,0.0,0.0,0.0,0.0,0.0,0.0,0.0,0.0,0.0,0.0,0.0,0.0,0.0,0.0,0.0,0.0,0.0,0.0,0.0,0.0,0.0,0.0,0.0,0.0,0.0,0.0,0.0,0.0,0.0,-1.0293,0.0,0.0,0.0,0.0,0.0,0.0,0.0,0.0,0.0,0.0,0.0,0.0,0.0,0.0,0.0,0.0,0.0,0.0,0.0,0.0,0.0,0.0,0.0,0.0,0.0,0.0,0.0,0.0,0.0,0.0,0.0,0.0,0.0,0.0,0.0,0.0,0.0,0.0,0.0,0.0,0.0,0.0,0.0,0.0,0.0,0.0,0.0,0.0,0.0,0.0,0.0,0.0,0.0,0.0,0.0,0.0,0.0,0.0,0.0,0.0,0.0,0.0,0.0,0.0,0.0,0.0,0.0,0.0,0.0,0.0,0.0,0.0,0.0,0.0,0.0,0.0,0.0,0.0,0.0,0.0,0.0,0.0,0.0,0.0,0.0,0.0,0.0,0.0,0.0,0.0,0.0,0.0,0.0,0.0,0.0,0.0,0.0,0.0,0.0,0.0,0.0,0.0,0.0,0.0,0.0,0.0,0.0,0.0,0.0,0.0,-1.0236,-1.025,-1.0254,-1.0245,-1.0254,0.0,0.0,0.0,0.0,0.0,0.0,0.0,0.0,0.0,0.0,0.0,0.0,0.0,0.0,0.0,0.0,0.0,0.0,0.0,0.0,0.0,0.0,0.0,0.0,0.0,0.0,0.0,0.0,0.0,0.0,0.0,0.0,0.0,0.0,0.0,0.0,0.0,0.0,0.0,0.0,0.0,0.0,0.0,0.0,0.0,0.0,0.0,0.0,0.0,0.0,0.0,0.0,0.0,0.0,0.0,0.0,0.0,0.0,0.0,0.0,0.0,0.0,0.0,0.0,0.0,0.0,0.0,0.0,0.0,0.0,0.0,0.0,0.0,0.0,0.0,0.0,0.0,0.0,0.0,0.0,0.0,0.0,0.0,0.0,0.0,0.0,0.0,0.0,0.0,0.0,0.0,0.0,0.0,0.0,0.0,0.0,0.0,0.0,0.0,0.0,0.0,0.0,0.0,0.0,0.0,0.0,0.0,0.0,0.0,0.0,0.0,0.0,-1.0496,-1.0489,-1.0485,0.0,0.0,0.0,0.0,0.0,0.0,0.0,0.0,0.0,0.0,0.0,0.0,0.0,0.0,0.0,0.0,0.0,0.0,0.0,0.0,0.0,0.0,0.0,0.0,0.0,0.0,0.0,0.0,0.0,0.0,0.0,0.0,0.0,0.0,0.0,0.0,0.0,0.0,0.0,0.0,0.0,0.0,0.0,0.0,0.0,0.0,0.0,0.0,0.0,0.0,0.0,0.0,0.0,0.0,0.0,0.0,0.0,0.0,0.0,0.0,0.0,0.0,0.0,0.0,0.0,0.0,0.0,0.0,0.0,0.0,0.0,0.0,0.0,0.0,0.0,0.0,0.0,0.0,0.0,0.0,0.0,0.0,0.0,0.0,0.0,0.0,0.0,0.0,0.0,0.0,0.0,0.0,0.0,0.0,0.0,0.0,0.0,0.0,0.0,0.0,0.0,0.0,0.0,0.0,0.0,0.0,0.0,0.0,0.0,0.0,-1.0573,-1.136,-1.1379,0.0,-1.1377,0.0,0.0,0.0,0.0,0.0,0.0,0.0,0.0,0.0,0.0,0.0,0.0,0.0,0.0,0.0,0.0,0.0,0.0,0.0,0.0,0.0,0.0,0.0,0.0,0.0,0.0,0.0,0.0,0.0,0.0,0.0,0.0,0.0,0.0,0.0,0.0,0.0,0.0,0.0,0.0,0.0,0.0,0.0,0.0,0.0,0.0,0.0,0.0,0.0,0.0,0.0,0.0,0.0,0.0,0.0,0.0,0.0,0.0,0.0,0.0,0.0,0.0,0.0,0.0,0.0,0.0,0.0,0.0,0.0,0.0,0.0,0.0,0.0,0.0,0.0,0.0,0.0,0.0,0.0,0.0,0.0,0.0,0.0,0.0,0.0,0.0,0.0,0.0,0.0,0.0,0.0,0.0,0.0,0.0,0.0,0.0,0.0,0.0,0.0,0.0,0.0,0.0,0.0,0.0,0.0,0.0,0.0,0.0,0.0,0.0,-1.1088,-1.1435,-1.1447,-1.1443,0.0,0.0,0.0,0.0,0.0,0.0,0.0,0.0,0.0,0.0,0.0,0.0,0.0,0.0,0.0,0.0,0.0,0.0,0.0,0.0,0.0,0.0,0.0,0.0,0.0,0.0,0.0,0.0,0.0,0.0,0.0,0.0,0.0,0.0,0.0,0.0,0.0,0.0,0.0,0.0,0.0,0.0,0.0,0.0,0.0,0.0,0.0,0.0,0.0,0.0,0.0,0.0,0.0,0.0,0.0,0.0,0.0,0.0,0.0,0.0,0.0,0.0,0.0,0.0,0.0,0.0,0.0,0.0,0.0,0.0,0.0,0.0,0.0,0.0,0.0,0.0,0.0,0.0,0.0,0.0,0.0,0.0,0.0,0.0,0.0,0.0,0.0,0.0,0.0,0.0,0.0,0.0,0.0,0.0,0.0,0.0,0.0,0.0,0.0,0.0,0.0,0.0,0.0,0.0,0.0,0.0,0.0,0.0,0.0,0.0,-1.1196,-1.1503,-1.1728,-1.1738,-1.1623,-1.1393,0.0,0.0,0.0,0.0,0.0,0.0,0.0,0.0,0.0,0.0,0.0,0.0,0.0,0.0,0.0,0.0,0.0,0.0,0.0,0.0,0.0,0.0,0.0,0.0,0.0,0.0,0.0,0.0,0.0,0.0,0.0,0.0,0.0,0.0,0.0,0.0,0.0,0.0,0.0,0.0,0.0,0.0,0.0,0.0,0.0,0.0,0.0,0.0,0.0,0.0,0.0,0.0,0.0,0.0,0.0,0.0,0.0,0.0,0.0,0.0,0.0,0.0,0.0,0.0,0.0,0.0,0.0,0.0,0.0,0.0,0.0,0.0,0.0,0.0,0.0,0.0,0.0,0.0,0.0,0.0,0.0,0.0,0.0,0.0,0.0,0.0,0.0,0.0,0.0,0.0,0.0,0.0,0.0,0.0,0.0,0.0,0.0,0.0,0.0,0.0,0.0,0.0,0.0,0.0,0.0,0.0,0.0,0.0,0.0,-1.1791,-1.1777,-1.253,-1.254,-1.2185,0.0,0.0,0.0,0.0,0.0,0.0,0.0,0.0,0.0,0.0,0.0,0.0,0.0,0.0,0.0,0.0,0.0,0.0,0.0,0.0,0.0,0.0,0.0,0.0,0.0,0.0,0.0,0.0,0.0,0.0,0.0,0.0,0.0,0.0,0.0,0.0,0.0,0.0,0.0,0.0,0.0,0.0,0.0,0.0,0.0,0.0,0.0,0.0,0.0,0.0,0.0,0.0,0.0,0.0,0.0,0.0,0.0,0.0,0.0,0.0,0.0,0.0,0.0,0.0,0.0,0.0,0.0,0.0,0.0,0.0,0.0,0.0,0.0,0.0,0.0,0.0,0.0,0.0,0.0,0.0,0.0,0.0,0.0,0.0,0.0,0.0,0.0,0.0,0.0,0.0,0.0,0.0,0.0,0.0,0.0,0.0,0.0,0.0,0.0,0.0,0.0,0.0,0.0,0.0,0.0,0.0,0.0,0.0,0.0,-1.0998,-1.1268,-1.2065,-1.333,-1.2415,-1.1695,0.0,0.0,0.0,0.0,0.0,0.0,0.0,0.0,0.0,0.0,0.0,0.0,0.0,0.0,0.0,0.0,0.0,0.0,0.0,0.0,0.0,0.0,0.0,0.0,0.0,0.0,0.0,0.0,0.0,0.0,0.0,0.0,0.0,0.0,0.0,0.0,0.0,0.0,0.0,0.0,0.0,0.0,0.0,0.0,0.0,0.0,0.0,0.0,0.0,0.0,0.0,0.0,0.0,0.0,0.0,0.0,0.0,0.0,0.0,0.0,0.0,0.0,0.0,0.0,0.0,0.0,0.0,0.0,0.0,0.0,0.0,0.0,0.0,0.0,0.0,0.0,0.0,0.0,0.0,0.0,0.0,0.0,0.0,0.0,0.0,0.0,0.0,0.0,0.0,0.0,0.0,0.0,0.0,0.0,0.0,0.0,0.0,0.0,0.0,0.0,0.0,0.0,0.0,0.0,0.0,0.0,0.0,0.0,0.0,-1.0914,0.0,-1.2605,0.0,-1.238,-1.1408,0.0,0.0,0.0,0.0,0.0,0.0,0.0,0.0,0.0,0.0,0.0,0.0,0.0,0.0,0.0,0.0,0.0,0.0,0.0,0.0,0.0,0.0,0.0,0.0,0.0,0.0,0.0,0.0,0.0,0.0,0.0,0.0,0.0,0.0,0.0,0.0,0.0,0.0,0.0,0.0,0.0,0.0,0.0,0.0,0.0,0.0,0.0,0.0,0.0,0.0,0.0,0.0,0.0,0.0,0.0,0.0,0.0,0.0,0.0,0.0,0.0,0.0,0.0,0.0,0.0,0.0,0.0,0.0,0.0,0.0,0.0,0.0,0.0,0.0,0.0,0.0,0.0,0.0,0.0,0.0,0.0,0.0,0.0,0.0,0.0,0.0,0.0,0.0,0.0,0.0,0.0,0.0,0.0,0.0,0.0,0.0,0.0,0.0,0.0,0.0,0.0,0.0,0.0,0.0,0.0,0.0,0.0,0.0,-1.0933,-1.2488,-1.3297,-1.3366,-1.2664,-1.258,-1.1407,0.0,0.0,0.0,0.0,0.0,0.0,0.0,0.0,0.0,0.0,0.0,0.0,0.0,0.0,0.0,0.0,0.0,0.0,0.0,0.0,0.0,0.0,0.0,0.0,0.0,0.0,0.0,0.0,0.0,0.0,0.0,0.0,0.0,0.0,0.0,0.0,0.0,0.0,0.0,0.0,0.0,0.0,0.0,0.0,0.0,0.0,0.0,0.0,0.0,0.0,0.0,0.0,0.0,0.0,0.0,0.0,0.0,0.0,0.0,0.0,0.0,0.0,0.0,0.0,0.0,0.0,0.0,0.0,0.0,0.0,0.0,0.0,0.0,0.0,0.0,0.0,0.0,0.0,0.0,0.0,0.0,0.0,0.0,0.0,0.0,0.0,0.0,0.0,0.0,0.0,0.0,0.0,0.0,0.0,0.0,0.0,0.0,0.0,0.0,0.0,0.0,0.0,0.0,0.0,0.0,0.0,0.0,0.0,0.0,-1.173,-1.2552,-1.3411,-1.422,-1.2615,-1.1607,0.0,0.0,0.0,0.0,0.0,0.0,0.0,0.0,0.0,0.0,0.0,0.0,0.0,0.0,0.0,0.0,0.0,0.0,0.0,0.0,0.0,0.0,0.0,0.0,0.0,0.0,0.0,0.0,0.0,0.0,0.0,0.0,0.0,0.0,0.0,0.0,0.0,0.0,0.0,0.0,0.0,0.0,0.0,0.0,0.0,0.0,0.0,0.0,0.0,0.0,0.0,0.0,0.0,0.0,0.0,0.0,0.0,0.0,0.0,0.0,0.0,0.0,0.0,0.0,0.0,0.0,0.0,0.0,0.0,0.0,0.0,0.0,0.0,0.0,0.0,0.0,0.0,0.0,0.0,0.0,0.0,0.0,0.0,0.0,0.0,0.0,0.0,0.0,0.0,0.0,0.0,0.0,0.0,0.0,0.0,0.0,0.0,0.0,0.0,0.0,0.0,0.0,0.0,0.0,0.0,0.0,0.0,0.0,0.0,-1.3239,-1.4023,-1.4825,-1.557,-1.3736,-1.2361,-1.1635,0.0,0.0,0.0,0.0,0.0,0.0,0.0,0.0,0.0,0.0,0.0,0.0,0.0,0.0,0.0,0.0,0.0,0.0,0.0,0.0,0.0,0.0,0.0,0.0,0.0,0.0,0.0,0.0,0.0,0.0,0.0,0.0,0.0,0.0,0.0,0.0,0.0,0.0,0.0,0.0,0.0,0.0,0.0,0.0,0.0,0.0,0.0,0.0,0.0,0.0,0.0,0.0,0.0,0.0,0.0,0.0,0.0,0.0,0.0,0.0,0.0,0.0,0.0,0.0,0.0,0.0,0.0,0.0,0.0,0.0,0.0,0.0,0.0,0.0,0.0,0.0,0.0,0.0,0.0,0.0,0.0,0.0,0.0,0.0,0.0,0.0,0.0,0.0,0.0,0.0,0.0,0.0,0.0,0.0,0.0,0.0,0.0,0.0,0.0,0.0,0.0,0.0,0.0,0.0,0.0,0.0,0.0,0.0,-1.6449,-1.7404,-1.7508,-1.6735,-1.5627,-1.3609,0.0,0.0,0.0,0.0,0.0,0.0,0.0,0.0,0.0,0.0,0.0,0.0,0.0,0.0,0.0,0.0,0.0,0.0,0.0,0.0,0.0,0.0,0.0,0.0,0.0,0.0,0.0,0.0,0.0,0.0,0.0,0.0,0.0,0.0,0.0,0.0,0.0,0.0,0.0,0.0,0.0,0.0,0.0,0.0,0.0,0.0,0.0,0.0,0.0,0.0,0.0,0.0,0.0,0.0,0.0,0.0,0.0,0.0,0.0,0.0,0.0,0.0,0.0,0.0,0.0,0.0,0.0,0.0,0.0,0.0,0.0,0.0,0.0,0.0,0.0,0.0,0.0,0.0,0.0,0.0,0.0,0.0,0.0,0.0,0.0,0.0,0.0,0.0,0.0,0.0,0.0,0.0,0.0,0.0,0.0,0.0,0.0,0.0,0.0,0.0,0.0,0.0,0.0,0.0,0.0,0.0,0.0,0.0,0.0,-1.7297,-1.9888,-2.0929,-2.005,-1.685,-1.499,0.0,0.0,0.0,0.0,0.0,0.0,0.0,0.0,0.0,0.0,0.0,0.0,0.0,0.0,0.0,0.0,0.0,0.0,0.0,0.0,0.0,0.0,0.0,0.0,0.0,0.0,0.0,0.0,0.0,0.0,0.0,0.0,0.0,0.0,0.0,0.0,0.0,0.0,0.0,0.0,0.0,0.0,0.0,0.0,0.0,0.0,0.0,0.0,0.0,0.0,0.0,0.0,0.0,0.0,0.0,0.0,0.0,0.0,0.0,0.0,0.0,0.0,0.0,0.0,0.0,0.0,0.0,0.0,0.0,0.0,0.0,0.0,0.0,0.0,0.0,0.0,0.0,0.0,0.0,0.0,0.0,0.0,0.0,0.0,0.0,0.0,0.0,0.0,0.0,0.0,0.0,0.0,0.0,0.0,0.0,0.0,0.0,0.0,0.0,0.0,0.0,0.0,0.0,0.0,0.0,0.0,0.0,0.0,-1.7317,-1.9687,-2.2639,-2.3957,-2.3509,-1.941,-1.6728,0.0,0.0,0.0,0.0,0.0,0.0,0.0,0.0,0.0,0.0,0.0,0.0,0.0,0.0,0.0,0.0,0.0,0.0,0.0,0.0,0.0,0.0,0.0,0.0,0.0,0.0,0.0,0.0,0.0,0.0,0.0,0.0,0.0,0.0,0.0,0.0,0.0,0.0,0.0,0.0,0.0,0.0,0.0,0.0,0.0,0.0,0.0,0.0,0.0,0.0,0.0,0.0,0.0,0.0,0.0,0.0,0.0,0.0,0.0,0.0,0.0,0.0,0.0,0.0,0.0,0.0,0.0,0.0,0.0,0.0,0.0,0.0,0.0,0.0,0.0,0.0,0.0,0.0,0.0,0.0,0.0,0.0,0.0,0.0,0.0,0.0,0.0,0.0,0.0,0.0,0.0,0.0,0.0,0.0,0.0,0.0,0.0,0.0,0.0,0.0,0.0,0.0,0.0,0.0,0.0,0.0,0.0,0.0,-1.9391,-2.2543,-2.518,-2.6479,-2.6288,-2.239,-1.8658,0.0,0.0,0.0,0.0,0.0,0.0,0.0,0.0,0.0,0.0,0.0,0.0,0.0,0.0,0.0,0.0,0.0,0.0,0.0,0.0,0.0,0.0,0.0,0.0,0.0,0.0,0.0,0.0,0.0,0.0,0.0,0.0,0.0,0.0,0.0,0.0,0.0,0.0,0.0,0.0,0.0,0.0,0.0,0.0,0.0,0.0,0.0,0.0,0.0,0.0,0.0,0.0,0.0,0.0,0.0,0.0,0.0,0.0,0.0,0.0,0.0,0.0,0.0,0.0,0.0,0.0,0.0,0.0,0.0,0.0,0.0,0.0,0.0,0.0,0.0,0.0,0.0,0.0,0.0,0.0,0.0,0.0,0.0,0.0,0.0,0.0,0.0,0.0,0.0,0.0,0.0,0.0,0.0,0.0,0.0,0.0,0.0,0.0,0.0,0.0,0.0,0.0,0.0,0.0,0.0,0.0,0.0,0.0,-2.0556,-2.2581,-2.5772,-2.709,-2.6383,-2.2963,-1.9812,0.0,0.0,0.0,0.0,0.0,0.0,0.0,0.0,0.0,0.0,0.0,0.0,0.0,0.0,0.0,0.0,0.0,0.0,0.0,0.0,0.0,0.0,0.0,0.0,0.0,0.0,0.0,0.0,0.0,0.0,0.0,0.0,0.0,0.0,0.0,0.0,0.0,0.0,0.0,0.0,0.0,0.0,0.0,0.0,0.0,0.0,0.0,0.0,-0.3206,0.0,0.0,0.0,0.0,0.0,0.0,0.0,0.0,0.0,0.0,0.0,0.0,0.0,0.0,0.0,0.0,0.0,0.0,0.0,0.0,0.0,0.0,0.0,0.0,0.0,0.0,0.0,0.0,0.0,0.0,0.0,0.0,0.0,0.0,0.0,0.0,0.0,0.0,0.0,0.0,0.0,0.0,0.0,0.0,0.0,0.0,0.0,0.0,0.0,0.0,0.0,0.0,0.0,0.0,0.0,0.0,0.0,0.0,0.0,-2.1492,-2.432,-2.6937,-2.7854,-2.6981,-2.4916,-2.1817,0.0,0.0,0.0,0.0,0.0,0.0,0.0,0.0,0.0,0.0,0.0,0.0,0.0,0.0,0.0,0.0,0.0,0.0,0.0,0.0,0.0,0.0,0.0,0.0,0.0,0.0,0.0,0.0,0.0,0.0,0.0,0.0,0.0,0.0,0.0,0.0,0.0,0.0,0.0,0.0,0.0,0.0,0.0,0.0,0.0,0.0,0.0,0.0,0.0,0.0,0.0,0.0,0.0,0.0,0.0,0.0,0.0,0.0,0.0,0.0,0.0,0.0,0.0,0.0,0.0,0.0,0.0,0.0,0.0,0.0,0.0,0.0,0.0,0.0,0.0,0.0,0.0,0.0,0.0,0.0,0.0,0.0,0.0,0.0,0.0,0.0,0.0,0.0,0.0,0.0,0.0,0.0,0.0,0.0,0.0,0.0,0.0,0.0,0.0,0.0,0.0,0.0,0.0,0.0,0.0,0.0,0.0,-1.9181,-2.2352,-2.644,-2.8236,-2.8657,-2.7708,-2.6917,-2.3662,-1.7773,0.0,0.0,0.0,0.0,0.0,0.0,0.0,0.0,0.0,0.0,0.0,0.0,0.0,0.0,0.0,0.0,0.0,0.0,0.0,0.0,0.0,0.0,0.0,0.0,0.0,0.0,0.0,0.0,0.0,0.0,0.0,0.0,0.0,0.0,0.0,0.0,0.0,0.0,-0.6042,-0.6676,0.0,0.0,0.0,0.0,0.0,0.0,0.0,0.0,-0.5763,0.0,0.0,0.0,0.0,0.0,0.0,0.0,0.0,0.0,0.0,0.0,0.0,0.0,0.0,0.0,0.0,0.0,0.0,0.0,0.0,0.0,0.0,0.0,0.0,0.0,0.0,0.0,0.0,0.0,0.0,0.0,0.0,0.0,0.0,0.0,0.0,0.0,0.0,0.0,0.0,0.0,0.0,0.0,0.0,0.0,0.0,0.0,0.0,0.0,0.0,0.0,0.0,0.0,0.0,0.0,0.0,-1.9429,-2.0614,-2.3212,-2.7396,-2.9134,-2.9249,-2.7759,-2.6936,-2.3662,-1.7907,0.0,0.0,0.0,0.0,0.0,0.0,0.0,0.0,0.0,0.0,0.0,0.0,0.0,0.0,0.0,0.0,0.0,0.0,0.0,0.0,0.0,0.0,0.0,0.0,0.0,0.0,0.0,0.0,0.0,0.0,0.0,0.0,0.0,0.0,0.0,0.0,0.0,0.0,0.0,-0.7969,-0.8223,0.0,0.0,0.0,0.0,0.0,0.0,0.0,0.0,-0.4713,0.0,0.0,0.0,0.0,0.0,0.0,0.0,0.0,0.0,0.0,0.0,0.0,0.0,0.0,0.0,0.0,0.0,0.0,0.0,0.0,0.0,0.0,0.0,0.0,0.0,0.0,0.0,0.0,0.0,0.0,0.0,0.0,0.0,0.0,0.0,0.0,0.0,0.0,0.0,0.0,0.0,0.0,0.0,0.0,0.0,0.0,0.0,0.0,0.0,0.0,0.0,0.0,0.0,0.0,0.0,-1.8722,-2.1808,-2.479,-2.7625,-2.9325,-2.941,-2.779,-2.6087,-2.2785,0.0,0.0,0.0,0.0,0.0,0.0,0.0,0.0,0.0,0.0,0.0,0.0,0.0,0.0,0.0,0.0,0.0,0.0,0.0,0.0,0.0,0.0,0.0,0.0,0.0,0.0,0.0,0.0,0.0,0.0,0.0,0.0,0.0,0.0,0.0,0.0,0.0,0.0,0.0,0.0,-0.9121,-0.9556,-1.031,0.0,0.0,0.0,0.0,0.0,0.0,-0.6222,-0.5256,0.0,0.0,0.0,0.0,0.0,0.0,0.0,0.0,0.0,0.0,0.0,0.0,0.0,0.0,0.0,0.0,0.0,0.0,0.0,0.0,0.0,0.0,0.0,0.0,0.0,0.0,0.0,0.0,0.0,0.0,0.0,0.0,0.0,0.0,0.0,0.0,0.0,0.0,0.0,0.0,0.0,0.0,0.0,0.0,0.0,0.0,0.0,0.0,0.0,0.0,0.0,0.0,0.0,0.0,0.0,-1.7707,-2.2449,-2.5853,-2.7676,-2.9352,-2.9455,-2.7819,-2.5488,-2.2154,0.0,0.0,0.0,0.0,0.0,0.0,0.0,0.0,0.0,0.0,0.0,0.0,0.0,0.0,0.0,0.0,0.0,0.0,0.0,0.0,0.0,0.0,0.0,0.0,0.0,0.0,0.0,0.0,0.0,0.0,0.0,0.0,0.0,0.0,0.0,0.0,0.0,0.0,0.0,0.0,0.0,-1.0909,-1.1687,-1.0984,0.0,0.0,0.0,0.0,-0.8301,-0.7439,0.0,0.0,0.0,0.0,0.0,0.0,0.0,0.0,0.0,0.0,0.0,0.0,0.0,0.0,0.0,0.0,0.0,0.0,0.0,0.0,0.0,0.0,0.0,0.0,0.0,0.0,0.0,0.0,0.0,0.0,0.0,0.0,0.0,0.0,0.0,0.0,0.0,0.0,0.0,0.0,0.0,0.0,0.0,0.0,0.0,0.0,0.0,0.0,0.0,0.0,0.0,0.0,0.0,0.0,0.0,0.0,-1.7738,-2.1943,-2.5324,-2.7731,-2.9436,-2.9475,-2.7838,-2.6017,-2.2709,0.0,0.0,0.0,0.0,0.0,0.0,0.0,0.0,0.0,0.0,0.0,0.0,0.0,0.0,0.0,0.0,0.0,0.0,0.0,0.0,0.0,0.0,0.0,0.0,0.0,0.0,0.0,0.0,0.0,0.0,0.0,0.0,0.0,0.0,0.0,0.0,0.0,0.0,0.0,0.0,0.0,-1.2105,-1.2197,-1.1175,-1.0479,0.0,0.0,-0.9297,-1.0366,-0.9592,0.0,0.0,0.0,0.0,0.0,0.0,0.0,0.0,0.0,0.0,0.0,0.0,0.0,0.0,0.0,0.0,0.0,0.0,0.0,0.0,0.0,0.0,0.0,0.0,0.0,0.0,0.0,0.0,0.0,0.0,0.0,0.0,0.0,0.0,0.0,0.0,0.0,0.0,0.0,0.0,0.0,0.0,0.0,0.0,0.0,0.0,0.0,0.0,0.0,0.0,0.0,0.0,0.0,0.0,0.0,-1.6582,-1.7861,-2.3265,-2.6677,-2.7781,-2.8969,-2.9025,-2.7873,-2.4284,-2.0903,0.0,0.0,0.0,0.0,0.0,0.0,0.0,0.0,0.0,0.0,0.0,0.0,0.0,0.0,0.0,0.0,0.0,0.0,0.0,0.0,0.0,0.0,0.0,0.0,0.0,0.0,0.0,0.0,0.0,0.0,0.0,0.0,0.0,0.0,0.0,0.0,0.0,0.0,0.0,0.0,0.0,0.0,-1.3331,-1.2512,0.0,0.0,0.0,-0.9956,-1.0114,0.0,0.0,0.0,0.0,0.0,0.0,0.0,0.0,0.0,0.0,0.0,0.0,0.0,0.0,0.0,0.0,0.0,0.0,0.0,0.0,0.0,0.0,0.0,0.0,0.0,0.0,0.0,0.0,0.0,0.0,0.0,0.0,0.0,0.0,0.0,0.0,0.0,0.0,0.0,0.0,0.0,0.0,0.0,0.0,0.0,0.0,0.0,0.0,0.0,0.0,0.0,0.0,0.0,0.0,0.0,0.0,0.0,-1.7811,-2.4378,-2.7816,-2.7868,-2.8626,-2.8692,-2.7901,-2.3755,0.0,0.0,0.0,0.0,0.0,0.0,0.0,0.0,0.0,0.0,0.0,0.0,0.0,0.0,0.0,0.0,0.0,0.0,0.0,0.0,0.0,0.0,0.0,0.0,0.0,0.0,0.0,-0.7724,0.0,0.0,0.0,0.0,0.0,0.0,0.0,0.0,0.0,0.0,0.0,0.0,0.0,0.0,-1.3371,-1.4345,-1.3831,-1.334,0.0,0.0,-1.068,-1.0578,-1.0508,-0.9856,0.0,0.0,0.0,0.0,0.0,0.0,0.0,0.0,0.0,0.0,0.0,0.0,0.0,0.0,0.0,0.0,0.0,0.0,0.0,0.0,0.0,0.0,0.0,0.0,0.0,0.0,0.0,0.0,0.0,0.0,0.0,0.0,0.0,0.0,0.0,0.0,0.0,0.0,0.0,0.0,0.0,0.0,0.0,0.0,0.0,0.0,0.0,0.0,0.0,0.0,0.0,0.0,0.0,0.0,0.0,-1.7925,-2.4361,-2.7864,-2.8006,-2.8762,-2.8836,-2.8087,-2.6172,-2.2802,0.0,0.0,0.0,0.0,0.0,0.0,0.0,0.0,0.0,0.0,0.0,0.0,0.0,0.0,0.0,0.0,0.0,0.0,0.0,0.0,0.0,0.0,0.0,0.0,0.0,0.0,0.0,0.0,0.0,0.0,0.0,0.0,0.0,0.0,0.0,0.0,0.0,0.0,0.0,0.0,0.0,-1.4925,-1.4958,-1.4669,-1.4725,0.0,0.0,-1.1849,-1.3041,-1.2362,-1.109,-0.9439,0.0,0.0,0.0,0.0,0.0,0.0,0.0,0.0,0.0,0.0,0.0,0.0,0.0,0.0,0.0,0.0,0.0,0.0,0.0,0.0,0.0,0.0,0.0,0.0,0.0,0.0,0.0,0.0,0.0,0.0,0.0,0.0,0.0,0.0,0.0,0.0,0.0,0.0,0.0,0.0,0.0,0.0,0.0,0.0,0.0,0.0,0.0,0.0,0.0,0.0,0.0,0.0,0.0,-1.8299,-1.9411,-2.5062,-2.8008,-2.8066,-2.8349,-2.8404,-2.8174,-2.5454,-2.2304,0.0,0.0,0.0,0.0,0.0,0.0,0.0,0.0,0.0,0.0,0.0,0.0,0.0,0.0,0.0,0.0,0.0,0.0,0.0,0.0,0.0,0.0,0.0,0.0,0.0,0.0,0.0,0.0,-1.2528,-1.232,-1.1077,0.0,0.0,0.0,0.0,0.0,0.0,0.0,0.0,0.0,0.0,-1.558,-1.6339,-1.6118,0.0,0.0,-1.4445,-1.3389,-1.3284,-1.2444,-1.1288,-0.9784,-0.865,0.0,0.0,0.0,0.0,0.0,0.0,0.0,0.0,0.0,0.0,0.0,0.0,0.0,0.0,0.0,0.0,0.0,0.0,0.0,0.0,0.0,0.0,0.0,0.0,0.0,0.0,0.0,0.0,0.0,0.0,0.0,0.0,0.0,0.0,0.0,0.0,0.0,0.0,0.0,0.0,0.0,0.0,0.0,0.0,0.0,0.0,0.0,0.0,0.0,0.0,0.0,0.0,-1.8533,-2.0007,-2.5356,-2.823,-2.8526,-2.8487,-2.8412,-2.8166,-2.5601,-2.2877,0.0,0.0,0.0,0.0,0.0,0.0,0.0,0.0,0.0,0.0,0.0,0.0,0.0,0.0,0.0,0.0,0.0,0.0,0.0,0.0,0.0,0.0,0.0,0.0,0.0,0.0,0.0,0.0,-1.342,-1.2916,-1.1254,0.0,0.0,0.0,0.0,0.0,0.0,0.0,0.0,0.0,0.0,-1.6769,-1.7526,-1.706,-1.6428,-1.585,-1.4824,-1.3946,-1.3358,-1.2643,-1.1769,-1.0532,0.0,0.0,0.0,0.0,0.0,0.0,0.0,0.0,0.0,0.0,0.0,0.0,0.0,0.0,0.0,0.0,0.0,0.0,0.0,0.0,0.0,0.0,0.0,0.0,0.0,0.0,0.0,-1.0312,0.0,0.0,-1.0212,0.0,0.0,0.0,0.0,0.0,0.0,0.0,0.0,0.0,0.0,0.0,0.0,0.0,0.0,0.0,0.0,0.0,0.0,0.0,0.0,0.0,0.0,-1.8266,-1.9236,-2.511,-2.8552,-2.9409,-2.9401,-2.9028,-2.834,-2.7386,-2.5273,-2.1789,0.0,0.0,0.0,0.0,0.0,0.0,0.0,0.0,0.0,0.0,0.0,0.0,0.0,0.0,0.0,0.0,0.0,0.0,0.0,0.0,0.0,0.0,0.0,0.0,0.0,0.0,-0.9284,-1.0463,-1.1503,0.0,0.0,0.0,0.0,0.0,0.0,0.0,0.0,0.0,0.0,-1.8369,-1.8852,-1.8363,-1.74,-1.6585,-1.591,-1.4358,-1.3336,-1.3648,-1.3295,-1.2733,0.0,0.0,0.0,0.0,0.0,0.0,0.0,0.0,0.0,0.0,0.0,0.0,0.0,0.0,0.0,0.0,0.0,0.0,0.0,0.0,0.0,0.0,0.0,0.0,0.0,0.0,0.0,-1.3904,-1.2868,0.0,0.0,0.0,0.0,0.0,0.0,0.0,0.0,0.0,0.0,0.0,-2.0525,-2.1385,0.0,0.0,0.0,0.0,0.0,0.0,0.0,0.0,0.0,0.0,0.0,0.0,-1.94,-2.2371,-2.624,-2.8668,-2.9523,-2.9539,-2.9425,-2.9162,-2.7756,-2.5354,-2.1906,0.0,0.0,0.0,0.0,0.0,0.0,0.0,0.0,0.0,0.0,0.0,0.0,0.0,0.0,0.0,0.0,0.0,0.0,0.0,0.0,0.0,0.0,0.0,0.0,0.0,-1.1955,0.0,0.0,0.0,0.0,0.0,0.0,0.0,0.0,0.0,0.0,0.0,-1.7248,-1.8506,-1.8934,-1.9287,-1.9766,-1.9501,-1.9223,0.0,0.0,0.0,0.0,0.0,0.0,0.0,0.0,0.0,0.0,0.0,0.0,0.0,0.0,-0.6263,-0.3578,-0.2725,-0.2141,-0.1297,0.0,0.0,0.0,0.0,0.0,0.0,0.0,0.0,0.0,0.0,0.0,0.0,0.0,0.0,-1.7398,0.0,-1.6018,0.0,0.0,0.0,0.0,0.0,0.0,0.0,0.0,-2.219,-2.3771,-2.4061,-2.4897,-2.4862,0.0,-2.3748,-2.1126,0.0,0.0,0.0,0.0,0.0,0.0,0.0,0.0,-2.046,-2.3664,-2.703,-2.9162,-2.9962,-3.0021,-2.9884,-2.9591,-2.7915,-2.5939,-2.3669,-2.1343,-1.9075,0.0,0.0,0.0,0.0,0.0,0.0,0.0,0.0,0.0,0.0,0.0,0.0,0.0,0.0,0.0,0.0,0.0,0.0,0.0,0.0,0.0,0.0,0.0,-1.2749,0.0,0.0,0.0,0.0,0.0,0.0,0.0,0.0,0.0,-1.7638,-1.8631,-1.9708,-2.0862,-2.0855,-2.0769,-2.1027,0.0,0.0,0.0,0.0,0.0,0.0,0.0,-1.5215,-1.444,-1.3543,-1.269,-1.1989,-1.1115,-1.003,-0.8703,0.0,0.0,-0.5096,-0.4088,-0.3317,-0.2382,-0.1521,-0.0778,-0.0359,0.0124,0.1143,0.0,0.0,0.0,0.0,0.0,0.0,0.0,0.0,-2.071,-2.0682,0.0,-1.972,0.0,0.0,0.0,0.0,0.0,-2.1416,0.0,0.0,-2.7368,-2.9012,-2.8215,-2.7466,-2.7512,-2.8196,-2.7461,-2.5761,-2.3192,-2.0778,0.0,0.0,0.0,0.0,0.0,0.0,-2.1457,-2.3352,-2.7442,-2.9984,-3.0745,-3.0782,-3.0411,-2.9591,-2.7993,-2.7054,-2.6859,-2.3747,-2.1906,-2.1711,-1.6276,0.0,0.0,0.0,0.0,0.0,0.0,0.0,0.0,0.0,0.0,0.0,0.0,0.0,0.0,0.0,0.0,0.0,0.0,0.0,0.0,-1.2789,0.0,0.0,0.0,0.0,0.0,0.0,0.0,0.0,0.0,0.0,-2.0323,-2.1456,-2.2865,-2.4121,0.0,0.0,0.0,0.0,-2.0553,-1.8965,-1.8147,-1.7618,-1.6962,-1.7519,-1.7767,-1.6779,0.0,0.0,-1.4196,-1.2703,-1.1435,-1.0219,-0.9771,-0.9021,-0.723,-0.6036,-0.4912,-0.3851,-0.2809,-0.1933,-0.1441,-0.0945,0.0146,-2.5808,0.0,0.0,0.0,0.0,-2.2736,-2.3703,-2.506,-2.5083,-2.439,-2.3263,-2.301,0.0,0.0,0.0,0.0,0.0,0.0,-2.4089,-2.5859,-2.7733,-2.9102,-3.0037,-2.9812,-2.9843,-3.0038,-2.9818,-2.9,-2.7668,-2.6909,-2.3065,-1.6424,0.0,0.0,0.0,0.0,-2.3515,-2.5879,-2.83,-2.994,-3.0781,-3.0793,-3.0411,-2.9611,-2.9125,-2.8266,-2.7034,-2.6019,-2.4376,-2.1954,-2.0215,0.0,0.0,0.0,0.0,0.0,0.0,0.0,0.0,0.0,0.0,0.0,0.0,0.0,0.0,0.0,0.0,0.0,0.0,0.0,-1.3756,-1.527,-1.5829,0.0,0.0,0.0,0.0,0.0,0.0,0.0,0.0,0.0,-2.4808,-2.414,-2.36,0.0,0.0,-2.2626,-2.2346,-2.2979,-2.3416,-2.3192,-2.3053,0.0,-2.2046,-2.108,-2.024,-1.9736,-1.911,-1.8065,-1.618,-1.5246,-1.4205,-1.2614,-1.1624,-1.0551,-0.9361,-0.8044,-0.6548,-0.4902,-0.3969,-0.3168,-0.2042,-0.0399,0.137,-3.0201,-2.6982,-2.6672,-2.6815,-2.7319,-2.8022,-2.8923,-2.992,-2.9899,-2.9182,-2.794,-2.7608,-2.6205,-2.4043,-2.3341,0.0,0.0,0.0,-2.7355,-2.9479,-2.9654,-3.0297,-3.1252,-3.0962,-3.0794,-3.0798,-3.0801,-3.0513,-3.0013,-2.9665,-2.6542,-2.0944,0.0,0.0,-2.0588,-2.322,-2.5542,-2.742,-2.9113,-3.0248,-3.0792,-3.0801,-3.0563,-3.0095,-2.9743,-2.9061,-2.8026,-2.734,-2.6048,-2.3998,-2.2626,-2.024,0.0,0.0,0.0,0.0,0.0,0.0,0.0,0.0,0.0,0.0,0.0,-1.019,-0.9506,0.0,0.0,0.0,-1.5729,-1.6431,-1.7059,-1.8079,0.0,0.0,0.0,0.0,0.0,0.0,0.0,-2.3024,-2.4892,-2.6595,-2.7989,-2.7439,-2.6695,-2.6127,-2.5505,-2.5131,-2.5185,0.0,-2.6284,-2.6061,-2.5785,-2.5273,-2.4399,-2.3436,-2.2616,-2.1858,-2.0492,-1.9253,-1.8068,-1.7133,-1.5996,-1.4518,-1.3085,-1.1864,-1.0885,-0.9596,-0.8031,-0.5782,-0.4772,-0.3833,-0.2446,-0.0513,0.1464,-3.3274,-3.3197,-3.2532,-3.2106,-3.2068,-3.3635,-3.4322,-3.4404,-3.4451,-3.4127,-3.3448,-3.2708,-3.152,-2.9903,-2.8266,0.0,-3.1096,-3.1037,-3.1817,-3.3361,-3.2562,-3.2211,-3.2153,-3.1388,-3.0979,-3.0901,-3.0891,-3.0852,-3.074,-2.9967,-2.8727,-2.7098,-2.6279,-2.5394,-2.4561,-2.6131,-2.7402,-2.8225,-2.978,-3.0671,-3.0801,-3.0792,-3.0796,-3.0778,-2.9955,-2.9467,-2.935,-2.7851,-2.6953,-2.6797,-2.3881,-2.2117,-2.1725,0.0,0.0,0.0,0.0,0.0,0.0,0.0,0.0,0.0,0.0,0.0,0.0,0.0,0.0,0.0,-1.9814,0.0,-2.1789,-2.1096,0.0,0.0,0.0,-2.0143,-2.2438,-2.3975,-2.5382,-2.6801,0.0,0.0,-3.0208,-3.0894,-3.1133,-3.0615,-2.9879,-2.9393,-2.9348,-2.92,-2.897,-2.7861,-2.7083,-2.6236,-2.5384,-2.5141,-2.4595,-2.327,-2.1662,-2.0493,-1.9813,-1.843,-1.7041,-1.6008,-1.4378,-1.2808,-1.198,-1.0833,-0.9356,-0.6744,-0.536,-0.41,-0.2486,-0.116,0.107,-3.4773,-3.4812,-3.5301,-3.4436,-3.2861,-3.3277,-3.3498,-3.3555,-3.4221,-3.44,-3.428,-3.4707,-3.469,-3.4251,-3.3219,-3.312,-3.3668,-3.3064,-3.3005,-3.338,-3.32,-3.3083,-3.3069,-3.2888,-3.244,-3.1817,-3.1729,-3.1368,-3.0728,-3.0458,-2.977,-2.878,-2.8531,-2.7382,-2.5438,-2.7026,-2.8325,-2.9148,-2.9581,-3.0116,-3.0774,-3.0786,-3.0786,-3.0797,-2.9957,-2.9215,-2.8609,-2.7576,-2.6698,-2.6034,-2.5234,-2.3904,-2.1893,-1.8627,0.0,0.0,0.0,0.0,0.0,0.0,0.0,0.0,0.0,-1.4852,-1.1834,0.0,-1.7428,0.0,-2.2716,-2.4569,-2.3886,-2.3611,0.0,0.0,-2.3996,-2.4602,-2.6814,-2.7926,-2.8665,-2.9025,-3.044,-3.1595,-3.2094,-3.2809,-3.3543,-3.4142,-3.2001,-3.0162,-2.9605,-3.0196,-3.0467,-2.973,-2.9704,-2.9609,-2.851,-2.7424,-2.6123,-2.4542,-2.367,-2.2805,-2.1712,-2.0101,-1.861,-1.7489,-1.5853,-1.4105,-1.2431,-1.1655,-1.0336,-0.7945,-0.6361,-0.4691,-0.241,-0.0537,0.17,-3.5315,-3.5354,-3.5814,-3.5062,-3.3627,-3.4809,-3.5164,-3.4952,-3.5397,-3.5415,-3.5103,-3.5577,-3.5807,-3.5791,-3.5753,-3.5721,-3.5691,-3.5606,-3.5567,-3.5548,-3.4808,-3.4458,-3.4439,-3.366,-3.3063,-3.259,-3.2551,-3.2292,-3.1819,-3.1755,-3.1332,-3.0517,-3.0477,-2.9396,-2.7354,-2.7815,-2.8372,-2.8871,-2.9224,-2.9849,-3.0712,-3.0763,-3.0579,-3.0228,-2.9762,-2.8923,-2.7713,-2.688,-2.585,-2.462,-2.4179,-2.33,-2.1835,-1.9389,-1.7549,0.0,0.0,0.0,0.0,0.0,0.0,0.0,0.0,0.0,0.0,0.0,-1.9694,-2.0585,-2.4626,-2.6597,-2.5246,-2.5772,-2.6544,-2.7472,-2.7558,-2.8342,-3.0259,-3.0881,-3.1378,-3.1983,-3.2829,-3.3724,-3.4564,-3.5078,-3.5576,-3.6346,-3.4753,-3.3226,-3.2431,-3.2447,-3.2262,-3.168,-3.1555,-3.1115,-2.9974,-2.8419,-2.6969,-2.5906,-2.4898,-2.3818,-2.2798,-2.1104,-1.9474,-1.8523,-1.6748,-1.4789,-1.3105,-1.2169,-1.0961,-0.9061,-0.7474,-0.5692,-0.3296,-0.1161,0.0806,-3.556,-3.556,-3.556,-3.5174,-3.4726,-3.6993,-3.7398,-3.6492,-3.6609,-3.6367,-3.5937,-3.6045,-3.6112,-3.6151,-3.68,-3.7092,-3.7159,-3.781,-3.816,-3.8063,-3.6742,-3.6073,-3.5899,-3.4412,-3.3577,-3.3375,-3.3355,-3.3297,-3.32,-3.3192,-3.2784,-3.2008,-3.182,-3.0912,-2.933,-2.8418,-2.805,-2.8109,-2.8912,-2.971,-3.0522,-3.0438,-3.0053,-2.9377,-2.9124,-2.8305,-2.6809,-2.5957,-2.4837,-2.3359,-2.2654,-2.2304,-2.2245,-1.988,-1.888,0.0,-1.6612,0.0,0.0,0.0,0.0,0.0,0.0,0.0,0.0,-2.1863,-2.2019,-2.2133,-2.6147,-2.8212,-2.6874,-2.8009,-2.9364,-3.0587,-3.0746,-3.1372,-3.2878,-3.3099,-3.3615,-3.4962,-3.519,-3.5754,-3.6757,-3.7112,-3.7301,-3.746,-3.7111,-3.6427,-3.5891,-3.4825,-3.3955,-3.3443,-3.2625,-3.148,-3.0194,-2.8779,-2.7591,-2.6883,-2.573,-2.4409,-2.3548,-2.1876,-2.0275,-1.9177,-1.7488,-1.5523,-1.3769,-1.2668,-1.1483,-1.0043,-0.854,-0.6669,-0.4366,-0.2781,-0.0903,-3.6996,-3.6977,-3.6977,-3.6976,-3.699,-3.7483,-3.6174,-3.3809,-3.4426,-3.5477,-3.6742,-3.7439,-3.7771,-3.7793,-3.725,-3.7036,-3.71,-3.7256,-3.7333,-3.7333,-3.7674,-3.748,-3.6848,-3.6537,-3.5616,-3.4315,-3.4262,-3.3895,-3.3197,-3.3132,-3.2668,-3.1835,-3.1177,-3.0315,-2.9314,0.0,0.0,0.0,-2.8994,-2.9557,-2.9699,-2.903,-2.8598,-2.8422,-2.7065,0.0,-2.5913,-2.5102,-2.4498,-2.419,-2.4664,0.0,0.0,0.0,0.0,0.0,0.0,0.0,0.0,0.0,0.0,0.0,-2.1808,-2.1848,-2.2588,-2.3827,-2.5149,-2.6564,-2.8739,-3.0445,-3.1331,-3.1622,-3.2011,-3.2601,-3.2635,-3.317,-3.4522,-3.4744,-3.5124,-3.6058,-3.6759,-3.7153,-3.7264,-3.7796,-3.815,-3.8029,-3.7632,-3.719,-3.6878,-3.5864,-3.4975,-3.435,-3.3011,-3.1715,-3.0808,-2.9814,-2.8601,-2.73,-2.6718,-2.5824,-2.4299,-2.2999,-2.1542,-2.011,-1.8691,-1.6993,-1.4859,-1.3685,-1.2504,-1.117,-0.9235,-0.7027,-0.4723,-0.3985,-0.265,-3.739,-3.739,-3.739,-3.7223,0.0,-3.6901,-3.581,-3.4127,-3.5432,-3.6488,-3.7376,-3.78,-3.804,-3.8028,-3.7585,-3.7443,-3.7514,-3.7065,-3.7378,-3.8248,-3.7779,-3.7596,-3.7627,-3.7201,-3.6348,-3.5107,-3.5078,-3.4835,-3.4348,-3.4378,-3.3903,-3.2979,-3.2627,-3.2039,-3.1187,-3.0317,-2.9502,-2.871,-2.9159,-2.9601,-3.0003,-2.9602,-2.9195,-2.8791,-2.7979,0.0,0.0,0.0,0.0,0.0,0.0,0.0,0.0,0.0,0.0,-2.4275,-2.3182,-2.2831,-2.363,-2.3675,-2.4391,-2.6069,-2.6568,-2.6411,-2.5488,-2.7439,-2.9168,-3.0337,-3.1978,-3.3419,-3.4518,-3.4635,-3.4808,-3.5208,-3.5237,-3.5484,-3.6024,-3.6137,-3.6447,-3.7087,-3.7598,-3.7877,-3.8077,-3.8394,-3.8578,-3.8365,-3.802,-3.7667,-3.7431,-3.6539,-3.5537,-3.4719,-3.3298,-3.2083,-3.1462,-3.0513,-2.9478,-2.8141,-2.7324,-2.6377,-2.5146,-2.3649,-2.2221,-2.1028,-1.9552,-1.7721,-1.607,-1.4761,-1.3341,-1.1284,-1.0,-0.8432,-0.6048,-0.432,-0.2544,-3.7845,-3.7826,-3.7845,-3.7447,-3.686,-3.686,-3.6502,-3.6024,0.0,0.0,0.0,-3.7737,-3.7814,-3.7814,-3.7811,-3.7855,-3.7926,-3.7314,-3.7829,-3.9116,-3.7822,-3.7456,-3.788,-3.7185,-3.6431,-3.5659,-3.5639,-3.5584,-3.5489,-3.5584,-3.5225,-3.4456,-3.4357,-3.3823,-3.2868,-3.2154,-3.1062,-2.9611,-2.9369,-2.9657,-3.033,-3.0233,-2.985,-2.9195,-2.9059,-2.8357,-2.6962,-2.6889,-2.6279,-2.4939,-2.4992,-2.5077,-2.508,-2.5071,-2.5451,-2.6296,-2.6374,-2.6747,-2.7592,-2.7615,-2.8259,-2.9848,-3.0569,-3.0295,-2.883,-3.106,-3.2803,-3.342,-3.5174,-3.643,-3.691,-3.6954,-3.7094,-3.745,-3.7471,-3.7394,-3.7367,-3.7378,-3.7606,-3.814,-3.8294,-3.8447,-3.8832,-3.8923,-3.8862,-3.8601,-3.8368,-3.8153,-3.7792,-3.6956,-3.5916,-3.4908,-3.3735,-3.2687,-3.2139,-3.1202,-3.009,-2.9136,-2.8025,-2.6921,-2.566,-2.4146,-2.2818,-2.1866,-2.0012,-1.8346,-1.7033,-1.5666,-1.3917,-1.1423,-1.094,-1.0274,-0.7731,-0.5166,-0.2959,-3.9529,-3.957,-3.957,-3.9475,-3.938,-3.9378,-3.9323,-3.9081,-3.7446,-3.6703,-3.6741,-3.7469,-3.7814,-3.7814,-3.7814,-3.7811,-3.7865,-3.8463,-3.8495,-3.8086,-3.8546,-3.8086,-3.6848,-3.6695,-3.62,-3.5398,-3.536,-3.5326,-3.5345,-3.536,-3.5288,-3.5062,-3.4424,-3.3365,-3.2008,-3.1834,-3.1352,-3.0443,-2.9685,-2.9353,-2.9469,-2.8819,-2.8395,-2.8256,-2.7627,-2.7116,-2.6923,-2.6928,-2.6783,-2.6572,-2.7258,-2.7671,-2.7651,-2.7655,-2.8057,-2.8879,-2.8959,-2.9342,-3.0175,-3.0253,-3.065,-3.1538,-3.1748,-3.1701,-3.1518,-3.2909,-3.4259,-3.5366,-3.7326,-3.8491,-3.8078,-3.7982,-3.7945,-3.7896,-3.7801,-3.7919,-3.8401,-3.8474,-3.8672,-3.9245,-3.9383,-3.9246,-3.9189,-3.9171,-3.9072,-3.8848,-3.8601,-3.8267,-3.7721,-3.7091,-3.635,-3.5402,-3.4381,-3.3657,-3.3072,-3.2023,-3.0866,-2.9992,-2.9073,-2.7776,-2.6008,-2.504,-2.3868,-2.1962,-2.0653,-1.9335,-1.8043,-1.6265,-1.5075,-1.4135,-1.282,-1.0971,-0.9533,-0.8212,-0.6343,-3.9889,-3.9889,-3.9889,-3.9889,-3.9889,-3.9889,-3.9889,-3.9816,-3.8802,-3.8347,-3.8385,-3.8747,-3.8956,-3.8918,-3.848,-3.8327,-3.8362,-3.7811,-3.7885,-3.8443,-3.7915,-3.751,-3.7233,-3.6788,-3.6136,-3.5354,-3.5315,-3.527,-3.5203,-3.5251,-3.527,-3.5184,-3.4868,-3.4122,-3.3031,-3.2987,-3.2613,-3.1841,-3.0646,-3.0006,-2.9986,-2.9657,-2.9453,-2.9458,-2.9051,-2.8892,-2.889,-2.8948,-2.8957,-2.8968,-2.9372,-2.9615,-2.9611,-2.9611,-2.9795,-3.0182,-3.0201,-3.0368,-3.0777,-3.1245,-3.1656,-3.1971,-3.2445,-3.312,-3.4012,-3.407,-3.4983,-3.6984,-3.846,-3.9344,-3.9616,-3.9635,-3.9549,-3.9372,-3.9331,-3.9381,-3.947,-3.9509,-3.9623,-3.988,-3.9845,-3.9727,-3.9583,-3.9483,-3.932,-3.9108,-3.8756,-3.8332,-3.7862,-3.7468,-3.6935,-3.6114,-3.5136,-3.4348,-3.3742,-3.2647,-3.1489,-3.0389,-2.9407,-2.8325,-2.6909,-2.6032,-2.4838,-2.3599,-2.2092,-2.0653,-1.9256,-1.7738,-1.6484,-1.5027,-1.3672,-1.2003,-1.0906,-0.9625,-0.7228,-3.9889,-3.9889,-3.9889,-3.9889,-3.9889,-3.9889,-3.9889,-3.9889,-3.987,-3.9889,-3.9889,-3.9889,-3.9889,-3.9813,-3.9248,-3.9026,-3.8917,-3.7697,-3.7757,-3.8763,-3.7583,-3.7201,-3.7575,-3.6884,-3.6138,-3.5529,-3.5318,-3.5155,-3.507,-3.5155,-3.5136,-3.507,-3.5187,-3.4829,-3.3972,-3.3983,-3.3618,-3.2852,-3.1711,-3.1003,-3.0868,-3.0714,-3.0598,-3.0598,-3.0585,-3.061,-3.0626,-3.0672,-3.0703,-3.0734,-3.0769,-3.0799,-3.0799,-3.0799,-3.0799,-3.0799,-3.0799,-3.0882,-3.112,-3.1923,-3.246,-3.2589,-3.3204,-3.4404,-3.6032,-3.5574,-3.6032,-3.8305,-3.9237,-3.9975,-4.0635,-4.0849,-4.0849,-4.0687,-4.0674,-4.05,-4.0293,-4.0243,-4.0227,-4.0195,-4.002,-3.9879,-3.9863,-3.9733,-3.9477,-3.92,-3.8859,-3.8486,-3.8013,-3.7739,-3.7411,-3.6655,-3.5769,-3.4888,-3.4137,-3.3124,-3.2018,-3.0713,-2.9831,-2.8853,-2.7868,-2.665,-2.5627,-2.4755,-2.3283,-2.178,-2.042,-1.8939,-1.7407,-1.5869,-1.4357,-1.2923,-1.1397,-1.012,-0.7933,-3.9889,-3.9889,-3.9889,-3.9889,-3.9889,-3.9889,-3.9889,-3.9889,-3.9889,-3.9889,-3.9889,-3.9889,-3.9889,-3.9889,-3.9797,-3.974,-3.9762,-3.9627,-3.925,-3.8798,-3.8569,-3.8133,-3.7451,-3.6634,-3.6217,-3.6008,-3.5344,-3.5002,-3.4945,-3.4945,-3.4945,-3.4945,-3.5053,-3.4702,-3.3958,-3.3976,-3.3614,-3.2828,-3.267,-3.2314,-3.169,-3.0965,-3.0617,-3.0617,-3.0604,-3.0626,-3.0664,-3.0704,-3.0734,-3.0774,-3.0799,-3.0799,-3.0799,-3.0799,-3.0799,-3.0799,-3.0818,-3.112,-3.1948,-3.2771,-3.3604,-3.4277,-3.4434,-3.5537,-3.7779,-3.7996,-3.8382,-3.947,-4.0266,-4.0733,-4.0888,-4.0888,-4.0878,-4.0859,-4.0859,-4.0768,-4.0538,-4.0463,-4.0408,-4.0213,-4.008,-3.9883,-3.9892,-3.9739,-3.9508,-3.9279,-3.9146,-3.8807,-3.8147,-3.7911,-3.765,-3.6978,-3.6086,-3.5318,-3.461,-3.363,-3.2547,-3.1499,-3.064,-2.9594,-2.8285,-2.7445,-2.6569,-2.531,-2.37,-2.251,-2.1237,-1.9709,-1.806,-1.6732,-1.5335,-1.3776,-1.174,-1.0544,-0.9048,-3.9889,-3.9889,-3.9889,-3.9889,-3.9889,-3.9889,-3.9889,-3.9889,-3.9889,-3.9889,-3.9889,-3.9889,-3.9889,-3.9889,-3.9889,-3.9889,-3.9889,-3.9889,-3.9719,-3.9361,-3.8925,-3.8509,-3.8111,-3.7296,-3.667,-3.6215,-3.5817,-3.5401,-3.4984,-3.4908,-3.4908,-3.4908,-3.4964,-3.4793,-3.4488,-3.4522,-3.4401,-3.414,-3.3646,-3.3298,-3.2987,-3.1892,-3.1251,-3.1204,-3.084,-3.0613,-3.0634,-3.0697,-3.071,-3.0739,-3.0794,-3.0799,-3.0799,-3.0799,-3.0799,-3.0857,-3.1778,-3.2504,-3.2859,-3.4111,-3.4784,-3.4644,-3.5564,-3.6834,-3.8261,-3.8422,-3.8971,-4.0249,-4.0749,-4.0888,-4.0888,-4.0888,-4.0888,-4.0888,-4.0888,-4.0859,-4.0754,-4.0699,-4.0649,-4.054,-4.0389,-4.0196,-4.0053,-3.9788,-3.9577,-3.9432,-3.9309,-3.898,-3.848,-3.8129,-3.7738,-3.7303,-3.6606,-3.5891,-3.5207,-3.423,-3.3175,-3.2155,-3.1043,-2.9813,-2.9142,-2.8065,-2.7204,-2.6146,-2.4933,-2.3616,-2.2414,-2.1083,-1.9549,-1.801,-1.5921,-1.4112,-1.2339,-1.1311,-1.0193,-3.9889,-3.9889,-3.9889,-3.9889,-3.9889,-3.9889,-3.9889,-3.9889,-3.9889,-3.9889,-3.9889,-3.9889,-3.9889,-3.9889,-3.9889,-3.9889,-3.9889,-3.9889,-3.9889,-3.9854,-3.9286,-3.902,-3.8944,-3.8148,-3.7447,-3.6898,-3.6405,-3.5742,-3.5003,-3.4908,-3.4908,-3.4908,-3.4908,-3.4908,-3.4908,-3.4908,-3.4964,-3.4978,-3.4388,-3.4154,-3.4044,-3.2957,-3.2193,-3.2004,-3.1523,-3.1274,-3.1324,-3.1382,-3.1288,-3.1104,-3.1359,-3.1408,-3.1174,-3.1388,-3.1602,-3.1973,-3.3473,-3.4447,-3.4447,-3.5646,-3.6181,-3.5825,-3.6788,-3.7772,-3.8604,-3.874,-3.9374,-4.0713,-4.096,-4.0932,-4.0888,-4.0888,-4.0888,-4.0888,-4.0888,-4.0898,-4.0888,-4.0848,-4.0796,-4.0788,-4.0579,-4.0389,-4.0139,-3.986,-3.9677,-3.9571,-3.9432,-3.9165,-3.8799,-3.8323,-3.7911,-3.7524,-3.6991,-3.64,-3.5742,-3.4789,-3.377,-3.2773,-3.1562,-3.0615,-2.9979,-2.8853,-2.7815,-2.6883,-2.5938,-2.485,-2.3537,-2.2244,-2.0675,-1.8779,-1.6746,-1.4956,-1.3516,-1.2504,-1.1649,-3.9889,-3.9927,-3.9908,-3.9946,-3.9889,-3.9889,-3.9889,-3.9889,-3.9889,-3.9889,-3.9889,-3.9889,-3.9889,-3.9889,-3.9889,-3.9889,-3.9889,-3.9889,-3.9889,-3.9889,-3.9813,-3.9813,-3.9775,-3.9039,-3.8584,-3.8262,-3.7049,-3.5893,-3.5022,-3.4946,-3.4908,-3.4908,-3.4908,-3.4908,-3.4908,-3.4908,-3.4908,-3.4908,-3.4813,-3.4813,-3.4737,-3.4065,-3.3402,-3.2949,-3.2833,-3.2832,-3.2978,-3.3109,-3.281,-3.2051,-3.2732,-3.2849,-3.2226,-3.2835,-3.3609,-3.4447,-3.5986,-3.6941,-3.6902,-3.7233,-3.76,-3.8034,-3.7851,-3.828,-3.9453,-3.9509,-3.9902,-4.0915,-4.1003,-4.0968,-4.0915,-4.0897,-4.0888,-4.0888,-4.0888,-4.0898,-4.0888,-4.0848,-4.0815,-4.0769,-4.0602,-4.037,-4.0,-3.9901,-3.9776,-3.9658,-3.9577,-3.9388,-3.8933,-3.8511,-3.8096,-3.7632,-3.7208,-3.6776,-3.6139,-3.5321,-3.4284,-3.3328,-3.2439,-3.1347,-3.036,-2.9456,-2.8542,-2.763,-2.6557,-2.5487,-2.4418,-2.2961,-2.1145,-1.9461,-1.7963,-1.6319,-1.4949,-1.4266,-1.3334,-4.1503,-4.1442,-4.0953,-4.0745,-4.0669,-4.0157,-3.9889,-3.9889,-3.9889,-3.9889,-3.9889,-3.9889,-3.9889,-3.9889,-3.9889,-3.9889,-3.9889,-3.9889,-3.9889,-3.9889,-3.9889,-3.9889,-3.9851,-3.9608,-3.9153,-3.8641,-3.8073,-3.7049,-3.5836,-3.5723,-3.5438,-3.4965,-3.4908,-3.4908,-3.4908,-3.4908,-3.4908,-3.4908,-3.4908,-3.4908,-3.4927,-3.4623,-3.4425,-3.4263,-3.3369,-3.2945,-3.314,-3.3158,-3.3087,-3.2927,-3.3239,-3.3492,-3.3765,-3.4506,-3.5382,-3.6181,-3.6844,-3.7194,-3.7272,-3.7818,-3.8024,-3.7747,-3.8575,-3.9217,-3.9764,-4.0216,-4.0674,-4.0976,-4.1064,-4.1035,-4.0974,-4.0924,-4.0888,-4.0888,-4.0888,-4.0907,-4.0888,-4.0839,-4.0807,-4.0784,-4.0623,-4.0385,-4.0158,-3.9993,-3.9833,-3.9658,-3.962,-3.9458,-3.921,-3.8865,-3.8436,-3.7964,-3.7559,-3.7167,-3.6753,-3.601,-3.5088,-3.4137,-3.3208,-3.2023,-3.0954,-3.0072,-2.9192,-2.839,-2.7311,-2.6258,-2.5207,-2.3367,-2.1625,-2.0391,-1.8868,-1.7554,-1.646,-1.544,-1.4518,-4.2393,-4.228,-4.1541,-4.1219,-4.1105,-4.0268,-3.9889,-3.9889,-3.9889,-3.9889,-3.9889,-3.9889,-3.9889,-3.9889,-3.9889,-3.9889,-3.9889,-3.9889,-3.9889,-3.9889,-3.9889,-3.9889,-3.9889,-3.9889,-3.9608,-3.9096,-3.8774,-3.794,-3.6727,-3.6576,-3.614,-3.5382,-3.5552,-3.5552,-3.5401,-3.5552,-3.5704,-3.5723,-3.5704,-3.5628,-3.5382,-3.5325,-3.5344,-3.5302,-3.4418,-3.3887,-3.3886,-3.3887,-3.3835,-3.3874,-3.4286,-3.4876,-3.5441,-3.6259,-3.6863,-3.7175,-3.7467,-3.7759,-3.8052,-3.85,-3.8681,-3.8541,-3.9472,-4.0223,-4.027,-4.0773,-4.106,-4.111,-4.1113,-4.1084,-4.1031,-4.0968,-4.0913,-4.0897,-4.0888,-4.0888,-4.0888,-4.0839,-4.0807,-4.0773,-4.068,-4.0511,-4.0321,-4.01,-3.9929,-3.9717,-3.9631,-3.9552,-3.9399,-3.9073,-3.87,-3.8314,-3.7773,-3.7432,-3.7235,-3.6811,-3.6041,-3.5148,-3.4052,-3.2833,-3.1743,-3.0808,-2.9903,-2.9058,-2.8158,-2.7114,-2.5693,-2.3835,-2.2468,-2.1361,-1.9792,-1.8407,-1.7423,-1.6453,-1.5606,-4.245,-4.2431,-4.1598,-4.1351,-4.12,-4.04,-3.9927,-3.9889,-3.9889,-3.9889,-3.9889,-3.9889,-3.9889,-3.9889,-3.9889,-3.9889,-3.9889,-3.9889,-3.9889,-3.9889,-3.9889,-3.9889,-3.9889,-3.9889,-3.987,-3.9738,-3.9096,-3.83,-3.7447,-3.739,-3.6992,-3.6462,-3.6841,-3.6765,-3.6215,-3.6822,-3.7239,-3.7182,-3.7125,-3.6879,-3.631,-3.6196,-3.6216,-3.6216,-3.6084,-3.5844,-3.5507,-3.5538,-3.5282,-3.4989,-3.6099,-3.7097,-3.7058,-3.7818,-3.8052,-3.7545,-3.8013,-3.8831,-3.9474,-3.9376,-3.9733,-4.0315,-4.0935,-4.0964,-4.0953,-4.1042,-4.1111,-4.1116,-4.111,-4.1094,-4.1092,-4.1046,-4.0974,-4.0915,-4.0917,-4.0907,-4.0878,-4.0839,-4.0804,-4.0796,-4.0771,-4.072,-4.0518,-4.0288,-4.0079,-3.9898,-3.9703,-3.9527,-3.9399,-3.9101,-3.8807,-3.8517,-3.8099,-3.7703,-3.7698,-3.7658,-3.6922,-3.6129,-3.4965,-3.3829,-3.271,-3.1743,-3.0719,-2.978,-2.8423,-2.7417,-2.6902,-2.5217,-2.4116,-2.2903,-2.1155,-1.9613,-1.8745,-1.7946,-1.7041,-4.3625,-4.3985,-4.3265,-4.2564,-4.1958,-4.1143,-4.0479,-3.9908,-3.9889,-3.9889,-3.9889,-3.9889,-3.9889,-3.9889,-3.9889,-3.9889,-3.9889,-3.9889,-3.9889,-3.9889,-3.9889,-3.9889,-3.9889,-3.9889,-3.9889,-3.9851,-3.9683,-3.9115,-3.8433,-3.8281,-3.7885,-3.7258,-3.7277,-3.7258,-3.7068,-3.7277,-3.739,-3.739,-3.739,-3.7239,-3.703,-3.7011,-3.7011,-3.7011,-3.703,-3.6977,-3.6938,-3.6665,-3.6684,-3.6957,-3.6565,-3.6572,-3.7221,-3.8032,-3.8344,-3.8168,-3.8324,-3.8578,-3.8909,-3.9396,-3.9786,-4.0246,-4.0749,-4.1076,-4.11,-4.1101,-4.1108,-4.1108,-4.1099,-4.1107,-4.1094,-4.1069,-4.1039,-4.0993,-4.0971,-4.0946,-4.0898,-4.0839,-4.0804,-4.0803,-4.079,-4.072,-4.0523,-4.033,-4.0133,-3.9949,-3.9684,-3.952,-3.9399,-3.9229,-3.8952,-3.864,-3.8281,-3.7984,-3.7846,-3.7707,-3.7288,-3.6619,-3.5701,-3.4595,-3.3547,-3.2571,-3.1546,-3.038,-2.9015,-2.8131,-2.7601,-2.6803,-2.5784,-2.436,-2.2715,-2.15,-2.0531,-1.9503,-1.8451,-4.444,-4.4762,-4.3701,-4.2924,-4.228,-4.1237,-4.0423,-3.9927,-3.9889,-3.9889,-3.9889,-3.9889,-3.9889,-3.9889,-3.9889,-3.9889,-3.9889,-3.9889,-3.9889,-3.9889,-3.9889,-3.9889,-3.9889,-3.9889,-3.9889,-3.9889,-3.987,-3.9665,-3.9172,-3.9115,-3.8717,-3.8035,-3.8167,-3.8167,-3.7978,-3.8186,-3.8319,-3.8319,-3.8338,-3.8186,-3.794,-3.7864,-3.7864,-3.7883,-3.7883,-3.8057,-3.8384,-3.8156,-3.7881,-3.7607,-3.6746,-3.6647,-3.7208,-3.772,-3.8013,-3.8013,-3.8071,-3.8266,-3.8889,-3.9513,-3.998,-4.0298,-4.0783,-4.1091,-4.11,-4.1117,-4.1108,-4.1108,-4.1111,-4.1116,-4.1108,-4.1112,-4.1091,-4.1058,-4.1018,-4.0946,-4.0878,-4.0828,-4.0804,-4.0796,-4.079,-4.0733,-4.0612,-4.0427,-4.0227,-4.0022,-3.9823,-3.9552,-3.9451,-3.9346,-3.9073,-3.8826,-3.8609,-3.8238,-3.7863,-3.768,-3.7558,-3.6991,-3.6302,-3.5232,-3.4153,-3.336,-3.24,-3.1275,-3.0002,-2.9672,-2.9204,-2.8581,-2.7655,-2.6013,-2.4327,-2.29,-2.1602,-2.0517,-1.9492,-4.4895,-4.4687,-4.317,-4.2526,-4.2223,-4.0783,-4.006,-3.9889,-3.9889,-3.9889,-3.9889,-3.9889,-3.9889,-3.9889,-3.9889,-3.9889,-3.9889,-3.9889,-3.9889,-3.9889,-3.9889,-3.9889,-3.9889,-3.9889,-3.9889,-3.9889,-3.9889,-3.9851,-3.9738,-3.9759,-3.9532,-3.8888,-3.9323,-3.9494,-3.8982,-3.9513,-3.9681,-3.9624,-3.9719,-3.938,-3.8774,-3.8755,-3.8755,-3.8755,-3.8774,-3.9058,-3.9553,-3.9464,-3.8707,-3.7203,-3.721,-3.7354,-3.7319,-3.7272,-3.7467,-3.7525,-3.735,-3.8305,-3.9396,-3.9922,-4.0273,-4.0896,-4.1017,-4.1115,-4.1115,-4.1117,-4.1108,-4.1108,-4.1108,-4.1111,-4.1111,-4.1114,-4.1107,-4.1092,-4.1025,-4.0945,-4.0818,-4.0807,-4.0804,-4.0815,-4.079,-4.079,-4.0778,-4.0591,-4.0414,-4.0229,-4.002,-3.9731,-3.9514,-3.9362,-3.9256,-3.9064,-3.8822,-3.8559,-3.8168,-3.7966,-3.7796,-3.7233,-3.6599,-3.5762,-3.4704,-3.382,-3.3105,-3.1931,-3.1119,-3.0936,-3.0569,-2.9876,-2.8921,-2.7405,-2.5751,-2.4066,-2.2767,-2.1727,-2.074,-4.4895,-4.4781,-4.3777,-4.3,-4.2318,-4.1275,-4.0479,-3.9927,-3.9889,-3.9889,-3.9889,-3.9889,-3.9889,-3.9889,-3.9889,-3.9889,-3.9889,-3.9889,-3.9889,-3.9889,-3.9889,-3.9889,-3.9889,-3.9889,-3.9889,-3.9889,-3.9889,-3.9889,-3.9889,-3.9889,-3.9797,-3.9627,-3.974,-3.9794,-3.9683,-3.9778,-3.987,-3.9889,-3.9889,-3.9813,-3.9627,-3.9551,-3.9589,-3.9589,-3.957,-3.9665,-3.9816,-3.9369,-3.8991,-3.8549,-3.8722,-3.8657,-3.8156,-3.811,-3.811,-3.8227,-3.8753,-3.924,-3.9766,-4.039,-4.0857,-4.1052,-4.11,-4.1111,-4.1115,-4.1117,-4.1108,-4.1108,-4.1108,-4.1108,-4.1108,-4.1108,-4.1091,-4.1049,-4.1006,-4.096,-4.0839,-4.0807,-4.0804,-4.0803,-4.079,-4.079,-4.0752,-4.0642,-4.048,-4.0348,-4.0101,-3.9785,-3.958,-3.9376,-3.9272,-3.9183,-3.896,-3.8766,-3.8556,-3.833,-3.7987,-3.7418,-3.6829,-3.6285,-3.5111,-3.4038,-3.3285,-3.2449,-3.1806,-3.1462,-3.1253,-3.0764,-2.9714,-2.8596,-2.7186,-2.5608,-2.4408,-2.3349,-2.2122,-4.4895,-4.48,-4.3644,-4.2867,-4.2261,-4.1162,-4.0366,-3.9946,-3.9889,-3.9889,-3.9889,-3.9889,-3.9889,-3.9889,-3.9889,-3.9889,-3.9889,-3.9889,-3.9889,-3.9889,-3.9889,-3.9889,-3.9889,-3.9889,-3.9889,-3.9889,-3.9889,-3.9889,-3.9889,-3.9889,-3.9889,-3.9851,-3.9889,-3.9889,-3.9851,-3.9889,-3.9889,-3.9889,-3.9889,-3.9889,-3.9889,-3.9889,-3.987,-3.9889,-3.9889,-3.9889,-3.9816,-3.9561,-3.9126,-3.871,-3.8752,-3.8791,-3.8486,-3.8488,-3.8656,-3.8987,-3.9552,-3.9922,-4.0351,-4.0838,-4.1071,-4.1117,-4.112,-4.1111,-4.11,-4.1117,-4.1108,-4.1108,-4.1108,-4.1108,-4.1108,-4.1108,-4.1073,-4.101,-4.0979,-4.0961,-4.0819,-4.0807,-4.0804,-4.0796,-4.079,-4.079,-4.079,-4.0674,-4.059,-4.0481,-4.0304,-3.9963,-3.9664,-3.947,-3.9279,-3.9165,-3.9055,-3.8865,-3.8693,-3.8489,-3.8039,-3.7502,-3.6913,-3.6402,-3.5582,-3.4398,-3.3709,-3.3034,-3.2481,-3.2017,-3.1632,-3.1223,-3.0472,-2.9334,-2.8243,-2.7127,-2.5877,-2.4549,-2.3405,-4.4895,-4.4781,-4.3208,-4.2488,-4.2185,-4.0764,-4.01,-3.9908,-3.9889,-3.9889,-3.9889,-3.9889,-3.9867,-3.9889,-3.9867,-3.9848,-3.9848,-3.9889,-3.9889,-3.9889,-3.9889,-3.9867,-3.9848,-3.9848,-3.9848,-3.9848,-3.9867,-3.9848,-3.9848,-3.9848,-3.9889,-3.9889,-3.9889,-3.9889,-3.9889,-3.9889,-3.9889,-3.9889,-3.9889,-3.9889,-3.9889,-3.9889,-3.9889,-3.9889,-3.9889,-3.9889,-3.9933,-3.9884,-3.9509,-3.8153,-3.8227,-3.864,-3.8675,-3.8753,-3.915,-3.9766,-4.0039,-4.0351,-4.0896,-4.1052,-4.111,-4.1117,-4.1114,-4.1111,-4.1115,-4.1113,-4.1108,-4.1108,-4.1108,-4.1108,-4.1111,-4.1111,-4.1073,-4.0999,-4.0987,-4.0928,-4.0849,-4.0807,-4.0804,-4.0803,-4.079,-4.079,-4.079,-4.079,-4.0733,-4.0607,-4.0422,-4.0138,-3.9821,-3.9599,-3.9345,-3.911,-3.9055,-3.8998,-3.8792,-3.8619,-3.8099,-3.7524,-3.6974,-3.6402,-3.5941,-3.5038,-3.4311,-3.3614,-3.3062,-3.242,-3.1861,-3.1345,-3.0841,-3.0051,-2.8847,-2.7893,-2.6924,-2.5598,-2.4457,-4.4895,-4.4838,-4.3834,-4.3019,-4.2299,-4.1351,-4.0536,-3.9889,-3.9889,-3.9889,-3.9889,-3.9804,-3.9758,-3.9758,-3.9739,-3.9758,-3.9762,-3.9845,-3.9889,-3.9889,-3.9781,-3.9758,-3.9739,-3.9758,-3.9739,-3.9717,-3.9623,-3.9647,-3.9717,-3.9762,-3.9804,-3.9889,-3.9889,-3.9889,-3.9889,-3.9889,-3.9889,-3.9889,-3.9889,-3.9889,-3.9889,-3.9889,-3.9889,-3.9889,-3.9889,-3.9889,-3.9911,-4.0036,-3.9946,-3.9757,-3.9775,-3.9857,-4.0072,-4.0226,-4.0385,-4.0584,-4.0753,-4.0896,-4.1071,-4.111,-4.111,-4.111,-4.1109,-4.1106,-4.1115,-4.1109,-4.1101,-4.1108,-4.1108,-4.1108,-4.1111,-4.1107,-4.1074,-4.1019,-4.0988,-4.0942,-4.082,-4.0807,-4.0804,-4.0796,-4.079,-4.079,-4.079,-4.079,-4.0746,-4.07,-4.0549,-4.03,-4.0005,-3.9716,-3.9451,-3.9173,-3.9055,-3.9027,-3.8933,-3.8696,-3.8204,-3.7667,-3.7094,-3.6585,-3.6131,-3.5722,-3.4934,-3.4256,-3.3576,-3.2917,-3.2136,-3.1696,-3.1246,-3.0394,-2.9574,-2.8838,-2.7853,-2.6658,-2.5938,-4.4895,-4.4819,-4.4042,-4.3189,-4.2356,-4.1541,-4.0707,-4.0003,-3.9889,-3.9889,-3.9848,-3.9781,-3.9717,-3.9693,-3.9628,-3.9628,-3.9693,-3.9781,-3.9781,-3.9712,-3.9623,-3.9604,-3.9599,-3.9551,-3.9532,-3.9575,-3.9532,-3.9556,-3.967,-3.9717,-3.9781,-3.9889,-3.9889,-3.9889,-3.9889,-3.9889,-3.9889,-3.9889,-3.9889,-3.9889,-3.9889,-3.9889,-3.9889,-3.9889,-3.9889,-3.9889,-3.9911,-4.0015,-4.0057,-4.0138,-4.0271,-4.0473,-4.0713,-4.0819,-4.0935,-4.0988,-4.1078,-4.1104,-4.111,-4.111,-4.111,-4.113,-4.1109,-4.11,-4.1115,-4.1105,-4.1097,-4.1108,-4.1108,-4.1108,-4.1111,-4.1099,-4.1074,-4.1019,-4.0992,-4.0929,-4.0849,-4.0807,-4.0804,-4.0796,-4.079,-4.079,-4.079,-4.079,-4.079,-4.0746,-4.0733,-4.05,-4.0043,-3.9762,-3.9505,-3.9287,-3.9165,-3.9055,-3.9017,-3.8759,-3.8342,-3.7843,-3.7321,-3.6834,-3.6402,-3.6028,-3.5633,-3.4903,-3.4137,-3.3231,-3.252,-3.2093,-3.1521,-3.07,-3.0045,-2.9567,-2.9059,-2.8117,-2.7644,-4.4865,-4.4745,-4.3975,-4.3142,-4.2267,-4.1472,-4.0621,-3.9902,-3.9826,-3.9804,-3.9804,-3.9693,-3.958,-3.9623,-3.9508,-3.9532,-3.9647,-3.9623,-3.9575,-3.9532,-3.9483,-3.9458,-3.9452,-3.9401,-3.9376,-3.9452,-3.9408,-3.9483,-3.9604,-3.9693,-3.9735,-3.9848,-3.9889,-3.9889,-3.9889,-3.9889,-3.9889,-3.9889,-3.9889,-3.9889,-3.9889,-3.9889,-3.9889,-3.9889,-3.9889,-3.9889,-3.9911,-3.9975,-4.0017,-4.0096,-4.0157,-4.029,-4.0473,-4.0706,-4.0878,-4.0907,-4.1186,-4.1396,-4.1422,-4.1364,-4.1344,-4.1286,-4.1123,-4.112,-4.1111,-4.1105,-4.1117,-4.1104,-4.1108,-4.1108,-4.1108,-4.1114,-4.1073,-4.1006,-4.0991,-4.0939,-4.0849,-4.0807,-4.0804,-4.0815,-4.079,-4.079,-4.079,-4.079,-4.079,-4.079,-4.079,-4.064,-4.0191,-3.9827,-3.958,-3.9345,-3.92,-3.9082,-3.9045,-3.8855,-3.8423,-3.7964,-3.7505,-3.7052,-3.665,-3.6301,-3.5881,-3.5374,-3.461,-3.3767,-3.3011,-3.2516,-3.187,-3.1073,-3.0594,-3.0273,-2.9955,-2.9628,-2.9213,-4.4685,-4.4522,-4.3844,-4.297,-4.2001,-4.1193,-4.039,-3.965,-3.9599,-3.9556,-3.9551,-3.9433,-3.9401,-3.9376,-3.935,-3.9427,-3.9477,-3.9452,-3.9427,-3.9433,-3.9401,-3.935,-3.9324,-3.9298,-3.9245,-3.9183,-3.9192,-3.9305,-3.9483,-3.9551,-3.9689,-3.9826,-3.9889,-3.9889,-3.9889,-3.9889,-3.9889,-3.9889,-3.9889,-3.9889,-3.9889,-3.9889,-3.9889,-3.9889,-3.9889,-3.9889,-3.9911,-3.9954,-4.0015,-4.0017,-4.0137,-4.0215,-4.0325,-4.0574,-4.0784,-4.0995,-4.1498,-4.1792,-4.1812,-4.1948,-4.2065,-4.1968,-4.1481,-4.1128,-4.1106,-4.1115,-4.1109,-4.1104,-4.1108,-4.1108,-4.1108,-4.1108,-4.1072,-4.1008,-4.0987,-4.095,-4.0887,-4.0837,-4.0804,-4.0803,-4.079,-4.079,-4.079,-4.079,-4.079,-4.079,-4.079,-4.064,-4.0298,-3.9986,-3.9719,-3.9476,-3.9245,-3.9165,-3.9101,-3.8807,-3.8486,-3.8083,-3.7632,-3.7167,-3.6753,-3.6468,-3.6071,-3.5644,-3.522,-3.4544,-3.385,-3.3112,-3.2624,-3.2104,-3.1582,-3.1058,-3.0911,-3.0763,-3.0421,-4.4414,-4.3947,-4.3551,-4.2603,-4.1443,-4.0973,-4.0315,-3.9558,-3.9483,-3.9483,-3.9458,-3.9357,-3.9298,-3.9272,-3.9219,-3.9264,-3.929,-3.9324,-3.9298,-3.9298,-3.9219,-3.9192,-3.9192,-3.9192,-3.9165,-3.9129,-3.911,-3.9192,-3.9383,-3.9477,-3.9623,-3.9758,-3.9848,-3.9889,-3.9889,-3.9889,-3.9889,-3.9889,-3.9889,-3.9889,-3.9889,-3.9889,-3.9889,-3.9889,-3.9889,-3.9889,-3.9892,-3.9911,-3.9954,-3.9996,-4.0077,-4.0118,-4.0233,-4.045,-4.0706,-4.0895,-4.1396,-4.1714,-4.1714,-4.1675,-4.1637,-4.1637,-4.1305,-4.1142,-4.1106,-4.1115,-4.1105,-4.1104,-4.1108,-4.1108,-4.1108,-4.1108,-4.1052,-4.1006,-4.0991,-4.0939,-4.0887,-4.0809,-4.0792,-4.0815,-4.0803,-4.079,-4.079,-4.079,-4.079,-4.079,-4.079,-4.0626,-4.0403,-4.0081,-3.9804,-3.9537,-3.9328,-3.9258,-3.9212,-3.909,-3.8603,-3.815,-3.7774,-3.7301,-3.6873,-3.6527,-3.6301,-3.6028,-3.5599,-3.5157,-3.4657,-3.4018,-3.3578,-3.3108,-3.2602,-3.2135,-3.2064,-3.1864,-3.1492,-4.4116,-4.3337,-4.3275,-4.2265,-4.0877,-4.0727,-4.0214,-3.952,-3.9427,-3.9383,-3.9383,-3.9298,-3.9245,-3.9219,-3.9165,-3.9101,-3.9101,-3.9219,-3.9192,-3.9137,-3.911,-3.9082,-3.9082,-3.9101,-3.9101,-3.9101,-3.9101,-3.9165,-3.9324,-3.9452,-3.9575,-3.9693,-3.9826,-3.9889,-3.9889,-3.9867,-3.9889,-3.9889,-3.9889,-3.9889,-3.9889,-3.9889,-3.9889,-3.9889,-3.9889,-3.9889,-3.987,-3.9892,-3.9933,-3.9954,-3.9996,-4.0038,-4.0196,-4.045,-4.0636,-4.075,-4.1099,-4.1305,-4.1403,-4.1461,-4.1598,-4.1617,-4.1247,-4.1123,-4.11,-4.1115,-4.1105,-4.1104,-4.1108,-4.1108,-4.1108,-4.1108,-4.1069,-4.1051,-4.1013,-4.0959,-4.0902,-4.0849,-4.0815,-4.08,-4.0815,-4.0803,-4.079,-4.079,-4.079,-4.079,-4.079,-4.0733,-4.0485,-4.0119,-3.9802,-3.957,-3.9402,-3.9323,-3.9361,-3.9491,-3.8879,-3.8186,-3.7879,-3.7505,-3.7013,-3.6585,-3.6402,-3.6216,-3.6011,-3.5599,-3.522,-3.4847,-3.435,-3.3869,-3.3507,-3.3298,-3.3182,-3.2864,-3.2415,-4.377,-4.2869,-4.2996,-4.2053,-4.0579,-4.0468,-3.9937,-3.9221,-3.9221,-3.9156,-3.9295,-3.923,-3.9259,-3.9184,-3.9129,-3.9101,-3.9101,-3.9129,-3.9129,-3.9101,-3.9101,-3.9101,-3.9101,-3.9101,-3.9101,-3.9101,-3.9101,-3.9165,-3.9279,-3.9408,-3.9532,-3.967,-3.9717,-3.9762,-3.9867,-3.9804,-3.9804,-3.9889,-3.9889,-3.9889,-3.9889,-3.9889,-3.9889,-3.9889,-3.9889,-3.9889,-3.9889,-3.9889,-3.9911,-3.993,-3.9975,-4.0017,-4.0138,-4.0415,-4.061,-4.0947,-4.1489,-4.2143,-4.1981,-4.187,-4.1851,-4.1714,-4.1442,-4.1181,-4.11,-4.1111,-4.1105,-4.1108,-4.1104,-4.1101,-4.1108,-4.1108,-4.1086,-4.1074,-4.1043,-4.0992,-4.0948,-4.0849,-4.0796,-4.0812,-4.0796,-4.0803,-4.079,-4.079,-4.079,-4.079,-4.079,-4.0733,-4.0564,-4.0173,-4.0008,-3.9846,-3.9813,-3.977,-3.9854,-3.9946,-3.9361,-3.8485,-3.8018,-3.7685,-3.715,-3.669,-3.6444,-3.6301,-3.6156,-3.6011,-3.5599,-3.5237,-3.4941,-3.4609,-3.4219,-3.4219,-3.4399,-3.3937,-3.3375,-4.3662,-4.2909,-4.2899,-4.1957,-4.0476,-4.0401,-3.99,-3.9324,-3.9621,-3.9825,-3.9937,-4.0346,-4.029,-3.9751,-3.9361,-3.9101,-3.9101,-3.9101,-3.9101,-3.9101,-3.9101,-3.9101,-3.9101,-3.9101,-3.9101,-3.9101,-3.9101,-3.9129,-3.9245,-3.9357,-3.9526,-3.9502,-3.9604,-3.9717,-3.9804,-3.9717,-3.9781,-3.9848,-3.9889,-3.9889,-3.9889,-3.9889,-3.9889,-3.9889,-3.9889,-3.9889,-3.9889,-3.9889,-3.9889,-3.9911,-3.9933,-3.9975,-4.0118,-4.0319,-4.0492,-4.0745,-4.1141,-4.147,-4.1565,-4.165,-4.1675,-4.1617,-4.1305,-4.1142,-4.11,-4.1115,-4.1109,-4.1108,-4.1104,-4.1104,-4.1108,-4.1108,-4.1105,-4.1094,-4.1047,-4.0996,-4.0935,-4.0867,-4.0796,-4.0812,-4.0808,-4.0803,-4.079,-4.079,-4.079,-4.079,-4.079,-4.0733,-4.0545,-4.0227,-4.0184,-4.0227,-4.0288,-4.0375,-4.0477,-4.0541,-4.0007,-3.9163,-3.8225,-3.7845,-3.7264,-3.6816,-3.655,-3.6385,-3.6241,-3.6054,-3.5881,-3.5661,-3.5374,-3.5128,-3.4894,-3.4941,-3.4941,-3.4704,-3.4202,-4.3755,-4.3256,-4.3155,-4.2166,-4.0717,-4.0698,-4.0234,-3.9565,-4.0085,-4.0253,-4.0253,-4.055,-4.0494,-4.0067,-3.938,-3.9101,-3.9101,-3.9101,-3.9101,-3.9101,-3.9101,-3.9101,-3.9101,-3.9101,-3.9101,-3.9101,-3.9101,-3.9101,-3.9183,-3.9298,-3.9401,-3.9324,-3.9477,-3.9623,-3.9675,-3.9651,-3.9717,-3.9889,-3.9889,-3.9889,-3.9889,-3.9889,-3.9889,-3.9889,-3.9889,-3.9889,-3.9889,-3.9889,-3.9889,-3.9889,-3.9911,-3.9954,-4.0118,-4.0269,-4.0446,-4.0668,-4.0965,-4.1077,-4.1181,-4.1208,-4.111,-4.111,-4.111,-4.1097,-4.11,-4.11,-4.1109,-4.1101,-4.1101,-4.1101,-4.1108,-4.1108,-4.1119,-4.1092,-4.105,-4.098,-4.0902,-4.0848,-4.0807,-4.0804,-4.08,-4.0803,-4.079,-4.079,-4.079,-4.079,-4.0778,-4.0746,-4.0481,-4.0173,-4.0068,-4.0101,-4.0682,-4.0737,-4.07,-4.068,-4.0244,-3.9749,-3.8802,-3.7951,-3.7339,-3.6913,-3.6585,-3.6444,-3.6284,-3.6241,-3.6054,-3.5924,-3.5749,-3.5644,-3.5554,-3.5374,-3.5299,-3.5115,-3.4864,-4.414,-4.3912,-4.3912,-4.2946,-4.146,-4.1516,-4.1033,-4.0085,-4.029,-4.0011,-3.9602,-3.938,-3.9565,-3.9287,-3.9268,-3.9101,-3.9101,-3.9101,-3.9101,-3.9101,-3.9101,-3.9101,-3.9101,-3.9101,-3.9101,-3.9101,-3.9101,-3.9101,-3.911,-3.9219,-3.9298,-3.9324,-3.9401,-3.9526,-3.9599,-3.9628,-3.9717,-3.9848,-3.9889,-3.9889,-3.9889,-3.9889,-3.9889,-3.9889,-3.9889,-3.9889,-3.9889,-3.9889,-3.9889,-3.9889,-3.9889,-3.9954,-4.0098,-4.0196,-4.0383,-4.0649,-4.0807,-4.0935,-4.1064,-4.111,-4.111,-4.111,-4.111,-4.1117,-4.112,-4.1103,-4.11,-4.1109,-4.1113,-4.1117,-4.1104,-4.1111,-4.1114,-4.1087,-4.1054,-4.0996,-4.092,-4.0837,-4.0809,-4.0796,-4.08,-4.0803,-4.079,-4.079,-4.079,-4.079,-4.0778,-4.0733,-4.0348,-4.0043,-3.9807,-3.9951,-4.084,-4.1006,-4.0727,-4.0548,-4.0537,-3.9946,-3.9049,-3.8182,-3.7358,-3.7013,-3.6602,-3.6444,-3.6284,-3.6284,-3.6284,-3.6114,-3.6071,-3.6199,-3.6114,-3.5881,-3.5749,-3.5661,-3.5328,-4.4067,-4.4005,-4.4005,-4.3076,-4.159,-4.159,-4.0828,-3.9825,-4.0141,-4.055,-4.0531,-4.0141,-3.99,-3.977,-3.9268,-3.9101,-3.9101,-3.9101,-3.9101,-3.9101,-3.9101,-3.9101,-3.9101,-3.9101,-3.9101,-3.9101,-3.9101,-3.9101,-3.9129,-3.9165,-3.9183,-3.9237,-3.9324,-3.9433,-3.9532,-3.967,-3.9804,-3.9845,-3.9889,-3.9889,-3.9889,-3.9889,-3.9889,-3.9889,-3.9889,-3.9889,-3.9889,-3.9889,-3.9889,-3.9889,-3.9889,-3.9994,-4.0096,-4.0158,-4.0353,-4.0655,-4.0754,-4.0898,-4.1071,-4.111,-4.111,-4.111,-4.111,-4.1117,-4.1114,-4.1114,-4.1106,-4.1105,-4.1113,-4.1101,-4.1104,-4.1108,-4.1114,-4.1084,-4.1054,-4.1006,-4.094,-4.0871,-4.08,-4.0807,-4.08,-4.0803,-4.079,-4.079,-4.079,-4.079,-4.0778,-4.0673,-4.0315,-4.0004,-3.9804,-3.9796,-4.0588,-4.1508,-4.1322,-4.1126,-4.0921,-4.0173,-3.9333,-3.8375,-3.7524,-3.6992,-3.6643,-3.6426,-3.6284,-3.6284,-3.6284,-3.6284,-3.6284,-3.6284,-3.6284,-3.6241,-3.6156,-3.6114,-3.5837,-4.3856,-4.367,-4.3633,-4.3002,-4.198,-4.1702,-4.0791,-3.9751,-4.0123,-4.068,-4.1181,-4.0401,-4.0178,-4.0104,-3.9844,-3.9528,-3.9565,-3.9528,-3.9305,-3.9194,-3.9101,-3.9101,-3.9101,-3.9101,-3.9101,-3.9101,-3.9101,-3.9101,-3.9101,-3.9101,-3.9129,-3.9192,-3.935,-3.9458,-3.9556,-3.9758,-3.9889,-3.9848,-3.9889,-3.9889,-3.9889,-3.9889,-3.9889,-3.9889,-3.9889,-3.9889,-3.9889,-3.9889,-3.9889,-3.9911,-3.9933,-3.9994,-4.0057,-4.0158,-4.0339,-4.0559,-4.0738,-4.0848,-4.1023,-4.111,-4.111,-4.111,-4.111,-4.1117,-4.1109,-4.11,-4.1111,-4.11,-4.1117,-4.1104,-4.1108,-4.1108,-4.1108,-4.1099,-4.1074,-4.1047,-4.0992,-4.0915,-4.0839,-4.0798,-4.08,-4.079,-4.079,-4.079,-4.079,-4.079,-4.079,-4.0673,-4.0403,-4.012,-3.9933,-3.9994,-4.0352,-4.1241,-4.2028,-4.1274,-4.0643,-4.073,-3.9834,-3.8558,-3.7738,-3.7167,-3.6708,-3.6485,-3.6385,-3.6284,-3.6284,-3.6284,-3.6284,-3.6284,-3.6284,-3.6284,-3.6284,-3.6199,-3.6241,-4.3485,-4.2872,-4.2816,-4.276,-4.2426,-4.1887,-4.1033,-4.0123,-4.0215,-4.0327,-4.0308,-3.9565,-3.9695,-4.0197,-4.0197,-4.0234,-4.0308,-4.0253,-3.9918,-3.9417,-3.9157,-3.912,-3.9101,-3.9101,-3.9101,-3.9101,-3.9101,-3.9101,-3.9101,-3.9101,-3.9101,-3.9165,-3.9305,-3.9483,-3.9508,-3.9758,-3.9826,-3.9739,-3.9826,-3.987,-3.9889,-3.9889,-3.9889,-3.9889,-3.9889,-3.9889,-3.9889,-3.9889,-3.9889,-3.9911,-3.9954,-4.0017,-4.0096,-4.0157,-4.0358,-4.0655,-4.0713,-4.0839,-4.1052,-4.1085,-4.111,-4.111,-4.111,-4.111,-4.1117,-4.1109,-4.1106,-4.1115,-4.1109,-4.1101,-4.1104,-4.1108,-4.1108,-4.1099,-4.1093,-4.1068,-4.1,-4.0935,-4.0866,-4.0818,-4.08,-4.079,-4.079,-4.079,-4.079,-4.079,-4.079,-4.066,-4.0438,-4.0176,-3.9956,-3.9878,-4.0042,-4.0812,-4.1404,-4.0791,-4.041,-4.0685,-4.0179,-3.878,-3.7911,-3.7395,-3.6974,-3.6591,-3.6385,-3.6284,-3.6284,-3.6284,-3.6284,-3.6284,-3.6284,-3.6284,-3.6284,-3.6284,-3.6284,-4.224,-4.1999,-4.1999,-4.1683,-4.12,-4.0921,-4.0327,-3.9621,-3.9528,-3.9528,-3.9491,-3.9175,-3.9584,-4.016,-4.0457,-4.0624,-4.0996,-4.0494,-4.0067,-3.99,-3.938,-3.9138,-3.9101,-3.9101,-3.9101,-3.9101,-3.9101,-3.9101,-3.9101,-3.9101,-3.9101,-3.9137,-3.9298,-3.9477,-3.9599,-3.9758,-3.9717,-3.9739,-3.9826,-3.9889,-3.9889,-3.9889,-3.9889,-3.9889,-3.9889,-3.9889,-3.9889,-3.9889,-3.9889,-3.9911,-3.9954,-4.0017,-4.0098,-4.0176,-4.0358,-4.0615,-4.0725,-4.0828,-4.1023,-4.111,-4.111,-4.111,-4.111,-4.111,-4.111,-4.1109,-4.11,-4.1115,-4.1113,-4.1104,-4.1108,-4.1108,-4.1111,-4.1114,-4.1091,-4.1072,-4.1007,-4.0941,-4.0866,-4.0839,-4.08,-4.0803,-4.079,-4.079,-4.079,-4.079,-4.079,-4.072,-4.0519,-4.0156,-3.9882,-3.9632,-3.9757,-4.0467,-4.0754,-4.0457,-4.0661,-4.1115,-4.0173,-3.8611,-3.7928,-3.7524,-3.7017,-3.6591,-3.6426,-3.6284,-3.6284,-3.6326,-3.6284,-3.6284,-3.6409,-3.6367,-3.6284,-3.6284,-3.6284,-4.1423,-4.1181,-4.1181,-4.0698,-4.0067,-4.0271,-3.99,-3.9194,-3.9101,-3.9101,-3.9101,-3.912,-3.9565,-4.0178,-4.0457,-4.0568,-4.1107,-4.0698,-4.0048,-3.9955,-3.9417,-3.9157,-3.9101,-3.9101,-3.9101,-3.9101,-3.9101,-3.9101,-3.9101,-3.9101,-3.911,-3.9192,-3.9245,-3.9427,-3.9575,-3.967,-3.9717,-3.9739,-3.9826,-3.9889,-3.9889,-3.9889,-3.9889,-3.9889,-3.9889,-3.9889,-3.9889,-3.9889,-3.9889,-3.9911,-3.9994,-4.0057,-4.0098,-4.0196,-4.0375,-4.0602,-4.0828,-4.0926,-4.1064,-4.111,-4.111,-4.111,-4.111,-4.111,-4.111,-4.1109,-4.1106,-4.11,-4.1117,-4.1104,-4.1108,-4.1108,-4.1111,-4.1116,-4.1108,-4.1073,-4.101,-4.0947,-4.0894,-4.0839,-4.08,-4.0815,-4.079,-4.079,-4.079,-4.079,-4.079,-4.0706,-4.0583,-4.0229,-3.9905,-3.9705,-3.9777,-4.0476,-4.0737,-4.0476,-4.081,-4.1479,-4.0221,-3.8572,-3.8096,-3.7703,-3.717,-3.6655,-3.6509,-3.6385,-3.6385,-3.6385,-3.6426,-3.6533,-3.6696,-3.6574,-3.6367,-3.6367,-3.6392,-4.1144,-4.0457,-4.0401,-3.9974,-3.9398,-4.0085,-3.9918,-3.9175,-3.912,-3.9157,-3.9268,-3.925,-3.9677,-4.0346,-4.0438,-4.0531,-4.0606,-4.0513,-4.003,-3.9491,-3.925,-3.9138,-3.9101,-3.9101,-3.9101,-3.9101,-3.9101,-3.9101,-3.9101,-3.9101,-3.9165,-3.9245,-3.9272,-3.9401,-3.9526,-3.9647,-3.9693,-3.9739,-3.9826,-3.9889,-3.9889,-3.9889,-3.9889,-3.9889,-3.9889,-3.9889,-3.9889,-3.9889,-3.9889,-3.9933,-4.0015,-4.0057,-4.0137,-4.0234,-4.0444,-4.0688,-4.0926,-4.1045,-4.1085,-4.111,-4.111,-4.111,-4.111,-4.111,-4.111,-4.1103,-4.11,-4.1115,-4.1117,-4.1104,-4.1108,-4.1108,-4.1108,-4.1099,-4.1108,-4.1073,-4.1013,-4.0939,-4.0882,-4.0849,-4.08,-4.0803,-4.079,-4.079,-4.079,-4.079,-4.079,-4.079,-4.0631,-4.0285,-4.0042,-3.9954,-4.0155,-4.0632,-4.0645,-4.0347,-4.0523,-4.1025,-4.0131,-3.8759,-3.8342,-3.7911,-3.7487,-3.7055,-3.6673,-3.6544,-3.6502,-3.6568,-3.669,-3.6794,-3.6974,-3.6956,-3.6741,-3.6661,-3.6661,-4.146,-4.12,-4.0624,-4.0234,-4.0085,-4.029,-4.0234,-3.9974,-3.9435,-3.9658,-4.081,-3.9602,-3.9918,-4.1144,-4.0661,-4.0754,-4.081,-4.0717,-4.0364,-3.9881,-3.9361,-3.9175,-3.9101,-3.9101,-3.9101,-3.9101,-3.9101,-3.9101,-3.9101,-3.9101,-3.9101,-3.9156,-3.9272,-3.9401,-3.9526,-3.9647,-3.9693,-3.9739,-3.9867,-3.9889,-3.9889,-3.9889,-3.9889,-3.9889,-3.9889,-3.9889,-3.9889,-3.9889,-3.9889,-3.9911,-3.9994,-4.0036,-4.0057,-4.0118,-4.0288,-4.0604,-4.0888,-4.111,-4.111,-4.111,-4.111,-4.111,-4.111,-4.111,-4.111,-4.1117,-4.1109,-4.1115,-4.1117,-4.1104,-4.1108,-4.1108,-4.1108,-4.1116,-4.1107,-4.1074,-4.1019,-4.095,-4.0906,-4.0828,-4.0796,-4.0803,-4.079,-4.079,-4.079,-4.079,-4.079,-4.0778,-4.066,-4.0321,-4.0139,-4.0057,-4.017,-4.0555,-4.0364,-4.0058,-4.0235,-4.03,-3.9556,-3.8989,-3.853,-3.8129,-3.7808,-3.7451,-3.7034,-3.6811,-3.6661,-3.6788,-3.6992,-3.7052,-3.7188,-3.717,-3.7152,-3.7076,-3.696,-4.159,-4.1534,-4.107,-4.0698,-4.042,-4.0401,-4.055,-4.0698,-4.029,-4.0736,-4.1367,-4.0215,-4.0178,-4.0773,-4.0271,-4.0215,-4.0903,-4.0197,-3.9918,-4.0123,-3.9547,-3.9231,-3.9101,-3.9101,-3.9101,-3.9101,-3.9101,-3.9101,-3.9101,-3.9101,-3.9101,-3.9129,-3.9272,-3.9401,-3.9532,-3.967,-3.9762,-3.9804,-3.9867,-3.9889,-3.9889,-3.9889,-3.9889,-3.9889,-3.9889,-3.9889,-3.9889,-3.9889,-3.9889,-3.9911,-3.9973,-4.0015,-4.0059,-4.0177,-4.0372,-4.0687,-4.0906,-4.1071,-4.111,-4.111,-4.111,-4.111,-4.111,-4.111,-4.111,-4.111,-4.1109,-4.1111,-4.1113,-4.1108,-4.1108,-4.1108,-4.1108,-4.1111,-4.1087,-4.1074,-4.1023,-4.0964,-4.0894,-4.0818,-4.0808,-4.0803,-4.079,-4.079,-4.079,-4.079,-4.0733,-4.066,-4.0539,-4.0304,-4.0177,-4.0119,-4.0182,-4.0326,-4.009,-3.9964,-4.016,-4.0123,-3.9584,-3.9053,-3.8628,-3.8355,-3.8096,-3.7773,-3.7395,-3.7243,-3.7147,-3.7206,-3.7376,-3.7469,-3.7667,-3.7825,-3.779,-3.7578,-3.7433,-4.1794,-4.1832,-4.172,-4.1311,-4.0643,-4.0698,-4.1126,-4.1739,-4.1746,-4.1813,-4.1702,-4.0762,-4.0391,-4.0624,-3.9787,-3.9779,-4.0215,-3.9918,-3.9937,-4.0364,-3.977,-3.9342,-3.912,-3.9101,-3.9101,-3.9101,-3.9101,-3.9101,-3.9101,-3.9101,-3.9129,-3.9129,-3.935,-3.9483,-3.9575,-3.9758,-3.9848,-3.9848,-3.9889,-3.9889,-3.9889,-3.9889,-3.9889,-3.9889,-3.9889,-3.9889,-3.9889,-3.9889,-3.9889,-3.9911,-3.9973,-3.9994,-4.01,-4.0315,-4.0549,-4.0742,-4.0943,-4.1071,-4.111,-4.111,-4.111,-4.111,-4.111,-4.111,-4.111,-4.111,-4.1103,-4.1111,-4.1117,-4.1108,-4.1108,-4.1108,-4.1108,-4.1111,-4.1103,-4.1074,-4.1021,-4.0944,-4.0876,-4.0804,-4.0796,-4.0803,-4.079,-4.079,-4.079,-4.079,-4.0765,-4.0626,-4.0489,-4.0304,-4.0139,-4.008,-4.0031,-4.0052,-4.0087,-4.0026,-4.0122,-3.9955,-3.9491,-3.9203,-3.8855,-3.864,-3.8436,-3.8114,-3.7826,-3.7826,-3.7791,-3.7756,-3.7826,-3.8132,-3.8328,-3.8597,-3.8504,-3.818,-3.7928,-4.341,-4.3373,-4.276,-4.2389,-4.224,-4.2222,-4.2649,-4.338,-4.319,-4.318,-4.2977,-4.1311,-4.057,-4.0937,-3.9616,-3.9534,-4.0123,-4.0123,-4.0215,-4.0383,-4.0085,-3.9621,-3.9212,-3.9138,-3.9101,-3.9101,-3.9101,-3.9101,-3.9101,-3.9101,-3.9156,-3.9245,-3.9408,-3.9508,-3.9647,-3.9826,-3.9889,-3.9889,-3.9889,-3.9889,-3.9889,-3.9889,-3.9889,-3.9889,-3.9889,-3.9889,-3.9889,-3.9889,-3.9889,-3.9911,-3.9911,-3.9973,-4.0017,-4.0329,-4.0511,-4.0655,-4.0935,-4.1071,-4.111,-4.111,-4.111,-4.111,-4.111,-4.111,-4.111,-4.111,-4.1103,-4.1111,-4.1113,-4.1101,-4.1108,-4.1108,-4.1111,-4.1114,-4.1099,-4.1055,-4.1016,-4.0929,-4.084,-4.0815,-4.0808,-4.0803,-4.0803,-4.079,-4.079,-4.079,-4.079,-4.072,-4.0583,-4.0408,-4.004,-3.9935,-3.9754,-3.9777,-3.987,-3.9892,-3.9933,-3.9759,-3.9351,-3.9138,-3.9045,-3.8836,-3.8609,-3.8455,-3.8263,-3.8263,-3.8198,-3.805,-3.8183,-3.8535,-3.8658,-3.8796,-3.8902,-3.8688,-3.8436,-4.4005,-4.3912,-4.3132,-4.2779,-4.2779,-4.2779,-4.3058,-4.3435,-4.3564,-4.3697,-4.356,-4.1871,-4.1098,-4.1317,-3.9902,-3.9538,-4.0317,-4.0383,-4.0661,-4.0791,-4.0457,-4.0123,-3.9714,-3.925,-3.912,-3.9101,-3.9101,-3.9101,-3.9101,-3.9101,-3.9183,-3.9298,-3.9383,-3.9508,-3.967,-3.9781,-3.9867,-3.9889,-3.9889,-3.9889,-3.9889,-3.9889,-3.9889,-3.9889,-3.9889,-3.9889,-3.9889,-3.9889,-3.9889,-3.9889,-3.9911,-3.9954,-4.0099,-4.0348,-4.0511,-4.0692,-4.0897,-4.111,-4.111,-4.111,-4.111,-4.111,-4.111,-4.111,-4.111,-4.111,-4.1103,-4.1111,-4.1105,-4.1117,-4.1108,-4.1108,-4.1108,-4.1111,-4.1099,-4.1073,-4.0991,-4.0914,-4.084,-4.0812,-4.0796,-4.0803,-4.079,-4.079,-4.079,-4.079,-4.079,-4.0733,-4.0617,-4.0489,-4.012,-3.9826,-3.9727,-3.9626,-3.9677,-3.9645,-3.9593,-3.9384,-3.921,-3.9156,-3.9073,-3.897,-3.8826,-3.8688,-3.8658,-3.8658,-3.8566,-3.8442,-3.8535,-3.8807,-3.8865,-3.8894,-3.8998,-3.9073,-3.8836,-4.4005,-4.3893,-4.3262,-4.286,-4.2786,-4.2866,-4.2817,-4.281,-4.3229,-4.3477,-4.3298,-4.2194,-4.157,-4.0983,-4.0276,-4.024,-4.0277,-4.0354,-4.0828,-4.094,-4.0624,-4.0141,-3.9751,-3.9435,-3.9212,-3.9101,-3.9101,-3.9101,-3.9101,-3.9101,-3.9156,-3.9272,-3.935,-3.9427,-3.9623,-3.9717,-3.9762,-3.9848,-3.9889,-3.9889,-3.9889,-3.9889,-3.9889,-3.9889,-3.9889,-3.9889,-3.9889,-3.9889,-3.9889,-3.9889,-3.9911,-3.9975,-4.012,-4.0332,-4.0516,-4.0692,-4.0935,-4.1071,-4.111,-4.111,-4.111,-4.111,-4.111,-4.111,-4.111,-4.1117,-4.1109,-4.1106,-4.11,-4.1113,-4.1104,-4.1108,-4.1108,-4.1097,-4.1084,-4.1073,-4.0976,-4.0882,-4.084,-4.0812,-4.0808,-4.0803,-4.079,-4.079,-4.079,-4.079,-4.0765,-4.0673,-4.0583,-4.0473,-4.0251,-4.0,-3.9826,-3.9731,-3.9602,-3.9546,-3.9469,-3.9425,-3.9328,-3.9229,-3.9129,-3.9073,-3.8998,-3.9027,-3.8998,-3.8942,-3.8942,-3.8884,-3.8998,-3.9055,-3.9027,-3.8998,-3.9027,-3.9073,-3.9073,-4.4005,-4.4005,-4.3819,-4.3299,-4.2678,-4.3144,-4.2956,-4.2331,-4.2687,-4.2884,-4.2683,-4.1805,-4.1087,-4.0836,-3.9981,-3.9868,-4.0332,-4.0481,-4.0457,-4.0476,-4.0643,-4.0085,-3.9584,-3.938,-3.9157,-3.9101,-3.9101,-3.9101,-3.9101,-3.9101,-3.9183,-3.9317,-3.9298,-3.9427,-3.967,-3.9717,-3.9781,-3.9848,-3.9889,-3.9889,-3.9889,-3.9889,-3.9889,-3.9889,-3.9889,-3.9889,-3.9889,-3.9889,-3.9889,-3.9889,-3.9911,-3.9975,-4.0139,-4.0351,-4.053,-4.0711,-4.0963,-4.1052,-4.1085,-4.111,-4.111,-4.111,-4.111,-4.111,-4.111,-4.111,-4.1109,-4.1106,-4.1105,-4.1113,-4.1104,-4.1108,-4.1111,-4.1087,-4.1053,-4.1025,-4.0972,-4.0894,-4.0809,-4.0804,-4.0808,-4.0815,-4.079,-4.079,-4.079,-4.079,-4.079,-4.072,-4.0687,-4.0539,-4.0358,-4.0139,-3.9916,-3.9731,-3.9552,-3.9546,-3.9495,-3.9451,-3.9425,-3.9328,-3.9229,-3.9183,-3.9156,-3.9156,-3.9129,-3.9073,-3.9101,-3.9101,-3.9082,-3.9055,-3.9082,-3.9082,-3.9101,-3.9101,-3.9101]}]]